Home Sewing Is Killing Fashion

PRE DATA

Datetime Category Release
2024-04-18 00:02:09 TV-WEB-HD-X264 The.Great.North.S04E01.GERMAN.DL.1080P.WEB.H264-WAYNE
2024-04-18 00:03:42 TV-WEB-HD-X264 The.Great.North.S04E01.German.DL.720p.WEB.h264-WvF
2024-04-18 00:04:51 TV-WEB-HD-X264 The.Great.North.S04E02.German.DL.720p.WEB.h264-WvF
2024-04-18 00:05:28 TV-WEB-HD-X264 Boligkjoep.i.Blinde.S02E01.NORWEGiAN.720p.WEB.h264-PRUTTEGUTT
2024-04-18 00:05:38 TV-WEB-HD-X264 The.Great.North.S04E03.German.DL.720p.WEB.h264-WvF
2024-04-18 00:05:44 TV-WEB-HD-X264 Boligkjoep.i.Blinde.S02E01.NORWEGiAN.1080p.WEB.h264-PRUTTEGUTT
2024-04-18 00:06:24 TV-WEB-HD-X264 The.Great.North.S04E04.German.DL.720p.WEB.h264-WvF
2024-04-18 00:06:50 TV-WEB-HD-X264 Hela.Kandis.Sverige.Bakar.S11E03.SWEDiSH.720p.WEB.h264-OLLONBORRE
2024-04-18 00:06:58 TV-WEB-HD-X264 Hela.Kandis.Sverige.Bakar.S11E03.SWEDiSH.1080p.WEB.h264-OLLONBORRE
2024-04-18 00:07:12 TV-WEB-HD-X264 The.Great.North.S04E02.GERMAN.DL.1080P.WEB.H264-WAYNE
2024-04-18 00:07:56 TV-WEB-HD-X264 The.Great.North.S04E03.GERMAN.DL.1080P.WEB.H264-WAYNE
2024-04-18 00:08:15 MP3 HUIR-Triumphal_Arch_Lovers-CDEP-Limited_Edition-2024-FWYH
2024-04-18 00:08:41 TV-WEB-HD-X264 The.Great.North.S04E04.GERMAN.DL.1080P.WEB.H264-WAYNE
2024-04-18 00:08:47 MP3 Selofan-Animal_Mentality-CD-2024-FWYH
2024-04-18 00:14:14 TV-WEB-X264 Tokyo.Vice.S02E05.FRENCH.WEB.x264-AMB3R
2024-04-18 00:14:22 TV-WEB-X264 Tokyo.Vice.S02E06.FRENCH.WEB.x264-AMB3R
2024-04-18 00:19:11 MP3-WEB Trembling_Void__Nightgaunt--Terrifying_Vistas_of_Reality-Split-WEB-2024-BLEEDiNG
2024-04-18 00:22:10 TV-WEB-X264 FBI.S06E09.SUBFRENCH.WEB.x264-AMB3R
2024-04-18 00:26:28 TV-WEB-HD-X264 Tracker.2024.S01E04.GERMAN.DL.1080P.WEB.H264-WAYNE
2024-04-18 00:30:03 GAMES-DOX Barotrauma.Update.v1.3.0.4-TENOKE
2024-04-18 00:30:17 GAMES-DOX New.Star.GP.Update.v20240416-TENOKE
2024-04-18 00:30:30 GAMES-DOX Our.Adventurer.Guild.Update.v1.071-TENOKE
2024-04-18 00:30:41 TV-WEB-HD-X264 Temptation.Island.S06E05.GERMAN.720p.WEB.h264-HAXE
2024-04-18 00:30:44 GAMES-DOX Revival.Recolonization.Update.v1.0.418-TENOKE
2024-04-18 00:30:47 TV-WEB-HD-X264 Temptation.Island.S06E05.GERMAN.1080p.WEB.h264-HAXE
2024-04-18 00:31:07 GAMES-DOX Yellow.Taxi.Goes.Vroom.Update.v1.0.3-TENOKE
2024-04-18 00:38:47 TV-WEB-HD-X264 Man.with.a.Plan.S04E01.German.DL.720p.WebHD.h264-FKKTV
2024-04-18 00:39:29 TV-WEB-HD-X264 Man.with.a.Plan.S04E02.German.DL.720p.WebHD.h264-FKKTV
2024-04-18 00:40:05 TV-WEB-HD-X264 Man.with.a.Plan.S04E03.German.DL.720p.WebHD.h264-FKKTV
2024-04-18 00:40:45 TV-WEB-HD-X264 Man.with.a.Plan.S04E04.German.DL.720p.WebHD.h264-FKKTV
2024-04-18 00:41:21 TV-WEB-HD-X264 Man.with.a.Plan.S04E05.German.DL.720p.WebHD.h264-FKKTV
2024-04-18 00:41:57 TV-WEB-HD-X264 Man.with.a.Plan.S04E06.German.DL.720p.WebHD.h264-FKKTV
2024-04-18 00:42:14 GAMES Abraca-TENOKE
2024-04-18 00:42:35 TV-WEB-HD-X264 Man.with.a.Plan.S04E07.German.DL.720p.WebHD.h264-FKKTV
2024-04-18 00:42:48 GAMES Armechgeddon-TENOKE
2024-04-18 00:43:10 GAMES Life.Eater-TENOKE
2024-04-18 00:43:11 TV-WEB-HD-X264 Man.with.a.Plan.S04E08.German.DL.720p.WebHD.h264-FKKTV
2024-04-18 00:43:34 GAMES Mojito.the.Cat-TENOKE
2024-04-18 00:43:49 TV-WEB-HD-X264 Man.with.a.Plan.S04E09.German.DL.720p.WebHD.h264-FKKTV
2024-04-18 00:44:04 GAMES Steel.Republic.Rail.Defender-TENOKE
2024-04-18 00:44:26 TV-WEB-HD-X264 Man.with.a.Plan.S04E10.German.DL.720p.WebHD.h264-FKKTV
2024-04-18 00:45:03 TV-WEB-HD-X264 Man.with.a.Plan.S04E11.German.DL.720p.WebHD.h264-FKKTV
2024-04-18 00:45:39 TV-WEB-HD-X264 Man.with.a.Plan.S04E12.German.DL.720p.WebHD.h264-FKKTV
2024-04-18 00:46:16 TV-WEB-HD-X264 Man.with.a.Plan.S04E13.German.DL.720p.WebHD.h264-FKKTV
2024-04-18 01:10:57 NSW Stolen_Realm_Update_v1.1.13_NSW-VENOM
2024-04-18 01:32:24 TV-WEB-X264 Man.with.a.Plan.S04E01.German.DL.Webrip.h264-FKKTV
2024-04-18 01:33:17 TV-WEB-X264 Man.with.a.Plan.S04E02.German.DL.Webrip.h264-FKKTV
2024-04-18 01:34:14 TV-WEB-X264 Man.with.a.Plan.S04E03.German.DL.Webrip.h264-FKKTV
2024-04-18 01:34:55 TV-WEB-X264 Man.with.a.Plan.S04E04.German.DL.Webrip.h264-FKKTV
2024-04-18 01:35:36 TV-WEB-X264 Man.with.a.Plan.S04E05.German.DL.Webrip.h264-FKKTV
2024-04-18 01:36:16 TV-WEB-X264 Man.with.a.Plan.S04E06.German.DL.Webrip.h264-FKKTV
2024-04-18 01:36:57 TV-WEB-X264 Man.with.a.Plan.S04E07.German.DL.Webrip.h264-FKKTV
2024-04-18 01:37:39 TV-WEB-X264 Man.with.a.Plan.S04E08.German.DL.Webrip.h264-FKKTV
2024-04-18 01:38:18 TV-WEB-X264 Man.with.a.Plan.S04E09.German.DL.Webrip.h264-FKKTV
2024-04-18 01:38:59 TV-WEB-X264 Man.with.a.Plan.S04E10.German.DL.Webrip.h264-FKKTV
2024-04-18 01:39:40 TV-WEB-X264 Man.with.a.Plan.S04E11.German.DL.Webrip.h264-FKKTV
2024-04-18 01:40:30 TV-WEB-X264 Man.with.a.Plan.S04E12.German.DL.Webrip.h264-FKKTV
2024-04-18 01:41:10 TV-WEB-X264 Man.with.a.Plan.S04E13.German.DL.Webrip.h264-FKKTV
2024-04-18 01:59:42 EBOOK Concerto.-.Das.Magazin.fuer.Alte.Musik.No.308.2024.GERMAN.HYBRID.MAGAZINE.eBook-LORENZ
2024-04-18 01:59:59 EBOOK DER.STANDARD.FORSCHUNG.No.04.2024.GERMAN.HYBRID.MAGAZINE.eBook-LORENZ
2024-04-18 02:00:16 EBOOK FOCUS.Money.No.17.2024.GERMAN.HYBRID.MAGAZINE.eBook-LORENZ
2024-04-18 02:00:32 EBOOK Leichtathletik.No.08.2024.GERMAN.HYBRID.MAGAZINE.eBook-LORENZ
2024-04-18 02:00:48 EBOOK MIS.MAGAZIN.No.01.2024.GERMAN.HYBRID.MAGAZINE.eBook-LORENZ
2024-04-18 02:01:23 EBOOK PferdeWoche.No.15.2024.GERMAN.HYBRID.MAGAZINE.eBook-LORENZ
2024-04-18 02:01:39 EBOOK SNOW.ACTIVE.April.2024.GERMAN.HYBRID.MAGAZINE.eBook-LORENZ
2024-04-18 02:01:39 TV-WEB-HD-X264 IFS.Invandrare.For.Svenskar.S03E07.SWEDiSH.1080p.WEB.h264-OLLONBORRE
2024-04-18 02:01:39 TV-WEB-HD-X264 Jakten.Pa.Forstasidan.S01E04.SWEDiSH.1080p.WEB.h264-OLLONBORRE
2024-04-18 02:01:39 EBOOK Modulor.No.02.2024.GERMAN.HYBRID.MAGAZINE.eBook-LORENZ
2024-04-18 02:01:39 TV-WEB-HD-X264 Rostiga.Roadtrips.S01E03.SWEDiSH.1080p.WEB.h264-OLLONBORRE
2024-04-18 02:01:47 TV-WEB-HD-X264 Jakten.Pa.Forstasidan.S01E04.SWEDiSH.720p.WEB.h264-OLLONBORRE
2024-04-18 02:01:56 EBOOK arrive.No.03.2024.GERMAN.HYBRID.MAGAZINE.eBook-LORENZ
2024-04-18 02:01:57 TV-WEB-HD-X264 Rostiga.Roadtrips.S01E03.SWEDiSH.720p.WEB.h264-OLLONBORRE
2024-04-18 02:02:07 TV-WEB-HD-X264 IFS.Invandrare.For.Svenskar.S03E07.SWEDiSH.720p.WEB.h264-OLLONBORRE
2024-04-18 02:02:12 EBOOK eHUDDLE.No.16.2024.GERMAN.HYBRID.MAGAZINE.eBook-LORENZ
2024-04-18 02:02:29 EBOOK freundin.No.10.2024.GERMAN.HYBRID.MAGAZINE.eBook-LORENZ
2024-04-18 02:06:18 TV-WEB-HD-X264 Andi.Olivers.Fabulous.Feasts.S01E04.1080p.WEBRiP.x264-DARKFLiX
2024-04-18 02:07:05 TV-HD-X264 Danny.Dyer.How.to.Be.a.Man.S01E02.1080p.HDTV.H264-DARKFLiX
2024-04-18 02:08:42 TV-HD-X264 Newsroom.Tokyo.2024.04.17.1080p.HDTV.H264-DARKFLiX
2024-04-18 02:09:28 TV-HD-X264 Race.Across.the.World.S04E02.1080p.HDTV.H264-DARKFLiX
2024-04-18 02:10:14 TV-HD-X264 Shop.Smart.Save.Money.S02E08.1080p.HDTV.H264-DARKFLiX
2024-04-18 02:11:06 TV-HD-X264 Springtime.on.the.Farm.S07E03.1080p.HDTV.H264-DARKFLiX
2024-04-18 02:11:52 TV-HD-X264 Stacey.Solomons.Renovation.Rescue.S01E02.1080p.HDTV.H264-DARKFLiX
2024-04-18 02:12:38 TV-WEB-HD-X264 Surgeons.At.the.Edge.of.Life.S06E04.1080p.WEBRiP.x264-DARKFLiX
2024-04-18 02:13:29 TV-HD-X264 The.1980s.Supermarket.S01E03.1080p.HDTV.H264-DARKFLiX
2024-04-18 02:25:06 X264-HD Detective.Dee.und.der.Pfad.zur.Hoelle.2018.German.1080p.BluRay.x264-LizardSquad
2024-04-18 02:25:40 X264-HD Detective.Dee.und.der.Pfad.zur.Hoelle.2018.German.720p.BluRay.x264-LizardSquad
2024-04-18 02:26:14 X264 Detective.Dee.und.der.Pfad.zur.Hoelle.2018.German.BDRip.x264-LizardSquad
2024-04-18 02:26:46 BLURAY-AVC Detective.Dee.und.der.Pfad.zur.Hoelle.2018.German.DL.1080p.BluRay.AVC-UNTAVC
2024-04-18 02:28:22 TV-HD-X264 The.Conners.S06E08.720p.HDTV.x264-SYNCOPY
2024-04-18 02:37:15 TV-HD-X264 The.Amazing.Race.S36E06.720p.HDTV.x264-SYNCOPY
2024-04-18 02:38:12 TV-HD-X264 Abbott.Elementary.S03E10.720p.HDTV.x264-SYNCOPY
2024-04-18 02:41:51 X264-HD Big.Zuu.Goes.to.Mecca.2024.1080p.WEBRip.x264-CBFM
2024-04-18 02:51:35 MP3-WEB Cedicci-The_Answer-(PPTK167)-WEB-2024-PTC
2024-04-18 02:52:17 MP3-WEB Dianthe-Glitch_in_Reality-(LKR027)-WEB-2024-PTC
2024-04-18 02:52:54 MP3-WEB Fabio_Jass-Crash_Loop-(LST898)-WEB-2024-PTC
2024-04-18 02:53:41 MP3-WEB FVR_ofc_and_Hanstler-In_My_Mind-(RFR077)-WEB-2024-PTC
2024-04-18 02:54:00 FLAC-WEB Histerial-Suggestion-(SUBSIST236D)-24BIT-WEB-FLAC-2024-PTC
2024-04-18 02:54:05 MP3-WEB Histerial-Suggestion-(SUBSIST236D)-WEB-2024-PTC
2024-04-18 02:55:56 MP3-WEB Juan_Lacrouts-ZZ-(DZB679)-WEB-2024-PTC
2024-04-18 02:56:17 MP3-WEB Miky_Larus-Paranoyd-(STNR048)-WEB-2024-PTC
2024-04-18 02:56:43 MP3-WEB Nelman-Rusty_Chains-(RQ096)-WEB-2024-PTC
2024-04-18 02:57:04 MP3-WEB Psychedelicdonny-The_Anunnaki-(BACO232)-WEB-2024-PTC
2024-04-18 02:57:33 MP3-WEB Vessant-Orfisme-(SPTZ016)-WEB-2024-PTC
2024-04-18 03:00:21 TV-HD-X264 Walker.S04E03.720p.HDTV.x264-SYNCOPY
2024-04-18 03:03:19 MP3-WEB El_Mamu-Mule-(PALLR005)-WEB-2024-PTC
2024-04-18 03:03:23 TV-WEB-HD-X264 Animal.Control.S02E06.1080p.WEB.H264-SuccessfulCrab
2024-04-18 03:03:45 MP3-WEB Stanny_Abram-Mamonaku-(ARVL016)-SINGLE-WEB-2024-PTC
2024-04-18 03:07:45 TV-HD-X264 Not.Dead.Yet.S02E08.720p.HDTV.x264-SYNCOPY
2024-04-18 03:12:07 MP3-WEB Raji_Rags-Bullet_Train-(OTIHEP001S3)-WEB-2024-PTC
2024-04-18 03:12:30 MP3-WEB Rodion_and_Mammarella-Musica_E_Computer-(SLOMO052)-WEB-2024-PTC
2024-04-18 03:13:03 MP3-WEB Substak-Signal-(SEEREC058)-WEB-2024-PTC
2024-04-18 03:23:59 MP3-WEB 6FOOT6_feat._CeCe-Black_and_White-(PVM825L)-WEB-2024-PTC
2024-04-18 03:24:15 MP3-WEB Dimassive-Moonlight-(PVM822)-WEB-2024-PTC
2024-04-18 03:24:25 MP3-WEB MNDsync-Strangers_EP-(PVM824L)-WEB-2024-PTC
2024-04-18 03:25:05 MP3-WEB StereoDelay-Growing_Strong-(PVM823)-WEB-2024-PTC
2024-04-18 03:25:54 GAMES-DOX SWORD.ART.ONLINE.Last.Recollection.v1.21-TENOKE
2024-04-18 03:26:39 GAMES-DOX Fate.Samurai.Remnant.Update.v1.2.1.incl.DLC-RUNE
2024-04-18 03:28:13 X265-HD Rolling.Thunder.1977.2160p.UHD.BluRay.x265-B0MBARDiERS
2024-04-18 03:30:27 TV-HD-X264 Survivor.S46E08.720p.HDTV.x264-SYNCOPY
2024-04-18 03:31:43 TV-WEB-HD-X264 Family.Guy.S22E15.1080p.WEB.H264-SuccessfulCrab
2024-04-18 03:32:38 MP3-WEB Osheyack_and_Nahash-Bait-(SBKT063)-WEB-2024-PTC
2024-04-18 03:38:20 MP3-WEB Nacho_Varela_and_Cruz_Vittor-Midnight_Mirage-(MLRM05)-SINGLE-WEB-2024-PTC
2024-04-18 03:39:50 X265-HD Rolling.Thunder.1977.2160p.UHD.BluRay.H265-MALUS
2024-04-18 03:40:48 MP3-WEB Atmoss_(SP)-All_Access-(RPT003)-WEB-2024-PTC
2024-04-18 03:44:59 MP3-WEB Maafhugger-Mystic_Lights-(KRUG011)-WEB-2024-PTC
2024-04-18 03:49:48 BLURAY Rolling.Thunder.1977.COMPLETE.UHD.BLURAY-B0MBARDiERS
2024-04-18 04:02:05 XXX-HD BrazzersExxtra.24.04.18.Best.Of.Nicolette.Shea.XXX.1080p.MP4-WRB
2024-04-18 04:03:57 XXX-HD BrazzersExxtra.24.04.18.Best.Of.Nicolette.Shea.XXX.2160p.MP4-WRB
2024-04-18 04:04:57 XXX-HD BrazzersExxtra.24.04.18.Richelle.Ryan.And.Lilly.Bell.Laundry.Stuck.Double.Fuck.XXX.1080p.MP4-WRB
2024-04-18 04:06:13 XXX-HD BrazzersExxtra.24.04.18.Richelle.Ryan.And.Lilly.Bell.Laundry.Stuck.Double.Fuck.XXX.2160p.MP4-WRB
2024-04-18 04:07:04 XXX-HD Lesbea.24.04.18.Lovita.Fate.And.Blair.Saenz.XXX.1080p.MP4-WRB
2024-04-18 04:08:51 XXX-HD MoneyTalks.24.04.18.Amari.Anne.Willow.Ryder.Nia.Bleu.Selina.Bentz.And.Daisy.Lavoy.Red-Hot.Rooftop.XXX.1080p.MP4-WRB
2024-04-18 04:11:06 TV-WEB-HD-X264 Ghost.Adventures.House.Calls.S02E03.1080p.WEB.h264-EDITH
2024-04-18 04:16:45 TV-WEB-HD-X264 On.the.Case.with.Paula.Zahn.S27E07.1080p.WEB.h264-EDITH
2024-04-18 04:17:54 XXX-HD JaysPOV.24.04.17.Piper.Press.XXX.1080p.MP4-WRB
2024-04-18 04:19:42 XXX-HD JaysPOV.24.04.17.Piper.Press.XXX.2160p.MP4-WRB
2024-04-18 04:20:39 XXX-HD Passion-HD.24.04.17.Ellie.Nova.Good.Morning.XXX.1080p.MP4-WRB
2024-04-18 04:20:52 TV-WEB-HD-X264 Take.My.Tumor.S01E03.1080p.WEB.h264-EDITH
2024-04-18 04:22:40 XXX-HD Passion-HD.24.04.17.Ellie.Nova.Good.Morning.XXX.2160p.MP4-WRB
2024-04-18 04:23:33 XXX-HD WetAndPuffy.24.04.17.Lexi.Dona.XXX.1080p.MP4-WRB
2024-04-18 04:25:04 XXX-HD WetAndPuffy.24.04.17.Lexi.Dona.XXX.2160p.MP4-WRB
2024-04-18 04:30:03 MP3-WEB Solo_Souljah-Storm_(The_Beginning_Of_The_End)-WEB-2017-RAGEMP3
2024-04-18 04:30:30 TV-HD-X264 Big.Brother.Canada.S12E20.720p.HDTV.x264-SYNCOPY
2024-04-18 04:30:39 MP3-WEB Solo_Souljah-Storm_2_(The_Aftermath)-WEB-2020-RAGEMP3
2024-04-18 04:31:06 MP3-WEB Solo_Souljah-The_Bremen_Street_Project-WEB-2021-RAGEMP3
2024-04-18 04:31:39 MP3-WEB Solo_Souljah-Liberation_2_Mr._Solos_Murder_And_Mayhem-WEB-2023-RAGEMP3
2024-04-18 04:50:32 XXX-HD Bang.Surprise.24.04.18.Zazie.Skymm.XXX.1080p.MP4-WRB
2024-04-18 04:51:21 NSW The_Exit_8_Update_v1.0.2_NSW-SUXXORS
2024-04-18 04:52:43 XXX-HD Bang.Surprise.24.04.18.Zazie.Skymm.XXX.2160p.MP4-WRB
2024-04-18 04:54:00 TV-WEB-HD-X264 The.Bold.and.the.Beautiful.S37E143.1080p.WEB.h264-DiRT
2024-04-18 04:54:35 XXX-HD PornWorld.24.04.18.Jessie.Ames.XXX.1080p.MP4-WRB
2024-04-18 04:54:42 TV-WEB-HD-X264 The.Price.Is.Right.2024.04.17.720p.WEB.h264-DiRT
2024-04-18 04:54:53 TV-WEB-HD-X264 The.Price.Is.Right.2024.04.17.1080p.WEB.h264-DiRT
2024-04-18 04:55:00 TV-WEB-HD-X264 The.Bold.and.the.Beautiful.S37E143.720p.WEB.h264-DiRT
2024-04-18 04:57:03 TV-WEB-HD-X264 Guys.Grocery.Games.S36E09.1080p.WEB.h264-FREQUENCY
2024-04-18 04:57:04 TV-WEB-HD-X264 Last.Chance.Garage.S01E05.1080p.WEB.h264-FREQUENCY
2024-04-18 04:57:07 TV-WEB-HD-X264 Murder.in.the.Heartland.2017.S09E05.1080p.WEB.h264-FREQUENCY
2024-04-18 04:57:08 TV-WEB-HD-X264 Texas.Metal.S07E12.1080p.WEB.h264-FREQUENCY
2024-04-18 04:57:09 TV-WEB-HD-X264 My.600-lb.Life.S12E07.1080p.WEB.h264-FREQUENCY
2024-04-18 04:58:00 NSW Splatoon_3_Update_v7.2.0_NSW-SUXXORS
2024-04-18 04:58:09 XXX-HD PornWorld.24.04.18.Jessie.Ames.XXX.2160p.MP4-WRB
2024-04-18 04:58:22 SPORTS UEFA.Champions.League.2024.04.17.Bayern.Munich.vs.Arsenal.2160p.WEB.H265-SOKA
2024-04-18 05:00:06 TV-HD-X264 Chucky.S03E06.720p.HDTV.x264-SYNCOPY
2024-04-18 05:01:33 XXX-HD 5KPorn.24.04.17.Matty.XXX.1080p.MP4-WRB
2024-04-18 05:02:33 XXX-HD AllOver30.24.04.17.Romana.B.Ladies.With.Toys.XXX.1080p.MP4-WRB
2024-04-18 05:03:35 XXX-HD AuntJudysXXX.24.04.17.Autumn.XXX.1080p.MP4-WRB
2024-04-18 05:04:40 XXX-HD ClubSweethearts.24.04.17.Margo.Von.Teese.Solo.XXX.1080p.MP4-WRB
2024-04-18 05:05:31 XXX-HD GirlsOutWest.24.04.17.Lune.Get.To.Know.Me.XXX.1080p.MP4-WRB
2024-04-18 05:06:51 XXX-HD JapanHDV.24.04.17.Megu.Memezawa.XXX.1080p.MP4-WRB
2024-04-18 05:08:08 XXX-HD LadyLyne.24.04.17.Rough.Desires.DP.XXX.1080p.MP4-WRB
2024-04-18 05:09:07 XXX-HD LadyVoyeurs.24.04.17.Paris.Model.Bragging.Girlfriend.XXX.1080p.MP4-WRB
2024-04-18 05:10:05 XXX-HD PlumperPass.24.04.17.Weed.Princess.XXX.1080p.MP4-WRB
2024-04-18 05:11:14 XXX-HD PutaLocura.24.04.17.Laura.Hardkinks.SPANISH.XXX.720p.MP4-WRB
2024-04-18 05:12:19 XXX-HD WankItNow.24.04.17.Kitty.Marie.Bubble.Bath.Tease.XXX.1080p.MP4-WRB
2024-04-18 05:14:23 MViD Andrea_Bocelli_And_Virginia_Bocelli-Hallelujah_(Global_Citizen_Live_2021)-720p-x264-2021-SRPx
2024-04-18 05:15:26 MViD BTS-Global_Citizen_Live_(2021)-720p-x264-2021-SRPx
2024-04-18 05:15:43 XXX-HD PascalsSubSluts.23.03.03.Azura.Alii.English.Girls.Are.So.Fucking.Easy.XXX.1080p.MP4-FETiSH
2024-04-18 05:16:29 MViD Billie_Eilish_ft_FINNEAS-Global_Citizen_Live_(2021)-720p-x264-2021-SRPx
2024-04-18 05:16:35 SPORTS UEFA.Champions.League.2024.04.16.Borussia.Dortmund.vs.Atletico.Madrid.720p.WEB.h264-ULTRAS
2024-04-18 05:16:48 SPORTS UEFA.Champions.League.2024.04.16.Barcelona.vs.PSG.720p.WEB.h264-ULTRAS
2024-04-18 05:16:57 SPORTS UEFA.Champions.League.2024.04.17.Manchestern.City.vs.Real.Madrid.720p.WEB.h264-ULTRAS
2024-04-18 05:17:04 SPORTS UEFA.Champions.League.2024.04.17.Bayern.Munich.vs.Arsenal.720p.WEB.h264-ULTRAS
2024-04-18 05:17:05 XXX-HD PascalsSubSluts.23.03.10.Maddy.Gray.All.Glamed.Up.For.Cum.XXX.1080p.MP4-FETiSH
2024-04-18 05:17:33 MViD Black_Eyed_Peas-Where_Is_The_Love_(Global_Citizen_Live_2021)-720p-x264-2021-SRPx
2024-04-18 05:18:35 XXX-HD PascalsSubSluts.23.03.17.Tina.Tolley.Normally.The.One.In.Charge.XXX.1080p.MP4-FETiSH
2024-04-18 05:18:36 MViD Burna_Boy-Global_Citizen_Live_(2021)-720p-x264-2021-SRPx
2024-04-18 05:19:39 MViD Coldplay_ft_VA-Global_Citizen_Live_(2021)-720p-x264-2021-SRPx
2024-04-18 05:19:58 XXX-HD PascalsSubSluts.23.03.24.Valentina.Bianco.Surprise.POV.Scene.XXX.1080p.MP4-FETiSH
2024-04-18 05:20:42 MViD Cyndi_Lauper-Girls_Just_Wanna_Have_Fun_(Global_Citizen_Live_2021)-720p-x264-2021-SRPx
2024-04-18 05:21:26 XXX-HD PascalsSubSluts.23.03.31.Sub.Nurse.Tilly.Nurses.Cum.From.Dr.Ps.Cock.XXX.1080p.MP4-FETiSH
2024-04-18 05:21:45 MViD Delta_Goodrem-Global_Citizen_Live_(2021)-720p-x264-2021-SRPx
2024-04-18 05:22:48 MViD Duran_Duran-Global_Citizen_Live_(2021)-720p-x264-2021-SRPx
2024-04-18 05:23:36 XXX-HD EvolvedFights.24.04.12.Joslyn.Jane.Vs.Johnny.Palms.XXX.1080p.MP4-FETiSH
2024-04-18 05:23:51 MViD Ed_Sheeran-Global_Citizen_Live_(2021)-720p-x264-2021-SRPx
2024-04-18 05:24:36 XXX-HD HotGuysFuck.24.04.12.Mac.Lawler.And.Allison.Lox.XXX.1080p.MP4-FETiSH
2024-04-18 05:24:54 MViD Elton_John_And_Charlie_Puth-Global_Citizen_Live_(2021)-720p-x264-2021-SRPx
2024-04-18 05:25:52 XXX-HD HuCows.24.04.13.Emily.Addams.The.New.Machine.XXX.1080p.MP4-FETiSH
2024-04-18 05:25:57 MViD Fanta_Ballo_And_Shawn_Mendes-Global_Citizen_Live_(2021)-720p-x264-2021-SRPx
2024-04-18 05:27:00 MViD Hannah_Waddingham_And_Joe_Stilgoe-Anything_Goes_(2024_Oliver_Awards)-720p-x264-2024-SRPx
2024-04-18 05:27:18 XXX-HD MaxineX.24.04.13.Still.Horny.After.The.Anal.Orgy.XXX.1080p.MP4-FETiSH
2024-04-18 05:28:04 MViD Jennifer_Lopez-Global_Citizen_Live_(2021)-720p-x264-2021-SRPx
2024-04-18 05:29:07 MViD Kylie_Minogue-Global_Citizen_Live_(2021)-720p-x264-2021-SRPx
2024-04-18 05:29:24 MP3-WEB CAMMED_-_Step_Yo_Game_Up-(5063483392739)-SINGLE-WEB-2024-ZzZz
2024-04-18 05:30:10 MViD Lang_Lang_ft_VA-Global_Citizen_Live_(2021)-720p-x264-2021-SRPx
2024-04-18 05:30:12 XXX-HD SeeHimFuck.24.04.14.Myles.Spears.And.Selina.Bentz.XXX.1080p.MP4-FETiSH
2024-04-18 05:31:14 MViD Lizzo-Global_Citizen_Live_(2021)-720p-x264-2021-SRPx
2024-04-18 05:32:16 MViD Lorde-Solar_Power_(Global_Citizen_Live_2021)-720p-x264-2021-SRPx
2024-04-18 05:32:29 XXX-HD TadpolexStudio.24.04.12.Graycee.Bayee.Fucks.Two.Older.Guys.XXX.1080p.MP4-FETiSH
2024-04-18 05:33:21 MViD Meek_Mill-Global_Citizen_Live_(2021)-720p-x264-2021-SRPx
2024-04-18 05:34:23 MViD Michael_R_Jackson-Memory_Song_(2024_Oliver_Awards)-720p-x264-2024-SRPx
2024-04-18 05:34:23 MP3-WEB Apezanso_-_Techno_Las_Vegas_Vortex-(KIESO597)-WEB-2024-ZzZz
2024-04-18 05:35:26 MViD Nile_Rodgers_And_Chic-Global_Citizen_Live_(2021)-720p-x264-2021-SRPx
2024-04-18 05:36:29 MViD Shawn_Mendes-Global_Citizen_Live_(2021)-720p-x264-2021-SRPx
2024-04-18 05:37:32 MViD Stormzy-Global_Citizen_Live_(2021)-720p-x264-2021-SRPx
2024-04-18 05:38:35 MViD The_Cast_of_Guys_And_Dolls-Take_Back_Your_Mink_(2024_Oliver_Awards)-720p-x264-2024-SRPx
2024-04-18 05:39:10 DOCU Decouverte.S36E31.DOC.FRENCH.1080p.WEB.H264-BAWLS
2024-04-18 05:39:17 DOCU Decouverte.S36E31.DOC.FRENCH.720p.WEB.H264-BAWLS
2024-04-18 05:39:22 DOCU Decouverte.S36E31.DOC.FRENCH.WEB.H264-BAWLS
2024-04-18 05:39:27 DOCU Garde.Cotiere.S01E10.FINAL.DOC.FRENCH.1080p.WEB.H264-BAWLS
2024-04-18 05:39:32 DOCU Garde.Cotiere.S01E10.FINAL.DOC.FRENCH.720p.WEB.H264-BAWLS
2024-04-18 05:39:37 DOCU Garde.Cotiere.S01E10.FINAL.DOC.FRENCH.WEB.H264-BAWLS
2024-04-18 05:39:38 MViD The_Cast_of_Hadestown-Wait_For_Me_(2024_Oliver_Awards)-720p-x264-2024-SRPx
2024-04-18 05:39:42 TV-WEB-HD-X264 Highway.Thru.Hell.S12E01.FRENCH.1080p.WEB.x264-BAWLS
2024-04-18 05:39:49 TV-WEB-HD-X264 Highway.Thru.Hell.S12E01.FRENCH.720p.WEB.x264-BAWLS
2024-04-18 05:39:54 TV-WEB-X264 Highway.Thru.Hell.S12E01.FRENCH.WEB.x264-BAWLS
2024-04-18 05:40:11 DOCU J.E.S31E23.DOC.FRENCH.720p.WEB.H264-BAWLS
2024-04-18 05:40:17 DOCU J.E.S31E23.DOC.FRENCH.WEB.H264-BAWLS
2024-04-18 05:40:42 MViD The_Cast_of_Next_To_Normal-Medley_(2024_Oliver_Awards)-720p-x264-2024-SRPx
2024-04-18 05:40:48 XXX-HD BrothaLovers.24.04.15.Alex.Harper.And.Phil.Dangers.XXX.1080p.MP4-WRB
2024-04-18 05:41:45 MViD The_Cast_of_Operation_Mincemeat-Born_To_Lead_(2024_Oliver_Awards)-720p-x264-2024-SRPx
2024-04-18 05:42:23 XXX-HD BrothaLovers.24.04.15.Alex.Harper.And.Phil.Dangers.XXX.2160p.MP4-WRB
2024-04-18 05:42:48 MViD The_Cast_of_Sunset_Boulevard-Sunset_Boulevard_(2024_Oliver_Awards)-720p-x264-2024-SRPx
2024-04-18 05:43:32 XXX-HD ATKGirlfriends.24.04.18.Brooke.Wylde.Compilation.XXX.1080p.MP4-WRB
2024-04-18 05:43:51 MViD The_Cast_of_The_Little_Big_Things-Medley_(2024_Oliver_Awards)-720p-x264-2024-SRPx
2024-04-18 05:43:56 BLURAY Detective.Dees.Hell.Road.2018.MULTi.COMPLETE.BLURAY-MONUMENT
2024-04-18 05:44:44 DOCU L.Epicerie.S22E27.DOC.FRENCH.1080p.WEB.H264-BAWLS
2024-04-18 05:44:50 DOCU L.Epicerie.S22E27.DOC.FRENCH.720p.WEB.H264-BAWLS
2024-04-18 05:44:53 MViD VA-Celebrating_60_Years_Of_The_National_Theature-Youll_Never_Walk_Alone_(2024_Oliver_Awards)-720p-x264-2024-SRPx
2024-04-18 05:44:55 DOCU L.Epicerie.S22E27.DOC.FRENCH.WEB.H264-BAWLS
2024-04-18 05:44:56 XXX-HD ATKGirlfriends.24.04.18.Brooke.Wylde.Compilation.XXX.2160p.MP4-WRB
2024-04-18 05:45:00 DOCU La.Facture.S29E28.DOC.FRENCH.1080p.WEB.H264-BAWLS
2024-04-18 05:45:05 DOCU La.Facture.S29E28.DOC.FRENCH.720p.WEB.H264-BAWLS
2024-04-18 05:45:09 DOCU La.Facture.S29E28.DOC.FRENCH.WEB.H264-BAWLS
2024-04-18 05:45:13 DOCU La.Facture.S29E29.DOC.FRENCH.1080p.WEB.H264-BAWLS
2024-04-18 05:45:19 DOCU La.Facture.S29E29.DOC.FRENCH.720p.WEB.H264-BAWLS
2024-04-18 05:45:24 DOCU La.Facture.S29E29.DOC.FRENCH.WEB.H264-BAWLS
2024-04-18 05:45:27 DOCU La.Semaine.Verte.S53E31.DOC.FRENCH.1080p.WEB.H264-BAWLS
2024-04-18 05:45:31 DOCU La.Semaine.Verte.S53E31.DOC.FRENCH.720p.WEB.H264-BAWLS
2024-04-18 05:45:38 DOCU La.Semaine.Verte.S53E31.DOC.FRENCH.WEB.H264-BAWLS
2024-04-18 05:45:50 XXX-HD SexMex.24.04.18.Letzy.Lizz.Busty.Girl.Gets.A.Massage.XXX.1080p.MP4-WRB
2024-04-18 05:45:57 MViD VA-Worldwide_Song_Medley_(Global_Citizen_Live_2021)-720p-x264-2021-SRPx
2024-04-18 05:47:52 XXX-HD SexMex.24.04.18.Letzy.Lizz.Busty.Girl.Gets.A.Massage.XXX.2160p.MP4-WRB
2024-04-18 05:49:25 TV-WEB-HD-X264 La.Voix.QC.S10E10.FRENCH.1080p.WEB.H264-BAWLS
2024-04-18 05:49:31 TV-WEB-HD-X264 La.Voix.QC.S10E10.FRENCH.720p.WEB.H264-BAWLS
2024-04-18 05:49:37 TV-WEB-X264 La.Voix.QC.S10E10.FRENCH.WEB.H264-BAWLS
2024-04-18 05:49:43 TV-WEB-HD-X264 La.Voix.QC.S10E11.FRENCH.1080p.WEB.H264-BAWLS
2024-04-18 05:49:48 TV-WEB-HD-X264 La.Voix.QC.S10E11.FRENCH.720p.WEB.H264-BAWLS
2024-04-18 05:49:55 TV-WEB-X264 La.Voix.QC.S10E11.FRENCH.WEB.H264-BAWLS
2024-04-18 05:49:58 TV-WEB-HD-X264 La.Voix.QC.S10E12.FINAL.FRENCH.1080p.WEB.H264-BAWLS
2024-04-18 05:50:04 TV-WEB-HD-X264 La.Voix.QC.S10E12.FINAL.FRENCH.720p.WEB.H264-BAWLS
2024-04-18 05:50:09 TV-WEB-X264 La.Voix.QC.S10E12.FINAL.FRENCH.WEB.H264-BAWLS
2024-04-18 05:50:14 TV-WEB-HD-X264 Tout.Le.Monde.En.Parle.S20E24.FRENCH.1080p.WEB.H264-BAWLS
2024-04-18 05:50:18 TV-WEB-HD-X264 Tout.Le.Monde.En.Parle.S20E24.FRENCH.720p.WEB.H264-BAWLS
2024-04-18 05:50:22 TV-WEB-X264 Tout.Le.Monde.En.Parle.S20E24.FRENCH.WEB.H264-BAWLS
2024-04-18 05:52:14 TV-WEB-HD-X264 Evolving.Vegan.S02E01.1080p.WEB.h264-BAE
2024-04-18 05:52:15 TV-WEB-HD-X265 Evolving.Vegan.S02E01.2160p.WEB.h265-BAE
2024-04-18 05:52:17 TV-WEB-HD-X264 Evolving.Vegan.S02E01.720p.WEB.h264-BAE
2024-04-18 05:52:19 TV-WEB-HD-X264 The.Good.Stuff.with.Mary.Berg.2024.04.15.1080p.WEB.h264-BAE
2024-04-18 05:52:19 TV-WEB-HD-X264 Icons.Unearthed.S06E05.1080p.WEB.h264-BAE
2024-04-18 05:52:21 TV-WEB-HD-X264 The.Good.Stuff.with.Mary.Berg.2024.04.15.720p.WEB.h264-BAE
2024-04-18 05:52:21 TV-WEB-HD-X264 Icons.Unearthed.S07E05.1080p.WEB.h264-BAE
2024-04-18 05:52:23 TV-WEB-HD-X264 The.Good.Stuff.with.Mary.Berg.2024.04.16.1080p.WEB.h264-BAE
2024-04-18 05:52:24 TV-WEB-HD-X264 The.Masked.Singer.S11E07.1080p.WEB.h264-BAE
2024-04-18 05:52:24 TV-WEB-HD-X264 The.Good.Stuff.with.Mary.Berg.2024.04.16.720p.WEB.h264-BAE
2024-04-18 05:52:28 TV-WEB-HD-X264 The.Masked.Singer.S11E07.720p.WEB.h264-BAE
2024-04-18 05:54:28 XXX-HD ATKGalleria.24.04.18.Sage.Hunter.XXX.1080p.MP4-WRB
2024-04-18 05:55:58 XXX-HD ClubSweethearts.24.04.18.Bella.Grey.Hardcore.XXX.1080p.MP4-WRB
2024-04-18 05:57:13 XXX-HD HollandschePassie.24.04.18.Freaky.Mariah.Hardcore.DUTCH.XXX.1080p.MP4-WRB
2024-04-18 05:58:37 XXX-HD Private.24.04.18.Alyssa.Bounty.XXX.INTERNAL.1080p.MP4-WRB
2024-04-18 06:00:13 TV-WEB-HD-X264 We.Were.the.Lucky.Ones.S01E06.1080p.WEB.H264-SuccessfulCrab
2024-04-18 06:00:28 TV-WEB-HD-X265 We.Were.the.Lucky.Ones.S01E06.DV.HDR.2160p.WEB.H265-SuccessfulCrab
2024-04-18 06:00:35 TV-WEB-HD-X264 Restaurant.Misverstand.S03E06.FLEMISH.1080p.WEB.h264-TRIPEL
2024-04-18 06:00:39 TV-WEB-HD-X265 We.Were.the.Lucky.Ones.S01E06.2160p.WEB.H265-SuccessfulCrab
2024-04-18 06:01:23 TV-WEB-HD-X264 Alskar.Alskar.Inte.S04E11.SWEDiSH.1080p.WEB.h264-OLLONBORRE
2024-04-18 06:01:49 TV-WEB-HD-X264 Smartare.An.En.Femteklassare.2023.S02E11.SWEDiSH.1080p.WEB.h264-OLLONBORRE
2024-04-18 06:05:16 XXX-HD GirlsWay.24.04.18.Emma.Hix.And.Blake.Blossom.XXX.1080p.MP4-WRB
2024-04-18 06:07:22 XXX-HD GirlsWay.24.04.18.Emma.Hix.And.Blake.Blossom.XXX.2160p.MP4-WRB
2024-04-18 06:07:43 TV-WEB-HD-X264 Sistemann.Ut.S02E05.NORWEGiAN.720p.WEB.h264-PRUTTEGUTT
2024-04-18 06:08:02 TV-WEB-HD-X264 Sistemann.Ut.S02E05.NORWEGiAN.1080p.WEB.h264-PRUTTEGUTT
2024-04-18 06:08:31 XXX-HD DarkX.24.04.18.Octavia.Red.XXX.1080p.MP4-WRB
2024-04-18 06:09:04 TV-WEB-HD-X264 Alle.Mot.Alle.S08E56.NORWEGiAN.720p.WEB.h264-PRUTTEGUTT
2024-04-18 06:09:16 TV-WEB-HD-X264 Alle.Mot.Alle.S08E56.NORWEGiAN.1080p.WEB.h264-PRUTTEGUTT
2024-04-18 06:10:37 XXX-HD DarkX.24.04.18.Octavia.Red.XXX.2160p.MP4-WRB
2024-04-18 06:12:03 TV-WEB-HD-X264 Alskar.Alskar.Inte.S04E11.SWEDiSH.720p.WEB.h264-OLLONBORRE
2024-04-18 06:12:09 XXX-HD EvilAngel.24.04.18.Gia.Derza.XXX.1080p.MP4-WRB
2024-04-18 06:12:18 TV-WEB-HD-X264 Smartare.An.En.Femteklassare.2023.S02E11.SWEDiSH.720p.WEB.h264-OLLONBORRE
2024-04-18 06:13:04 APPS Zorin.OS.Pro.v17.1-BTCRiSO
2024-04-18 06:13:37 TV-WEB-HD-X264 Transplant.S04E01.FRENCH.1080p.WEB.H264-BAWLS
2024-04-18 06:13:43 TV-WEB-HD-X264 Transplant.S04E01.FRENCH.720p.WEB.H264-BAWLS
2024-04-18 06:13:47 TV-WEB-X264 Transplant.S04E01.FRENCH.WEB.H264-BAWLS
2024-04-18 06:13:51 TV-WEB-HD-X264 Transplant.S04E02.FRENCH.1080p.WEB.H264-BAWLS
2024-04-18 06:13:56 TV-WEB-HD-X264 Transplant.S04E02.FRENCH.720p.WEB.H264-BAWLS
2024-04-18 06:14:03 TV-WEB-X264 Transplant.S04E02.FRENCH.WEB.H264-BAWLS
2024-04-18 06:14:06 XXX-HD EvilAngel.24.04.18.Gia.Derza.XXX.2160p.MP4-WRB
2024-04-18 06:14:07 TV-WEB-HD-X264 Transplant.S04E03.FRENCH.1080p.WEB.H264-BAWLS
2024-04-18 06:14:10 TV-WEB-HD-X264 Transplant.S04E03.FRENCH.720p.WEB.H264-BAWLS
2024-04-18 06:14:15 TV-WEB-X264 Transplant.S04E03.FRENCH.WEB.H264-BAWLS
2024-04-18 06:14:21 DOCU Vie.De.Chantier.S04E01.DOC.FRENCH.1080p.WEB.H264-BAWLS
2024-04-18 06:14:27 DOCU Vie.De.Chantier.S04E01.DOC.FRENCH.720p.WEB.H264-BAWLS
2024-04-18 06:14:31 DOCU Vie.De.Chantier.S04E01.DOC.FRENCH.WEB.H264-BAWLS
2024-04-18 06:17:52 TV-WEB-HD-X264 Lurad.S01E02.SWEDiSH.720p.WEB.h264-OLLONBORRE
2024-04-18 06:17:52 TV-WEB-HD-X264 Lurad.S01E02.SWEDiSH.1080p.WEB.h264-OLLONBORRE
2024-04-18 06:19:17 XXX-HD FamilyStrokes.24.04.18.Bridgette.B.And.Vanna.Bardot.Im.Going.Through.Changes.XXX.1080p.MP4-WRB
2024-04-18 06:20:13 XXX-HD MylfLabs.24.04.18.Andi.Avalon.Edging.XXX.1080p.MP4-WRB
2024-04-18 06:21:08 XXX-HD PervPrincipal.24.04.18.C.Stylex.And.Scarlett.Page.Funny.Business.XXX.1080p.MP4-WRB
2024-04-18 06:22:18 XXX-HD FilthyTaboo.24.04.18.Madison.Wilde.Demanding.Stepsis.Gets.Me.To.Fuck.Her.Good.And.Hard.XXX.1080p.MP4-WRB
2024-04-18 06:23:28 TV-WEB-HD-X264 Seniorsurfarna.Atertraffen.S01E03.SWEDiSH.720p.WEB.h264-OLLONBORRE
2024-04-18 06:23:33 TV-WEB-HD-X264 Seniorsurfarna.Atertraffen.S01E01.SWEDiSH.720p.WEB.h264-OLLONBORRE
2024-04-18 06:23:33 TV-WEB-HD-X264 Seniorsurfarna.Atertraffen.S01E02.SWEDiSH.720p.WEB.h264-OLLONBORRE
2024-04-18 06:23:33 TV-WEB-HD-X264 Seniorsurfarna.Atertraffen.S01E01.SWEDiSH.1080p.WEB.h264-OLLONBORRE
2024-04-18 06:23:39 TV-WEB-HD-X264 Seniorsurfarna.Atertraffen.S01E03.SWEDiSH.1080p.WEB.h264-OLLONBORRE
2024-04-18 06:24:04 APPS Zorin.OS.Pro.Lite.v17.1-BTCRiSO
2024-04-18 06:24:22 XXX-HD FilthyTaboo.24.04.18.Madison.Wilde.Demanding.Stepsis.Gets.Me.To.Fuck.Her.Good.And.Hard.XXX.2160p.MP4-WRB
2024-04-18 06:25:09 TV-WEB-HD-X264 Seniorsurfarna.Atertraffen.S01E02.SWEDiSH.1080p.WEB.h264-OLLONBORRE
2024-04-18 06:31:21 TV-X264 Carl.Webers.The.Black.Hamptons.S02E05.Hot.and.Heavy.HDTV.x264-CRiMSON
2024-04-18 06:32:52 TV-HD-X264 Carl.Webers.The.Black.Hamptons.S02E05.Hot.and.Heavy.720p.HDTV.x264-CRiMSON
2024-04-18 06:36:34 MP3-WEB Paolo_Amati_Feat_Veronica_Ventavoli_-_Domani_O_Adesso-SINGLE-WEB-IT-2024-UOVA
2024-04-18 06:40:05 MP3-WEB Lemuri_Il_Visionario_-_Viaggio_Al_Centro_Di_Un_Cuore_Blu-WEB-IT-2021-UOVA
2024-04-18 07:11:58 EBOOK Il.Corriere.Della.Sera.04.18.2024.iTALiAN.RETAiL.eBook-DiVER
2024-04-18 07:17:35 TV-WEB-HD-X264 Walker.S04E03.1080p.WEB.h264-ELEANOR
2024-04-18 07:19:08 TV-WEB-HD-X264 Chucky.S03E06.1080p.WEB.h264-ELEANOR
2024-04-18 07:20:03 X264 The.Fish.With.The.Eyes.Of.Gold.1974.BDRIP.X264-WATCHABLE
2024-04-18 07:21:38 TV-WEB-HD-X264 American.Horror.Story.S12E08.1080p.WEB.h264-ELEANOR
2024-04-18 07:21:41 X264-HD The.Fish.With.The.Eyes.Of.Gold.1974.720P.BLURAY.X264-WATCHABLE
2024-04-18 07:23:14 TV-WEB-HD-X264 Grown-ish.S06E13.1080p.WEB.h264-ELEANOR
2024-04-18 07:23:23 X264-HD The.Fish.With.The.Eyes.Of.Gold.1974.1080P.BLURAY.X264-WATCHABLE
2024-04-18 07:25:08 TV-WEB-HD-X264 The.Conners.S06E08.1080p.WEB.h264-ELEANOR
2024-04-18 07:25:13 X264-HD The.Fish.With.The.Eyes.Of.Gold.1974.1080P.BLURAY.H264-UNDERTAKERS
2024-04-18 07:27:08 TV-WEB-HD-X264 Not.Dead.Yet.S02E08.1080p.WEB.h264-ELEANOR
2024-04-18 07:32:11 SPORTS NHL.2024.04.17.Edmonton.Oilers.Vs.Arizona.Coyotes.720p.WEB.H264-GAMETiME
2024-04-18 07:34:47 SPORTS NHL.2024.04.17.Pittsburgh.Penguins.Vs.New.York.Islanders.720p.WEB.H264-GAMETiME
2024-04-18 07:36:06 TV-WEB-HD-X264 Jeopardy.S01E12.DANiSH.1080p.WEB.h264-DPLUSDK
2024-04-18 07:37:22 SPORTS NHL.2024.04.17.St.Louis.Blues.Vs.Dallas.Stars.720p.WEB.H264-GAMETiME
2024-04-18 07:38:09 X264 Party.Line.1988.BDRIP.X264-WATCHABLE
2024-04-18 07:39:29 X264-HD Party.Line.1988.720P.BLURAY.X264-WATCHABLE
2024-04-18 07:39:57 SPORTS NHL.2024.04.17.Toronto.Maple.Leafs.Vs.Tampa.Bay.Lightning.720p.WEB.H264-GAMETiME
2024-04-18 07:41:08 X264-HD Party.Line.1988.1080P.BLURAY.X264-WATCHABLE
2024-04-18 07:43:25 X264-HD Party.Line.1988.1080P.BLURAY.H264-UNDERTAKERS
2024-04-18 07:45:06 MP3-WEB Rockin_Rolla-Product_Of_The_Hood_2-WEB-2023-RAGEMP3
2024-04-18 07:46:22 MP3-WEB Dre_West_Oakland_And_Iiiski_Bo-The_One_And_Onlys-WEB-2022-RAGEMP3
2024-04-18 07:46:35 MP3-WEB Dre_West_Oakland-Still_Trippin_Over_Old_Shit_Pt._4-WEB-2023-RAGEMP3
2024-04-18 07:47:00 MP3-WEB Dre_West_Oakland-Out_On_Bail_Pt._2-WEB-2023-RAGEMP3
2024-04-18 07:47:11 MP3-WEB Dre_West_Oakland-The_Streets_Dont_Love_No_One_2-WEB-2023-RAGEMP3
2024-04-18 07:47:19 MP3-WEB Dre_West_Oakland-No_Promo_2-WEB-2023-RAGEMP3
2024-04-18 07:47:30 MP3-WEB Dre_West_Oakland-Stickz-WEB-2023-RAGEMP3
2024-04-18 07:47:38 MP3-WEB Dre_West_Oakland-Stickz_Pt._2-WEB-2023-RAGEMP3
2024-04-18 07:47:46 MP3-WEB Dre_West_Oakland-In_Da_Stickz_We_Trust-WEB-2023-RAGEMP3
2024-04-18 07:47:54 MP3-WEB Dre_West_Oakland-Out_On_Bail_Pt._3-WEB-2023-RAGEMP3
2024-04-18 07:48:13 MP3-WEB Dre_West_Oakland_And_Khalid_Brooks-Just_A_Matter_Of_Time-WEB-2023-RAGEMP3
2024-04-18 07:48:22 MP3-WEB Dre_West_Oakland-Stick_Clan_Pt._4-WEB-2023-RAGEMP3
2024-04-18 07:48:33 MP3-WEB Dre_West_Oakland-Still_Trippin_Over_Old_Shit_Pt._5-WEB-2023-RAGEMP3
2024-04-18 07:48:42 MP3-WEB Dre_West_Oakland_And_Lil_Slugg-Nightmare_On_Stickz_Street-EP-WEB-2023-RAGEMP3
2024-04-18 07:48:50 MP3-WEB Dre_West_Oakland-Rich_Off_Muzik-WEB-2023-RAGEMP3
2024-04-18 07:49:01 MP3-WEB Dre_West_Oakland-Out_On_Bail_Pt._4-WEB-2023-RAGEMP3
2024-04-18 07:49:21 MP3-WEB Dre_West_Oakland_And_Lil_Slugg-Still_Stickin_It-EP-WEB-2023-RAGEMP3
2024-04-18 07:49:30 MP3-WEB Dre_West_Oakland_And_Lil_Slugg-Sticky_Situations-EP-WEB-2023-RAGEMP3
2024-04-18 07:49:38 MP3-WEB Dre_West_Oakland-Dre_Flow-WEB-2023-RAGEMP3
2024-04-18 07:49:50 MP3-WEB Dre_West_Oakland-Never_Had_A_Big_Homie_Pt._2-WEB-2024-RAGEMP3
2024-04-18 07:49:59 MP3-WEB Dre_West_Oakland-Out_On_Bail_Pt._5-WEB-2024-RAGEMP3
2024-04-18 07:50:08 MP3-WEB Dre_West_Oakland-Out_On_Bail_Pt._6-WEB-2024-RAGEMP3
2024-04-18 07:50:18 MP3-WEB Dre_West_Oakland-Out_On_Bail_Pt._7-WEB-2024-RAGEMP3
2024-04-18 07:50:28 MP3-WEB Dre_West_Oakland-Out_On_Bail_Pt._8-WEB-2024-RAGEMP3
2024-04-18 07:50:35 MP3-WEB Dre_West_Oakland-Out_On_Bail_Pt._9-WEB-2024-RAGEMP3
2024-04-18 07:51:00 EBOOK La.Gazzetta.Dello.Sport.04.18.2024.iTALiAN.RETAiL.eBook-DiVER
2024-04-18 07:51:19 X264-HD Une.Affaire.D.Honneur.2023.FRENCH.720p.WEB.H264-SEiGHT
2024-04-18 07:52:49 X264-HD Une.Affaire.D.Honneur.2023.FRENCH.1080p.WEB.H264-SEiGHT
2024-04-18 08:01:41 TV-WEB-X264 Swagger.S01E01.NBA.German.DL.Webrip.x264-TVARCHiV
2024-04-18 08:06:21 TV-WEB-HD-X264 Craig.Of.The.Creek.S02E01.NORWEGiAN.1080p.WEB.h264-NORKiDS
2024-04-18 08:06:52 TV-WEB-HD-X264 Star.Trek.Discovery.S05E04.1080p.WEB.h264-ETHEL
2024-04-18 08:09:05 TV-WEB-HD-X264 Craig.Of.The.Creek.S02E02.NORWEGiAN.1080p.WEB.h264-NORKiDS
2024-04-18 08:09:24 TV-WEB-X264 See.You.in.Another.Life.S01E01.POLISH.WEB.H264-FLAME
2024-04-18 08:09:36 TV-WEB-X264 See.You.in.Another.Life.S01E02.POLISH.WEB.H264-FLAME
2024-04-18 08:09:50 TV-WEB-X264 See.You.in.Another.Life.S01E03.POLISH.WEB.H264-FLAME
2024-04-18 08:11:01 TV-WEB-X264 See.You.in.Another.Life.S01E04.POLISH.WEB.H264-FLAME
2024-04-18 08:11:17 TV-WEB-X264 See.You.in.Another.Life.S01E05.POLISH.WEB.H264-FLAME
2024-04-18 08:11:34 TV-WEB-X264 See.You.in.Another.Life.S01E06.POLISH.WEB.H264-FLAME
2024-04-18 08:11:40 TV-WEB-HD-X264 Craig.Of.The.Creek.S02E03.NORWEGiAN.1080p.WEB.h264-NORKiDS
2024-04-18 08:12:50 TV-WEB-HD-X264 See.You.in.Another.Life.S01E01.POLISH.720p.WEB.H264-FLAME
2024-04-18 08:13:02 TV-WEB-HD-X264 See.You.in.Another.Life.S01E02.POLISH.720p.WEB.H264-FLAME
2024-04-18 08:13:15 TV-WEB-HD-X264 See.You.in.Another.Life.S01E03.POLISH.720p.WEB.H264-FLAME
2024-04-18 08:13:29 TV-WEB-HD-X264 See.You.in.Another.Life.S01E04.POLISH.720p.WEB.H264-FLAME
2024-04-18 08:13:44 TV-WEB-HD-X264 See.You.in.Another.Life.S01E05.POLISH.720p.WEB.H264-FLAME
2024-04-18 08:13:56 TV-WEB-HD-X264 See.You.in.Another.Life.S01E06.POLISH.720p.WEB.H264-FLAME
2024-04-18 08:14:21 TV-WEB-HD-X264 Craig.Of.The.Creek.S02E04.NORWEGiAN.1080p.WEB.h264-NORKiDS
2024-04-18 08:14:50 TV-WEB-HD-X264 See.You.in.Another.Life.S01E01.POLISH.1080p.WEB.H264-FLAME
2024-04-18 08:15:04 TV-WEB-HD-X264 See.You.in.Another.Life.S01E02.POLISH.1080p.WEB.H264-FLAME
2024-04-18 08:15:18 TV-WEB-HD-X264 See.You.in.Another.Life.S01E03.POLISH.1080p.WEB.H264-FLAME
2024-04-18 08:15:33 TV-WEB-HD-X264 See.You.in.Another.Life.S01E04.POLISH.1080p.WEB.H264-FLAME
2024-04-18 08:15:42 TV-WEB-HD-X264 Achter.De.Schermen.S03E11.FLEMISH.1080p.WEB.H264-MERCATOR
2024-04-18 08:15:48 TV-WEB-HD-X264 See.You.in.Another.Life.S01E05.POLISH.1080p.WEB.H264-FLAME
2024-04-18 08:16:02 TV-WEB-HD-X264 See.You.in.Another.Life.S01E06.POLISH.1080p.WEB.H264-FLAME
2024-04-18 08:16:50 TV-WEB-HD-X265 See.You.in.Another.Life.S01E01.POLISH.HDR.2160p.WEB.H265-FLAME
2024-04-18 08:17:00 TV-WEB-HD-X265 See.You.in.Another.Life.S01E02.POLISH.HDR.2160p.WEB.H265-FLAME
2024-04-18 08:17:00 TV-WEB-HD-X264 Craig.Of.The.Creek.S02E05.NORWEGiAN.1080p.WEB.h264-NORKiDS
2024-04-18 08:17:15 TV-WEB-HD-X265 See.You.in.Another.Life.S01E03.POLISH.HDR.2160p.WEB.H265-FLAME
2024-04-18 08:17:29 TV-WEB-HD-X265 See.You.in.Another.Life.S01E04.POLISH.HDR.2160p.WEB.H265-FLAME
2024-04-18 08:17:43 TV-WEB-HD-X265 See.You.in.Another.Life.S01E05.POLISH.HDR.2160p.WEB.H265-FLAME
2024-04-18 08:17:57 TV-WEB-HD-X265 See.You.in.Another.Life.S01E06.POLISH.HDR.2160p.WEB.H265-FLAME
2024-04-18 08:18:28 TV-WEB-HD-X265 See.You.in.Another.Life.S01E01.POLISH.DV.2160p.WEB.H265-FLAME
2024-04-18 08:18:40 TV-WEB-HD-X265 See.You.in.Another.Life.S01E02.POLISH.DV.2160p.WEB.H265-FLAME
2024-04-18 08:18:54 TV-WEB-HD-X265 See.You.in.Another.Life.S01E03.POLISH.DV.2160p.WEB.H265-FLAME
2024-04-18 08:19:08 TV-WEB-HD-X265 See.You.in.Another.Life.S01E04.POLISH.DV.2160p.WEB.H265-FLAME
2024-04-18 08:19:22 TV-WEB-HD-X265 See.You.in.Another.Life.S01E05.POLISH.DV.2160p.WEB.H265-FLAME
2024-04-18 08:19:41 TV-WEB-HD-X264 Craig.Of.The.Creek.S02E06.NORWEGiAN.1080p.WEB.h264-NORKiDS
2024-04-18 08:22:33 TV-WEB-HD-X264 Craig.Of.The.Creek.S02E07.NORWEGiAN.1080p.WEB.h264-NORKiDS
2024-04-18 08:25:07 TV-WEB-HD-X264 Craig.Of.The.Creek.S02E08.NORWEGiAN.1080p.WEB.h264-NORKiDS
2024-04-18 08:27:41 TV-WEB-HD-X264 Craig.Of.The.Creek.S02E09.NORWEGiAN.1080p.WEB.h264-NORKiDS
2024-04-18 08:30:21 TV-WEB-HD-X264 Craig.Of.The.Creek.S02E10.NORWEGiAN.1080p.WEB.h264-NORKiDS
2024-04-18 08:31:07 TV-WEB-HD-X264 Survivor.S46E08.1080p.WEB.h264-EDITH
2024-04-18 08:33:05 TV-WEB-HD-X264 Craig.Of.The.Creek.S02E11.NORWEGiAN.1080p.WEB.h264-NORKiDS
2024-04-18 08:34:18 FLAC Pearl_Jam-Dark_Matter-Deluxe_Edition-CD-FLAC-2024-MOD
2024-04-18 08:35:37 TV-WEB-HD-X264 Craig.Of.The.Creek.S02E12.NORWEGiAN.1080p.WEB.h264-NORKiDS
2024-04-18 08:38:09 TV-WEB-HD-X264 Craig.Of.The.Creek.S02E13.NORWEGiAN.1080p.WEB.h264-NORKiDS
2024-04-18 08:40:04 TV-WEB-HD-X264 De.Bachelor.NL.S03E08.DUTCH.1080p.WEB.h264-TRIPEL
2024-04-18 08:40:37 TV-WEB-HD-X264 Jersey.Shore.Family.Vacation.S07E01.iTALiAN.1080p.WEB.H264-NEUROSiS
2024-04-18 08:40:52 TV-WEB-HD-X264 Craig.Of.The.Creek.S02E14.NORWEGiAN.1080p.WEB.h264-NORKiDS
2024-04-18 08:42:53 TV-WEB-HD-X264 Jersey.Shore.Family.Vacation.S07E01.iTALiAN.720p.WEB.H264-NEUROSiS
2024-04-18 08:43:30 TV-WEB-HD-X264 Craig.Of.The.Creek.S02E15.NORWEGiAN.1080p.WEB.h264-NORKiDS
2024-04-18 08:46:03 TV-WEB-HD-X264 Craig.Of.The.Creek.S02E16.NORWEGiAN.720p.WEB.h264-NORKiDS
2024-04-18 08:47:35 TV-WEB-HD-X264 Craig.Of.The.Creek.S02E16.NORWEGiAN.1080p.WEB.h264-NORKiDS
2024-04-18 08:50:07 TV-WEB-HD-X264 Craig.Of.The.Creek.S02E17.NORWEGiAN.720p.WEB.h264-NORKiDS
2024-04-18 08:51:56 TV-WEB-HD-X264 Craig.Of.The.Creek.S02E17.NORWEGiAN.1080p.WEB.h264-NORKiDS
2024-04-18 08:53:11 TV-WEB-HD-X264 Hightown.S03E01.iTALiAN.1080p.WEB.H264-NEUROSiS
2024-04-18 08:53:45 TV-WEB-HD-X264 Hightown.S03E01.iTALiAN.720p.WEB.H264-NEUROSiS
2024-04-18 08:54:29 TV-WEB-HD-X264 Craig.Of.The.Creek.S02E18.NORWEGiAN.720p.WEB.h264-NORKiDS
2024-04-18 08:54:31 TV-WEB-HD-X264 Hightown.S03E02.iTALiAN.1080p.WEB.H264-NEUROSiS
2024-04-18 08:55:03 TV-WEB-HD-X264 Hightown.S03E02.iTALiAN.720p.WEB.H264-NEUROSiS
2024-04-18 08:56:11 TV-WEB-HD-X264 Craig.Of.The.Creek.S02E18.NORWEGiAN.1080p.WEB.h264-NORKiDS
2024-04-18 08:58:45 TV-WEB-HD-X264 Craig.Of.The.Creek.S02E19.NORWEGiAN.720p.WEB.h264-NORKiDS
2024-04-18 08:58:56 FLAC-WEB Aquilus-Bellum_I-24BIT-WEB-FLAC-2021-TOTENKVLT
2024-04-18 08:59:30 TV-WEB-HD-X265 Star.Wars.The.Bad.Batch.S03E13.DANiSH.DV.2160p.WEB.H265-TOOSA
2024-04-18 09:00:16 TV-WEB-HD-X264 Craig.Of.The.Creek.S02E19.NORWEGiAN.1080p.WEB.h264-NORKiDS
2024-04-18 09:00:22 TV-WEB-HD-X265 American.Horror.Story.S12E08.2160p.WEB.H265-SuccessfulCrab
2024-04-18 09:00:25 TV-WEB-HD-X264 Grown-ish.S06E13.720p.WEB.h264-EDITH
2024-04-18 09:00:44 TV-WEB-HD-X265 Star.Wars.The.Bad.Batch.S03E13.SWEDiSH.HDR.2160p.WEB.H265-TOOSA
2024-04-18 09:01:20 TV-WEB-HD-X264 Family.Guy.S22E15.720p.WEB.h264-EDITH
2024-04-18 09:01:42 TV-WEB-HD-X265 The.Girls.on.the.Bus.S01E07.DV.HDR.2160p.WEB.H265-SuccessfulCrab
2024-04-18 09:01:44 TV-WEB-HD-X265 Conan.OBrien.Must.Go.S01E01.DV.HDR.2160p.WEB.h265-ETHEL
2024-04-18 09:01:52 TV-WEB-HD-X265 Star.Wars.The.Bad.Batch.S03E13.DANiSH.HDR.2160p.WEB.H265-TOOSA
2024-04-18 09:02:27 TV-WEB-HD-X265 Conan.OBrien.Must.Go.S01E02.DV.HDR.2160p.WEB.h265-ETHEL
2024-04-18 09:02:32 TV-WEB-HD-X265 Conan.OBrien.Must.Go.S01E03.DV.HDR.2160p.WEB.h265-ETHEL
2024-04-18 09:02:47 TV-WEB-HD-X265 Conan.OBrien.Must.Go.S01E04.DV.HDR.2160p.WEB.h265-ETHEL
2024-04-18 09:03:14 TV-WEB-HD-X264 Craig.Of.The.Creek.S02E20.NORWEGiAN.720p.WEB.h264-NORKiDS
2024-04-18 09:03:36 TV-WEB-HD-X264 Conan.OBrien.Must.Go.S01E02.1080p.WEB.H264-SuccessfulCrab
2024-04-18 09:03:40 TV-WEB-HD-X264 Conan.OBrien.Must.Go.S01E04.1080p.WEB.H264-SuccessfulCrab
2024-04-18 09:03:43 TV-WEB-HD-X264 Conan.OBrien.Must.Go.S01E03.1080p.WEB.H264-SuccessfulCrab
2024-04-18 09:03:51 TV-WEB-HD-X264 Conan.OBrien.Must.Go.S01E01.1080p.WEB.H264-SuccessfulCrab
2024-04-18 09:04:05 TV-WEB-HD-X264 Hightown.S03E03.iTALiAN.1080p.WEB.H264-NEUROSiS
2024-04-18 09:04:40 TV-WEB-HD-X264 Hightown.S03E03.iTALiAN.720p.WEB.H264-NEUROSiS
2024-04-18 09:05:25 TV-WEB-HD-X264 Hightown.S03E04.iTALiAN.1080p.WEB.H264-NEUROSiS
2024-04-18 09:05:58 TV-WEB-HD-X264 Hightown.S03E04.iTALiAN.720p.WEB.H264-NEUROSiS
2024-04-18 09:06:11 TV-WEB-HD-X264 The.Girls.on.the.Bus.S01E07.1080p.WEB.H264-SuccessfulCrab
2024-04-18 09:06:48 TV-WEB-HD-X264 Hightown.S03E05.iTALiAN.1080p.WEB.H264-NEUROSiS
2024-04-18 09:07:21 TV-WEB-HD-X264 Hightown.S03E05.iTALiAN.720p.WEB.H264-NEUROSiS
2024-04-18 09:07:35 TV-WEB-HD-X264 Craig.Of.The.Creek.S02E20.NORWEGiAN.1080p.WEB.h264-NORKiDS
2024-04-18 09:08:05 TV-WEB-HD-X264 Hightown.S03E06.iTALiAN.1080p.WEB.H264-NEUROSiS
2024-04-18 09:08:14 TV-WEB-HD-X264 Dinner.with.the.Parents.S01E04.1080p.WEB.H264-SuccessfulCrab
2024-04-18 09:08:16 TV-WEB-HD-X264 Dinner.with.the.Parents.S01E02.1080p.WEB.H264-SuccessfulCrab
2024-04-18 09:08:18 TV-WEB-HD-X264 Dinner.with.the.Parents.S01E01.1080p.WEB.H264-SuccessfulCrab
2024-04-18 09:08:22 TV-WEB-HD-X264 Dinner.with.the.Parents.S01E03.1080p.WEB.H264-SuccessfulCrab
2024-04-18 09:08:40 TV-WEB-HD-X264 Hightown.S03E06.iTALiAN.720p.WEB.H264-NEUROSiS
2024-04-18 09:09:28 TV-WEB-HD-X264 Hightown.S03E07.iTALiAN.1080p.WEB.H264-NEUROSiS
2024-04-18 09:09:48 TV-WEB-HD-X265 Massacre.of.the.Mormons.S01E03.2160p.WEB.h265-EDITH
2024-04-18 09:09:48 TV-WEB-HD-X264 Massacre.of.the.Mormons.S01E03.1080p.WEB.h264-EDITH
2024-04-18 09:09:50 TV-WEB-HD-X265 Massacre.of.the.Mormons.S01E04.2160p.WEB.h265-EDITH
2024-04-18 09:09:54 TV-WEB-HD-X264 Massacre.of.the.Mormons.S01E04.1080p.WEB.h264-EDITH
2024-04-18 09:09:55 TV-WEB-HD-X264 Massacre.of.the.Mormons.S01E04.720p.WEB.h264-EDITH
2024-04-18 09:10:03 TV-WEB-HD-X264 Hightown.S03E07.iTALiAN.720p.WEB.H264-NEUROSiS
2024-04-18 09:10:24 TV-WEB-HD-X264 Craig.Of.The.Creek.S02E21.NORWEGiAN.720p.WEB.h264-NORKiDS
2024-04-18 09:11:09 XXX-HD MyDirtyMaid.24.04.18.Scarlett.Page.XXX.1080p.MP4-WRB
2024-04-18 09:12:38 TV-WEB-HD-X264 Craig.Of.The.Creek.S02E21.NORWEGiAN.1080p.WEB.h264-NORKiDS
2024-04-18 09:13:46 XXX-HD MyDirtyMaid.24.04.18.Scarlett.Page.XXX.2160p.MP4-WRB
2024-04-18 09:15:11 TV-WEB-HD-X264 Craig.Of.The.Creek.S02E22.NORWEGiAN.720p.WEB.h264-NORKiDS
2024-04-18 09:16:04 TV-WEB-HD-X264 Alene.I.Vildmarken.S08E07.En.Uventet.Slutning.DANiSH.720p.WEB.h264-DRDK
2024-04-18 09:16:34 TV-WEB-HD-X264 Star.Trek.Discovery.S05E04.iTALiAN.1080p.WEB.x264-NEUROSiS
2024-04-18 09:16:48 XXX-HD NeighborAffair.24.04.18.Mandy.Waters.XXX.1080p.MP4-WRB
2024-04-18 09:16:56 TV-WEB-HD-X264 Craig.Of.The.Creek.S02E22.NORWEGiAN.1080p.WEB.h264-NORKiDS
2024-04-18 09:17:38 FLAC-WEB Mozzy-Untreated_Trauma-24BIT-WEB-FLAC-2021-TiMES
2024-04-18 09:18:29 XXX-HD NeighborAffair.24.04.18.Mandy.Waters.XXX.2160p.MP4-WRB
2024-04-18 09:18:34 TV-WEB-HD-X264 Star.Trek.Discovery.S05E04.iTALiAN.720p.WEB.x264-NEUROSiS
2024-04-18 09:19:29 TV-WEB-HD-X264 Craig.Of.The.Creek.S02E23.NORWEGiAN.720p.WEB.h264-NORKiDS
2024-04-18 09:20:06 XXX-HD MetArtX.24.04.18.Ellie.Luna.A.Rose.For.Ellie.XXX.1080p.MP4-WRB
2024-04-18 09:20:16 FLAC-WEB Mozzy-Survivors_Guilt-24BIT-WEB-FLAC-2022-TiMES
2024-04-18 09:20:28 GAMES HOT.WHEELS.UNLEASHED.2.Turbocharged.Fast.and.Furious-RUNE
2024-04-18 09:20:39 TV-WEB-HD-X265 Star.Wars.The.Bad.Batch.S03E13.SWEDiSH.DV.2160p.WEB.H265-TOOSA
2024-04-18 09:22:00 XXX-HD MetArtX.24.04.18.Ellie.Luna.A.Rose.For.Ellie.XXX.2160p.MP4-WRB
2024-04-18 09:22:03 TV-WEB-HD-X264 Star.Wars.The.Bad.Batch.S03E13.DANiSH.1080p.WEB.H264-TOOSA
2024-04-18 09:23:14 TV-WEB-HD-X264 Star.Wars.The.Bad.Batch.S03E13.SWEDiSH.1080p.WEB.H264-TOOSA
2024-04-18 09:23:36 XXX-HD TheLifeErotic.24.04.18.Luise.Toy.Oil.And.Feet.2.XXX.1080p.MP4-WRB
2024-04-18 09:24:20 TV-WEB-HD-X264 Craig.Of.The.Creek.S02E23.NORWEGiAN.1080p.WEB.h264-NORKiDS
2024-04-18 09:25:00 TV-WEB-HD-X264 Animal.Control.S02E06.iNTERNAL.1080p.WEB.h264-EDITH
2024-04-18 09:25:34 XXX-HD Anilos.24.04.18.Anna.Star.Wet.And.Waiting.XXX.1080p.MP4-WRB
2024-04-18 09:26:03 TV-WEB-HD-X264 Family.Guy.S22E15.iNTERNAL.1080p.WEB.h264-EDITH
2024-04-18 09:26:38 XXX-HD Nubiles.24.04.18.Arielka.How.Do.You.Want.Me.XXX.1080p.MP4-WRB
2024-04-18 09:26:54 TV-WEB-HD-X264 Craig.Of.The.Creek.S02E24.NORWEGiAN.720p.WEB.h264-NORKiDS
2024-04-18 09:28:34 TV-WEB-HD-X264 Craig.Of.The.Creek.S02E24.NORWEGiAN.1080p.WEB.h264-NORKiDS
2024-04-18 09:29:14 XXX-HD Nubiles.24.04.18.Arielka.How.Do.You.Want.Me.XXX.2160p.MP4-WRB
2024-04-18 09:29:43 SPORTS Formula1.2024.Chinese.Grand.Prix.Drivers.Press.Conference.1080p.AHDTV.x264-DARKSPORT
2024-04-18 09:30:56 XXX-HD ALSScan.24.04.18.Liz.Jordan.Lesson.Prep.XXX.1080p.MP4-WRB
2024-04-18 09:31:00 TV-WEB-HD-X264 Die.Familie.Stallone.S02E10.GERMAN.DL.1080p.WEB.h264-HAXE
2024-04-18 09:31:08 TV-WEB-HD-X264 Craig.Of.The.Creek.S02E25.NORWEGiAN.720p.WEB.h264-NORKiDS
2024-04-18 09:31:25 TV-WEB-HD-X264 Die.Familie.Stallone.S02E10.GERMAN.DL.720p.WEB.h264-HAXE
2024-04-18 09:32:21 XXX-HD ALSScan.24.04.18.Liz.Jordan.Lesson.Prep.XXX.2160p.MP4-WRB
2024-04-18 09:32:45 TV-WEB-HD-X264 Craig.Of.The.Creek.S02E25.NORWEGiAN.1080p.WEB.h264-NORKiDS
2024-04-18 09:33:24 XXX-HD StrapLez.24.04.18.Lilly.Mays.And.Casey.Nohrman.Tenderly.XXX.1080p.MP4-WRB
2024-04-18 09:34:08 FLAC Dirk-Valley_Of_Da_Lost_Hope-CDR-FLAC-2002-RAGEFLAC
2024-04-18 09:35:18 TV-WEB-HD-X264 Craig.Of.The.Creek.S02E26.NORWEGiAN.720p.WEB.h264-NORKiDS
2024-04-18 09:36:34 FLAC Loco-K-GEIO-CDR-FLAC-2005-RAGEFLAC
2024-04-18 09:36:53 TV-WEB-HD-X264 Craig.Of.The.Creek.S02E26.NORWEGiAN.1080p.WEB.h264-NORKiDS
2024-04-18 09:39:15 FLAC Player_Tim-Tha_Movement-BOOTLEG-CDR-FLAC-2007-RAGEFLAC
2024-04-18 09:39:23 TV-WEB-HD-X264 Craig.Of.The.Creek.S02E27.NORWEGiAN.720p.WEB.h264-NORKiDS
2024-04-18 09:39:29 TV-WEB-HD-X265 Conan.OBrien.Must.Go.S01E01.2160p.WEB.h265-OPUS
2024-04-18 09:39:59 TV-WEB-HD-X265 Conan.OBrien.Must.Go.S01E02.2160p.WEB.h265-OPUS
2024-04-18 09:40:29 TV-WEB-HD-X265 Conan.OBrien.Must.Go.S01E03.2160p.WEB.h265-OPUS
2024-04-18 09:41:00 TV-WEB-HD-X265 Conan.OBrien.Must.Go.S01E04.2160p.WEB.h265-OPUS
2024-04-18 09:41:56 TV-WEB-HD-X264 Craig.Of.The.Creek.S02E27.NORWEGiAN.1080p.WEB.h264-NORKiDS
2024-04-18 09:44:29 TV-WEB-HD-X264 Craig.Of.The.Creek.S02E28.NORWEGiAN.720p.WEB.h264-NORKiDS
2024-04-18 09:44:34 X264-HD One-Armed.Wonder.The.Extraordinary.Story.Of.Jimmy.Hasty.2023.1080p.WEB.H264-CBFM
2024-04-18 09:45:20 TV-WEB-HD-X264 Stephen.Colbert.2024.04.17.John.Lithgow.720p.WEB.H264-JEBAITED
2024-04-18 09:45:23 TV-WEB-HD-X264 Stephen.Colbert.2024.04.17.John.Lithgow.1080p.WEB.H264-JEBAITED
2024-04-18 09:46:25 TV-WEB-HD-X264 Craig.Of.The.Creek.S02E28.NORWEGiAN.1080p.WEB.h264-NORKiDS
2024-04-18 09:46:29 X264-HD RTE.Investigates.Irelands.Abortion.Services.2024.1080p.WEB.H264-CBFM
2024-04-18 09:48:09 NSW Goonya_Monster_Update_v2.5.1_NSW-SUXXORS
2024-04-18 09:48:57 TV-WEB-HD-X264 Craig.Of.The.Creek.S02E29.NORWEGiAN.720p.WEB.h264-NORKiDS
2024-04-18 09:49:54 NSW Bakery_Simulator_Update_v1.1.0_NSW-SUXXORS
2024-04-18 09:50:32 TV-WEB-HD-X264 Craig.Of.The.Creek.S02E29.NORWEGiAN.1080p.WEB.h264-NORKiDS
2024-04-18 09:53:07 TV-WEB-HD-X264 Craig.Of.The.Creek.S02E30.NORWEGiAN.720p.WEB.h264-NORKiDS
2024-04-18 09:54:42 TV-WEB-HD-X264 Craig.Of.The.Creek.S02E30.NORWEGiAN.1080p.WEB.h264-NORKiDS
2024-04-18 09:57:14 TV-WEB-HD-X264 Craig.Of.The.Creek.S02E31.NORWEGiAN.720p.WEB.h264-NORKiDS
2024-04-18 09:58:46 TV-WEB-HD-X264 Craig.Of.The.Creek.S02E31.NORWEGiAN.1080p.WEB.h264-NORKiDS
2024-04-18 10:00:27 TV-WEB-HD-X264 Feud.S01E01.POLiSH.1080p.WEB.H264-CHOPiN
2024-04-18 10:00:50 TV-WEB-HD-X264 Married.At.First.Sight.S17E25.1080p.WEB.h264-EDITH
2024-04-18 10:00:51 TV-WEB-HD-X264 Teen.Mom.Family.Reunion.S03E06.1080p.WEB.h264-EDITH
2024-04-18 10:00:53 TV-WEB-HD-X264 Married.At.First.Sight.S17E25.720p.WEB.h264-EDITH
2024-04-18 10:00:59 TV-WEB-HD-X264 Feud.S01E01.POLiSH.720p.WEB.H264-CHOPiN
2024-04-18 10:01:17 XXX-HD StrapLez.24.04.18.Lilly.Mays.And.Casey.Nohrman.Tenderly.XXX.2160p.MP4-WRB
2024-04-18 10:01:25 TV-WEB-HD-X264 Craig.Of.The.Creek.S02E32.NORWEGiAN.720p.WEB.h264-NORKiDS
2024-04-18 10:01:30 TV-WEB-HD-X264 Feud.S01E02.POLiSH.1080p.WEB.H264-CHOPiN
2024-04-18 10:02:02 TV-WEB-HD-X264 Feud.S01E02.POLiSH.720p.WEB.H264-CHOPiN
2024-04-18 10:02:33 TV-WEB-HD-X264 Feud.S01E03.POLiSH.1080p.WEB.H264-CHOPiN
2024-04-18 10:03:02 TV-WEB-HD-X264 Craig.Of.The.Creek.S02E32.NORWEGiAN.1080p.WEB.h264-NORKiDS
2024-04-18 10:03:04 TV-WEB-HD-X264 Feud.S01E03.POLiSH.720p.WEB.H264-CHOPiN
2024-04-18 10:03:35 TV-WEB-HD-X264 Feud.S01E04.POLiSH.1080p.WEB.H264-CHOPiN
2024-04-18 10:04:07 TV-WEB-HD-X264 Feud.S01E04.POLiSH.720p.WEB.H264-CHOPiN
2024-04-18 10:04:38 TV-WEB-HD-X264 Feud.S01E05.POLiSH.1080p.WEB.H264-CHOPiN
2024-04-18 10:05:09 TV-WEB-HD-X264 Feud.S01E05.POLiSH.720p.WEB.H264-CHOPiN
2024-04-18 10:05:31 TV-WEB-HD-X264 Craig.Of.The.Creek.S02E34.NORWEGiAN.720p.WEB.h264-NORKiDS
2024-04-18 10:05:41 TV-WEB-HD-X264 Feud.S01E06.POLiSH.1080p.WEB.H264-CHOPiN
2024-04-18 10:06:12 TV-WEB-HD-X264 Feud.S01E06.POLiSH.720p.WEB.H264-CHOPiN
2024-04-18 10:06:44 TV-WEB-HD-X264 Feud.S01E07.POLiSH.1080p.WEB.H264-CHOPiN
2024-04-18 10:07:14 TV-WEB-HD-X264 Craig.Of.The.Creek.S02E34.NORWEGiAN.1080p.WEB.h264-NORKiDS
2024-04-18 10:07:15 TV-WEB-HD-X264 Feud.S01E07.POLiSH.720p.WEB.H264-CHOPiN
2024-04-18 10:07:46 TV-WEB-HD-X264 Feud.S01E08.POLiSH.1080p.WEB.H264-CHOPiN
2024-04-18 10:08:02 TV-WEB-HD-X264 De.Augurkenkoning.S02E01.DUTCH.1080p.WEB.h264-TRIPEL
2024-04-18 10:08:17 TV-WEB-HD-X264 Feud.S01E08.POLiSH.720p.WEB.H264-CHOPiN
2024-04-18 10:09:15 XXX-iMAGESET Nubiles.net_24.04.18.Lina.Sun.Late.Night.Snack.XXX.IMAGESET-FuGLi
2024-04-18 10:09:46 TV-WEB-HD-X264 Craig.Of.The.Creek.S02E35.NORWEGiAN.720p.WEB.h264-NORKiDS
2024-04-18 10:11:30 TV-WEB-HD-X264 Craig.Of.The.Creek.S02E35.NORWEGiAN.1080p.WEB.h264-NORKiDS
2024-04-18 10:11:58 XXX-iMAGESET Nubiles.net_24.04.18.Patrisia.It.Feels.Like.You.XXX.IMAGESET-FuGLi
2024-04-18 10:13:03 TV-WEB-HD-X264 De.Augurkenkoning.S02E02.DUTCH.1080p.WEB.h264-TRIPEL
2024-04-18 10:14:03 TV-WEB-HD-X264 Craig.Of.The.Creek.S02E36.NORWEGiAN.720p.WEB.h264-NORKiDS
2024-04-18 10:14:39 TV-WEB-HD-X264 Alla.Mot.Alla.Med.Filip.Och.Fredrik.S11E44.SWEDiSH.1080p.WEB.h264-OLLONBORRE
2024-04-18 10:15:06 TV-WEB-HD-X264 Alla.Mot.Alla.Med.Filip.Och.Fredrik.S11E44.SWEDiSH.720p.WEB.h264-OLLONBORRE
2024-04-18 10:15:50 TV-WEB-HD-X264 Craig.Of.The.Creek.S02E36.NORWEGiAN.1080p.WEB.h264-NORKiDS
2024-04-18 10:18:32 TV-WEB-HD-X264 Craig.Of.The.Creek.S02E37.NORWEGiAN.720p.WEB.h264-NORKiDS
2024-04-18 10:20:07 TV-WEB-HD-X264 Craig.Of.The.Creek.S02E37.NORWEGiAN.1080p.WEB.h264-NORKiDS
2024-04-18 10:20:59 TV-WEB-HD-X264 Farmi.Suomi.S05E08.FiNNiSH.1080p.WEB.H264-NETTiTV
2024-04-18 10:22:43 TV-WEB-HD-X264 Craig.Of.The.Creek.S02E38.NORWEGiAN.720p.WEB.h264-NORKiDS
2024-04-18 10:23:32 TV-WEB-HD-X264 Farmi.Suomi.S05E08.FiNNiSH.720p.WEB.H264-NETTiTV
2024-04-18 10:24:15 TV-WEB-HD-X264 Craig.Of.The.Creek.S02E38.NORWEGiAN.1080p.WEB.h264-NORKiDS
2024-04-18 10:26:05 TV-WEB-HD-X264 Syke.S16E23.FiNNiSH.1080p.WEB.H264-NETTiTV
2024-04-18 10:28:04 TV-WEB-HD-X264 Ravens.Home.2017.S01E01.POLISH.720p.WEB.H264-A4O
2024-04-18 10:30:01 BLURAY Doctor.Who.-.The.Mutants.1972.DUAL.COMPLETE.BLURAY-FULLSiZE
2024-04-18 10:30:50 TV-WEB-HD-X265 The.Girls.on.the.Bus.S01E07.POLiSH.DV.2160p.WEB.H265-CHOPiN
2024-04-18 10:31:05 TV-WEB-HD-X265 The.Girls.on.the.Bus.S01E07.POLiSH.HDR.2160p.WEB.H265-CHOPiN
2024-04-18 10:31:18 TV-WEB-HD-X264 The.Girls.on.the.Bus.S01E07.POLiSH.1080p.WEB.H264-CHOPiN
2024-04-18 10:31:25 TV-WEB-HD-X264 The.Girls.on.the.Bus.S01E07.POLiSH.720p.WEB.H264-CHOPiN
2024-04-18 10:33:12 TV-WEB-HD-X264 Ravens.Home.2017.S01E01.POLISH.1080p.WEB.H264-A4O
2024-04-18 10:33:26 TV-WEB-HD-X264 Going.Home.with.Tyler.Cameron.S01E01.1080p.WEB.h264-EDITH
2024-04-18 10:34:02 TV-WEB-HD-X264 Going.Home.with.Tyler.Cameron.S01E02.1080p.WEB.h264-EDITH
2024-04-18 10:34:35 TV-WEB-HD-X264 Going.Home.with.Tyler.Cameron.S01E03.1080p.WEB.h264-EDITH
2024-04-18 10:35:12 TV-WEB-HD-X264 Going.Home.with.Tyler.Cameron.S01E04.1080p.WEB.h264-EDITH
2024-04-18 10:35:48 TV-WEB-HD-X264 Going.Home.with.Tyler.Cameron.S01E05.1080p.WEB.h264-EDITH
2024-04-18 10:36:25 TV-WEB-HD-X264 Going.Home.with.Tyler.Cameron.S01E06.1080p.WEB.h264-EDITH
2024-04-18 10:36:58 TV-WEB-HD-X264 Going.Home.with.Tyler.Cameron.S01E07.1080p.WEB.h264-EDITH
2024-04-18 10:37:34 TV-WEB-HD-X264 Going.Home.with.Tyler.Cameron.S01E08.1080p.WEB.h264-EDITH
2024-04-18 10:38:17 TV-WEB-HD-X264 Ravens.Home.2017.S01E02.POLISH.720p.WEB.H264-A4O
2024-04-18 10:43:28 TV-WEB-HD-X264 Ravens.Home.2017.S01E02.POLISH.1080p.WEB.H264-A4O
2024-04-18 10:48:32 TV-WEB-HD-X264 Ravens.Home.2017.S01E03.POLISH.720p.WEB.H264-A4O
2024-04-18 10:53:36 TV-WEB-HD-X264 Ravens.Home.2017.S01E03.POLISH.1080p.WEB.H264-A4O
2024-04-18 10:56:18 TV-WEB-X264 Feud.S01E01.POLISH.WEB.H264-FLAME
2024-04-18 10:56:33 TV-WEB-X264 Feud.S01E02.POLISH.WEB.H264-FLAME
2024-04-18 10:56:48 TV-WEB-X264 Feud.S01E03.POLISH.WEB.H264-FLAME
2024-04-18 10:57:03 TV-WEB-X264 Feud.S01E04.POLISH.WEB.H264-FLAME
2024-04-18 10:57:21 TV-WEB-X264 Feud.S01E05.POLISH.WEB.H264-FLAME
2024-04-18 10:57:38 TV-WEB-X264 Feud.S01E06.POLISH.WEB.H264-FLAME
2024-04-18 10:57:51 TV-WEB-X264 Feud.S01E07.POLISH.WEB.H264-FLAME
2024-04-18 10:58:07 TV-WEB-X264 Feud.S01E08.POLISH.WEB.H264-FLAME
2024-04-18 10:58:42 TV-WEB-HD-X264 Ravens.Home.2017.S01E04.POLISH.720p.WEB.H264-A4O
2024-04-18 10:59:32 TV Reina.Roja.S01E01.POLISH.WEB-FLAME
2024-04-18 10:59:46 TV Reina.Roja.S01E02.POLISH.WEB-FLAME
2024-04-18 10:59:59 TV Reina.Roja.S01E03.POLISH.WEB-FLAME
2024-04-18 10:59:59 MP3-WEB 2_Phatt_DJs_feat_Kirstie_Smiler_-_Do_You_Wanna_Funk-(DNZF1650)-SINGLE-WEB-2024-ZzZz
2024-04-18 11:00:01 TV-WEB-HD-X264 Divided.Youth.S01E06.POLiSH.1080p.WEB.H264-CHOPiN
2024-04-18 11:00:13 TV Reina.Roja.S01E04.POLISH.WEB-FLAME
2024-04-18 11:00:17 TV-WEB-HD-X264 Abbott.Elementary.S03E10.1080p.WEB.h264-ETHEL
2024-04-18 11:00:35 TV-WEB-HD-X264 Divided.Youth.S01E06.POLiSH.720p.WEB.H264-CHOPiN
2024-04-18 11:00:40 TV Reina.Roja.S01E05.POLISH.WEB-FLAME
2024-04-18 11:00:55 TV Reina.Roja.S01E06.POLISH.WEB-FLAME
2024-04-18 11:01:06 TV-WEB-HD-X264 Divided.Youth.S01E07.POLiSH.1080p.WEB.H264-CHOPiN
2024-04-18 11:01:10 TV Reina.Roja.S01E07.POLISH.WEB-FLAME
2024-04-18 11:01:20 TV-WEB-HD-X264 The.Daily.Show.2024.04.17.Orlando.Bloom.1080p.WEB.h264-EDITH
2024-04-18 11:01:21 TV-WEB-HD-X264 The.Daily.Show.2024.04.17.Orlando.Bloom.720p.WEB.h264-EDITH
2024-04-18 11:01:37 TV-WEB-HD-X264 Divided.Youth.S01E07.POLiSH.720p.WEB.H264-CHOPiN
2024-04-18 11:01:57 TV-HD Reina.Roja.S01E01.POLISH.720p.WEB-FLAME
2024-04-18 11:02:08 TV-WEB-HD-X264 Young.Sheldon.S07E07.POLiSH.1080p.WEB.H264-CHOPiN
2024-04-18 11:02:10 TV-HD Reina.Roja.S01E02.POLISH.720p.WEB-FLAME
2024-04-18 11:02:22 TV-HD Reina.Roja.S01E03.POLISH.720p.WEB-FLAME
2024-04-18 11:02:35 TV-HD Reina.Roja.S01E04.POLISH.720p.WEB-FLAME
2024-04-18 11:02:39 TV-WEB-HD-X264 Young.Sheldon.S07E07.POLiSH.720p.WEB.H264-CHOPiN
2024-04-18 11:02:51 TV-HD Reina.Roja.S01E05.POLISH.720p.WEB-FLAME
2024-04-18 11:03:06 TV-HD Reina.Roja.S01E06.POLISH.720p.WEB-FLAME
2024-04-18 11:03:20 TV-HD Reina.Roja.S01E07.POLISH.720p.WEB-FLAME
2024-04-18 11:03:45 TV-WEB-HD-X264 Ravens.Home.2017.S01E04.POLISH.1080p.WEB.H264-A4O
2024-04-18 11:04:07 EBOOK FOCUS.No.17.2024.GERMAN.HYBRID.MAGAZINE.eBook-LORENZ
2024-04-18 11:04:30 EBOOK Forbes.No.02.2024.GERMAN.HYBRID.MAGAZINE.eBook-LORENZ
2024-04-18 11:04:53 EBOOK Macwelt.Special.No.05.2024.GERMAN.HYBRID.MAGAZINE.eBook-LORENZ
2024-04-18 11:05:15 EBOOK falstaff.LIVING.No.03.2024.GERMAN.HYBRID.MAGAZINE.eBook-LORENZ
2024-04-18 11:05:36 EBOOK marktEINBLICKE.Zertifikate.No.08.2024.GERMAN.HYBRID.MAGAZINE.eBook-LORENZ
2024-04-18 11:05:39 MP3-WEB ADF_and_Kirstie_Smiler_-_Fix_It_For_You-(MM007)-WEB-2024-ZzZz
2024-04-18 11:05:50 X264-HD The.Bricklayer.2023.German.720p.BluRay.x264.SUBFiX-LizardSquad
2024-04-18 11:05:57 TV-WEB-HD-X265 Divided.Youth.S01E06.2160p.WEB.h265-EDITH
2024-04-18 11:06:06 TV-HD Reina.Roja.S01E01.POLISH.1080p.WEB-FLAME
2024-04-18 11:06:20 TV-HD Reina.Roja.S01E02.POLISH.1080p.WEB-FLAME
2024-04-18 11:06:22 X264 The.Bricklayer.2023.German.BDRip.x264.SUBFiX-LizardSquad
2024-04-18 11:06:35 TV-HD Reina.Roja.S01E03.POLISH.1080p.WEB-FLAME
2024-04-18 11:06:49 TV-HD Reina.Roja.S01E04.POLISH.1080p.WEB-FLAME
2024-04-18 11:06:54 X264-HD The.Bricklayer.2023.German.DL.1080p.BluRay.x264.SUBFiX-LizardSquad
2024-04-18 11:07:04 TV-HD Reina.Roja.S01E05.POLISH.1080p.WEB-FLAME
2024-04-18 11:07:20 TV-HD Reina.Roja.S01E06.POLISH.1080p.WEB-FLAME
2024-04-18 11:07:35 TV-HD Reina.Roja.S01E07.POLISH.1080p.WEB-FLAME
2024-04-18 11:08:53 TV-WEB-HD-X264 Ravens.Home.2017.S01E05.POLISH.720p.WEB.H264-A4O
2024-04-18 11:09:02 TV-WEB-HD-X265 Reina.Roja.S01E01.POLISH.2160p.WEB.H265-FLAME
2024-04-18 11:09:14 TV-WEB-HD-X265 Reina.Roja.S01E02.POLISH.2160p.WEB.H265-FLAME
2024-04-18 11:09:46 TV-WEB-HD-X265 Reina.Roja.S01E03.POLISH.2160p.WEB.H265-FLAME
2024-04-18 11:10:03 TV-WEB-HD-X265 Reina.Roja.S01E04.POLISH.2160p.WEB.H265-FLAME
2024-04-18 11:10:15 TV-WEB-HD-X265 Reina.Roja.S01E05.POLISH.2160p.WEB.H265-FLAME
2024-04-18 11:10:33 TV-WEB-HD-X265 Reina.Roja.S01E06.POLISH.2160p.WEB.H265-FLAME
2024-04-18 11:10:45 TV-WEB-HD-X265 Reina.Roja.S01E07.POLISH.2160p.WEB.H265-FLAME
2024-04-18 11:11:19 TV-WEB-HD-X265 Reina.Roja.S01E01.POLISH.HDR.2160p.WEB.H265-FLAME
2024-04-18 11:11:26 TV-WEB-HD-X264 Jimmy.Kimmel.2024.04.17.Rob.McElhenney.720p.WEB.h264-EDITH
2024-04-18 11:11:32 TV-WEB-HD-X265 Reina.Roja.S01E02.POLISH.HDR.2160p.WEB.H265-FLAME
2024-04-18 11:11:46 TV-WEB-HD-X265 Reina.Roja.S01E03.POLISH.HDR.2160p.WEB.H265-FLAME
2024-04-18 11:12:04 TV-WEB-HD-X265 Reina.Roja.S01E04.POLISH.HDR.2160p.WEB.H265-FLAME
2024-04-18 11:12:18 TV-WEB-HD-X265 Reina.Roja.S01E05.POLISH.HDR.2160p.WEB.H265-FLAME
2024-04-18 11:12:31 TV-WEB-HD-X265 Reina.Roja.S01E06.POLISH.HDR.2160p.WEB.H265-FLAME
2024-04-18 11:12:46 TV-WEB-HD-X265 Reina.Roja.S01E07.POLISH.HDR.2160p.WEB.H265-FLAME
2024-04-18 11:17:05 TV-WEB-HD-X264 A.And.E.Crash.Scene.Emergency.S01E06.1080p.WEB.H264-CBFM
2024-04-18 11:18:15 MP3-WEB Melody_-_Desenchantee-(PTR308)-WEB-FR-2024-ZzZz
2024-04-18 11:19:07 TV-WEB-HD-X264 Bargain.Loving.Brits.In.The.Sun.S11E19.1080p.WEB.H264-CBFM
2024-04-18 11:21:05 MP3-WEB LDNE_-_OnlyFans-SINGLE-WEB-2021-iDC
2024-04-18 11:21:09 TV-WEB-HD-X264 Bargain.Loving.Brits.In.The.Sun.S11E20.1080p.WEB.H264-CBFM
2024-04-18 11:21:50 MP3-WEB Madmatt_-_Apollo_13-SINGLE-WEB-2016-iDC
2024-04-18 11:22:36 MP3-WEB Madmatt_-_Chasing_The_Sun-SINGLE-WEB-2016-iDC
2024-04-18 11:23:00 MP3-WEB Molly_Sanden_-_Gimme_Gimme_Gimme_(A_Man_After_Midnight)-SINGLE-WEB-2024-iDC
2024-04-18 11:23:12 TV-WEB-HD-X264 Home.Rescue.The.Big.Fix.S07E01.1080p.WEB.H264-CBFM
2024-04-18 11:23:22 MP3-WEB Madmatt_-_Feel_Good-SINGLE-WEB-2017-iDC
2024-04-18 11:23:35 MP3-WEB Madmatt_-_Hope-SINGLE-WEB-2017-iDC
2024-04-18 11:23:39 MP3-WEB Madmatt_-_Jaguar-SINGLE-WEB-2016-iDC
2024-04-18 11:23:41 MP3-WEB Madmatt_-_Nightfall-SINGLE-WEB-2017-iDC
2024-04-18 11:23:44 MP3-WEB Madmatt_-_November-SINGLE-WEB-2015-iDC
2024-04-18 11:23:49 MP3-WEB Mr_Belt_And_Wezol_-_Its_Not_Right_But_Its_Okay-SINGLE-WEB-2024-iDC
2024-04-18 11:23:52 MP3-WEB Teseo_Smith_-_Art_Deco-SINGLE-WEB-2024-iDC
2024-04-18 11:24:10 MP3-WEB KennyR_-_Sunshine_State_Of_Mind-(RU356304)-SINGLE-WEB-2024-ZzZz
2024-04-18 11:25:10 FLAC James_Carter-The_Real_Quietstorm-CD-FLAC-1995-401
2024-04-18 11:25:13 TV-WEB-HD-X264 Made.In.Chelsea.S27E01.1080p.WEB.H264-CBFM
2024-04-18 11:26:18 FLAC Mike_Vernon-Just_A_Little_Bit-CD-FLAC-2015-401
2024-04-18 11:26:30 TV-WEB-HD-X264 Ravens.Home.2017.S01E05.POLISH.1080p.WEB.H264-A4O
2024-04-18 11:27:09 FLAC Sara_Gee_And_Ramblin_Matt_Feat._Soni_Artal-Goddamn_Blues-CD-FLAC-2020-401
2024-04-18 11:27:15 TV-WEB-HD-X264 Made.In.Chelsea.S27E02.1080p.WEB.H264-CBFM
2024-04-18 11:28:00 FLAC VA-The_Loner_A_Tribute_To_Jeff_Beck-CD-FLAC-2005-401
2024-04-18 11:28:51 FLAC Yes-Fragile-REMASTERED-CD-FLAC-2003-401
2024-04-18 11:29:16 TV-WEB-HD-X264 Police.Interceptors.Pursuit.And.Capture.S01E06.1080p.WEB.H264-CBFM
2024-04-18 11:29:52 DOCU Goldtaucher.der.Beringsee.S11E09.GERMAN.DOKU.720p.WEB.H264-GHDP
2024-04-18 11:30:06 TV-WEB-X264 Swagger.S02E01.Neue.Wege.German.DL.Webrip.x264-TVARCHiV
2024-04-18 11:30:57 DOCU Goldtaucher.der.Beringsee.S11E09.GERMAN.DOKU.1080p.WEB.H264-GHDP
2024-04-18 11:31:04 BLURAY-AVC The.Bricklayer.2023.German.DL.1080p.BluRay.AVC-UNTAVC
2024-04-18 11:31:18 TV-WEB-HD-X264 Police.Interceptors.Pursuit.And.Capture.S01E07.1080p.WEB.H264-CBFM
2024-04-18 11:31:35 TV-WEB-HD-X264 Ravens.Home.2017.S01E06.POLISH.720p.WEB.H264-A4O
2024-04-18 11:32:12 MP3 Mike_Vernon-Just_A_Little_Bit-2015-404
2024-04-18 11:33:07 MP3 Sara_Gee_And_Ramblin_Matt_Feat_Soni_Artal-Goddamn_Blues-2020-404
2024-04-18 11:33:21 TV-WEB-HD-X264 The.End.Of.The.World.With.Beanz.S01E06.1080p.WEB.H264-CBFM
2024-04-18 11:33:58 MP3 VA-The_Loner_A_Tribute_To_Jeff_Beck-2005-404
2024-04-18 11:34:08 GAMES-DOX Tintin_Reporter_Cigars_of_the_Pharaoh_v20240404-Razor1911
2024-04-18 11:35:21 EBOOK All.About.History.No.142.2024.HYBRID.MAGAZINE.eBook-21A1
2024-04-18 11:35:25 TV-WEB-HD-X264 The.Repair.Shop.AU.S01E03.1080p.WEB.H264-CBFM
2024-04-18 11:35:44 EBOOK All.About.Space.No.155.2024.HYBRID.MAGAZINE.eBook-21A1
2024-04-18 11:36:00 EBOOK GP.Racing.May.2024.HYBRID.MAGAZINE.eBook-21A1
2024-04-18 11:36:00 EBOOK FHM.Australia.April.2024.HYBRID.MAGAZINE.eBook-21A1
2024-04-18 11:36:06 EBOOK EDGE.No.397.2024.HYBRID.MAGAZINE.eBook-21A1
2024-04-18 11:36:43 TV-WEB-HD-X264 Ravens.Home.2017.S01E06.POLISH.1080p.WEB.H264-A4O
2024-04-18 11:37:00 EBOOK Linux.For.Beginners.No.18.2024.HYBRID.MAGAZINE.eBook-21A1
2024-04-18 11:37:00 SPORTS UEFA.Champions.League.2024.04.17.Manchester.City.vs.Real.Madrid.2160p.WEB.H265-SOKA
2024-04-18 11:37:28 TV-WEB-HD-X264 The.Yorkshire.Auction.House.S04E15.1080p.WEB.H264-CBFM
2024-04-18 11:37:29 EBOOK Hackers.Manual.2024.Sixteenth.Edition.2024.HYBRID.MAGAZINE.eBook-21A1
2024-04-18 11:38:00 EBOOK MCN.April.17.2024.HYBRID.MAGAZINE.eBook-21A1
2024-04-18 11:38:17 EBOOK MAXIM.Australia.May.2024.HYBRID.MAGAZINE.eBook-21A1
2024-04-18 11:39:00 EBOOK Olive.May.2024.HYBRID.MAGAZINE.eBook-21A1
2024-04-18 11:39:00 EBOOK New.Scientist.April.20.2024.HYBRID.MAGAZINE.eBook-21A1
2024-04-18 11:40:00 EBOOK delicious.May.2024.HYBRID.MAGAZINE.eBook-21A1
2024-04-18 11:40:02 EBOOK Photography.Week.No.604.2024.HYBRID.MAGAZINE.eBook-21A1
2024-04-18 11:40:28 XXX-iMAGESET PenthouseGold.com_24.04.18.Gianna.Gray.Horny.Milf.needs.dick.XXX.iMAGESET-Narcos
2024-04-18 11:41:03 XXX-HD PenthouseGold.24.04.18.Gianna.Gray.Horny.Milf.needs.dick.XXX.2160p.MP4-Narcos
2024-04-18 11:41:47 TV-WEB-HD-X264 Ravens.Home.2017.S01E07.POLISH.720p.WEB.H264-A4O
2024-04-18 11:46:02 SPORTS NBA.2024.04.17.Play-In.Atlanta.Hawks.Vs.Chicago.Bulls.1080p.WEB.H264-GAMETiME
2024-04-18 11:46:56 TV-WEB-HD-X264 Ravens.Home.2017.S01E07.POLISH.1080p.WEB.H264-A4O
2024-04-18 11:49:14 SPORTS NBA.2024.04.17.Play-In.Miami.Heat.Vs.Philadelphia.76ers.1080p.WEB.H264-GAMETiME
2024-04-18 11:52:03 TV-WEB-HD-X264 Ravens.Home.2017.S01E08.POLISH.720p.WEB.H264-A4O
2024-04-18 11:53:00 SPORTS WRC.FIA.WORLD.RALLY.CHAMPIONSHIP.2024.Croatia.Shakedown.720p.WEB.H264-ASOOT
2024-04-18 11:57:08 TV-WEB-HD-X264 Ravens.Home.2017.S01E08.POLISH.1080p.WEB.H264-A4O
2024-04-18 12:00:59 TV-WEB-HD-X264 Orlando.Bloom.To.the.Edge.S01E01.1080p.WEB.h264-ETHEL
2024-04-18 12:01:15 TV-WEB-HD-X265 Orlando.Bloom.To.the.Edge.S01E01.2160p.WEB.h265-ETHEL
2024-04-18 12:01:16 TV-WEB-HD-X264 Orlando.Bloom.To.the.Edge.S01E02.1080p.WEB.h264-ETHEL
2024-04-18 12:01:32 TV-WEB-HD-X265 Orlando.Bloom.To.the.Edge.S01E02.2160p.WEB.h265-ETHEL
2024-04-18 12:01:33 TV-WEB-HD-X264 Orlando.Bloom.To.the.Edge.S01E03.1080p.WEB.h264-ETHEL
2024-04-18 12:01:47 TV-WEB-HD-X265 Orlando.Bloom.To.the.Edge.S01E03.2160p.WEB.h265-ETHEL
2024-04-18 12:02:14 TV-WEB-HD-X264 Ravens.Home.2017.S01E09.POLISH.720p.WEB.H264-A4O
2024-04-18 12:05:58 TV-WEB-X264 Reina.Roja.S01.DIRFIX.POLISH.WEB.H264-FLAME
2024-04-18 12:06:52 TV-WEB-HD-X264 Reina.Roja.S01.DIRFIX.POLISH.720p.WEB.H264-FLAME
2024-04-18 12:07:12 MP3-WEB My_Dying_Bride-A_Mortal_Binding-WEB-2024-BLEEDiNG
2024-04-18 12:07:14 TV-WEB-HD-X264 Reina.Roja.S01.DIRFIX.POLISH.1080p.WEB.H264-FLAME
2024-04-18 12:07:17 TV-WEB-HD-X264 Ravens.Home.2017.S01E09.POLISH.1080p.WEB.H264-A4O
2024-04-18 12:10:27 TV-WEB-HD-X264 Watch.What.Happens.Live.2024.04.17.1080p.WEB.h264-EDITH
2024-04-18 12:10:44 TV-WEB-HD-X264 Top.Chef.S21E05.1080p.WEB.h264-EDITH
2024-04-18 12:12:22 TV-WEB-HD-X264 Ravens.Home.2017.S01E10.POLISH.720p.WEB.H264-A4O
2024-04-18 12:17:38 TV-WEB-HD-X264 Ravens.Home.2017.S01E10.POLISH.1080p.WEB.H264-A4O
2024-04-18 12:18:33 TV-WEB-HD-X264 Moj.Agent.S01E01.INTERNAL.POLiSH.1080p.WEB.H264-CHOPiN
2024-04-18 12:19:36 TV-WEB-HD-X264 Moj.Agent.S01E01.INTERNAL.POLiSH.720p.WEB.H264-CHOPiN
2024-04-18 12:20:37 TV-WEB-HD-X264 Moj.Agent.S01E02.INTERNAL.POLiSH.1080p.WEB.H264-CHOPiN
2024-04-18 12:21:38 TV-WEB-HD-X264 Moj.Agent.S01E02.INTERNAL.POLiSH.720p.WEB.H264-CHOPiN
2024-04-18 12:22:39 TV-WEB-HD-X264 Moj.Agent.S01E03.INTERNAL.POLiSH.1080p.WEB.H264-CHOPiN
2024-04-18 12:22:46 TV-WEB-HD-X264 Ravens.Home.2017.S01E11.POLISH.720p.WEB.H264-A4O
2024-04-18 12:23:41 TV-WEB-HD-X264 Moj.Agent.S01E03.INTERNAL.POLiSH.720p.WEB.H264-CHOPiN
2024-04-18 12:24:42 TV-WEB-HD-X264 Moj.Agent.S01E04.INTERNAL.POLiSH.1080p.WEB.H264-CHOPiN
2024-04-18 12:25:43 TV-WEB-HD-X264 Moj.Agent.S01E04.INTERNAL.POLiSH.720p.WEB.H264-CHOPiN
2024-04-18 12:26:45 TV-WEB-HD-X264 Moj.Agent.S01E05.INTERNAL.POLiSH.1080p.WEB.H264-CHOPiN
2024-04-18 12:27:46 TV-WEB-HD-X264 Moj.Agent.S01E05.INTERNAL.POLiSH.720p.WEB.H264-CHOPiN
2024-04-18 12:27:52 TV-WEB-HD-X264 Ravens.Home.2017.S01E11.POLISH.1080p.WEB.H264-A4O
2024-04-18 12:27:55 MP3-WEB Blaze_of_Perdition-Upharsin-WEB-PL-2024-BLEEDiNG
2024-04-18 12:28:47 TV-WEB-HD-X264 Moj.Agent.S01E06.INTERNAL.POLiSH.1080p.WEB.H264-CHOPiN
2024-04-18 12:29:39 MP3-WEB Adan_Mor-Hallucination-(FGSRAW015)-WEB-2024-PTC
2024-04-18 12:29:49 TV-WEB-HD-X264 Moj.Agent.S01E06.INTERNAL.POLiSH.720p.WEB.H264-CHOPiN
2024-04-18 12:29:53 MP3-WEB Alexis_Moralez-Rotten-(AMP192)-WEB-2024-PTC
2024-04-18 12:32:44 MP3-WEB Kawir-Kydoimos-WEB-2024-BLEEDiNG
2024-04-18 12:32:56 TV-WEB-HD-X264 Ravens.Home.2017.S01E12.POLISH.720p.WEB.H264-A4O
2024-04-18 12:34:15 TV-X264 Billions.S06E01.DVDRip.x264-PFa
2024-04-18 12:34:25 MP3-WEB Anastasia_Nati_and_Petros_Odin-Somewhere_Over-(NAT914)-WEB-2024-PTC
2024-04-18 12:34:59 TV-X264 Billions.S06E02.DVDRip.x264-PFa
2024-04-18 12:35:16 TV-X264 Billions.S06E03.DVDRip.x264-PFa
2024-04-18 12:35:35 TV-X264 Billions.S06E04.DVDRip.x264-PFa
2024-04-18 12:36:24 MP3-WEB Selbst-Despondency_Chord_Progressions-WEB-2024-BLEEDiNG
2024-04-18 12:36:32 MP3-WEB Adan_Mor-Spaceship-(NATBLACK461)-WEB-2024-PTC
2024-04-18 12:36:54 TV-X264 Billions.S06E05.DVDRip.x264-PFa
2024-04-18 12:37:11 TV-X264 Billions.S06E06.DVDRip.x264-PFa
2024-04-18 12:37:27 TV-X264 Billions.S06E07.DVDRip.x264-PFa
2024-04-18 12:37:45 TV-X264 Billions.S06E08.DVDRip.x264-PFa
2024-04-18 12:38:06 TV-WEB-HD-X264 Ravens.Home.2017.S01E12.POLISH.1080p.WEB.H264-A4O
2024-04-18 12:38:10 TV-X264 Billions.S06E09.DVDRip.x264-PFa
2024-04-18 12:39:44 MP3-WEB Red_Rooms-Emerge_LP-(PRRUKBLKLP002)-WEB-2024-PTC
2024-04-18 12:39:55 TV-X264 Billions.S06E10.DVDRip.x264-PFa
2024-04-18 12:40:14 TV-X264 Billions.S06E11.DVDRip.x264-PFa
2024-04-18 12:40:29 TV-X264 Billions.S06E12.DVDRip.x264-PFa
2024-04-18 12:42:05 TV-WEB-HD-X265 Bosch.Legacy.S02E01.POLISH.2160p.WEB.H265-FLAME
2024-04-18 12:42:17 TV-WEB-HD-X265 Bosch.Legacy.S02E02.POLISH.2160p.WEB.H265-FLAME
2024-04-18 12:42:31 TV-WEB-HD-X265 Bosch.Legacy.S02E03.POLISH.2160p.WEB.H265-FLAME
2024-04-18 12:42:45 TV-WEB-HD-X265 Bosch.Legacy.S02E04.POLISH.2160p.WEB.H265-FLAME
2024-04-18 12:43:03 TV-WEB-HD-X265 Bosch.Legacy.S02E05.POLISH.2160p.WEB.H265-FLAME
2024-04-18 12:43:11 TV-WEB-HD-X264 Ravens.Home.2017.S01E13.POLISH.720p.WEB.H264-A4O
2024-04-18 12:43:35 FLAC-WEB Red_Rooms-Emerge_LP-PRRUKBLKLP002-16BIT-WEB-FLAC-2024-WAVED
2024-04-18 12:43:46 TV-WEB-HD-X265 Bosch.Legacy.S02E06.POLISH.2160p.WEB.H265-FLAME
2024-04-18 12:44:00 TV-WEB-HD-X265 Bosch.Legacy.S02E08.POLISH.2160p.WEB.H265-FLAME
2024-04-18 12:44:03 TV-WEB-HD-X265 Bosch.Legacy.S02E07.POLISH.2160p.WEB.H265-FLAME
2024-04-18 12:44:33 TV-WEB-HD-X265 Bosch.Legacy.S02E09.POLISH.2160p.WEB.H265-FLAME
2024-04-18 12:44:35 MP3-WEB Soul_Button-Master_Minds-(SYYK237)-WEB-2024-PTC
2024-04-18 12:44:50 TV-WEB-HD-X265 Bosch.Legacy.S02E10.POLISH.2160p.WEB.H265-FLAME
2024-04-18 12:45:52 TV-WEB-HD-X264 Dit.Was.Het.Nieuws.S46E05.DUTCH.1080p.WEB.h264-KIJKDOOS
2024-04-18 12:48:18 TV-WEB-HD-X264 Ravens.Home.2017.S01E13.POLISH.1080p.WEB.H264-A4O
2024-04-18 12:48:42 MP3-WEB Cap_Morgane-Bom_Bom-(RCR126)-WEB-2024-PTC
2024-04-18 12:50:56 MP3-WEB Ade_Ingram-Live_At_Off_The_Cuff_Hard_House_Sessions_6.0-WEB-2024-XTC_iNT
2024-04-18 12:51:33 MP3-WEB Bonkers_Beats_146_On_Beat_106_Scotland-With_Savage_States_Toriena_Guest_Mix-LIVE-WEB-2024-XTC_iNT
2024-04-18 12:51:41 TV-WEB-HD-X264 Alene.I.Vildmarken.S08E07.En.Uventet.Slutning.DANiSH.1080p.WEB.h264-DRDK
2024-04-18 12:52:24 MP3-WEB Expace-Live_At_Salabasso_Finland-WEB-2024-XTC_iNT
2024-04-18 12:52:57 MP3-WEB Nihil_Young_and_James_De_Torres-Moth_to_a_Flame-(HRB085)-WEB-2024-PTC
2024-04-18 12:53:00 MP3-WEB Cap_Morgane-Bom_Bom-(RCR126)-WEB-2024-AFO
2024-04-18 12:53:07 MP3-WEB Alexandra_Savvidi_and_Techno_Phobia-Hug_Me_Harder-(HRSH041)-SINGLE-WEB-2024-AFO
2024-04-18 12:53:38 MP3-WEB Cheema_(IT)-Enjoy_My_Sensations-(CNS125)-WEB-2024-AFO
2024-04-18 12:55:01 MP3-WEB Koelle_and_Tim_Morrison-Otherside-(HTR084)-WEB-2024-AFO
2024-04-18 12:57:39 MP3-WEB Interloop-True-(PLRTUNDR071)-SINGLE-WEB-2024-AFO
2024-04-18 12:57:44 MP3-WEB Pyramido-Shandi-(EJU348)-WEB-2024-AFO
2024-04-18 12:58:06 MP3-WEB PWCCA-Hechizo-NST182-WEB-2024-WAV
2024-04-18 12:58:17 TV-WEB-HD-X265 Bosch.Legacy.S02E01.POLISH.HDR.2160p.WEB.H265-FLAME
2024-04-18 12:59:01 MP3-WEB Dion_Paola_(AUS)-Nimbus_Dream-(BC2464)-WEB-2024-AFO
2024-04-18 12:59:11 TV-WEB-HD-X265 Bosch.Legacy.S02E02.POLISH.HDR.2160p.WEB.H265-FLAME
2024-04-18 12:59:25 TV-WEB-HD-X265 Bosch.Legacy.S02E03.POLISH.HDR.2160p.WEB.H265-FLAME
2024-04-18 12:59:39 TV-WEB-HD-X265 Bosch.Legacy.S02E04.POLISH.HDR.2160p.WEB.H265-FLAME
2024-04-18 12:59:56 TV-WEB-HD-X265 Bosch.Legacy.S02E05.POLISH.HDR.2160p.WEB.H265-FLAME
2024-04-18 13:00:15 TV-WEB-HD-X265 Bosch.Legacy.S02E06.POLISH.HDR.2160p.WEB.H265-FLAME
2024-04-18 13:00:31 MP3-WEB VA-The_Purr_Coffee_Shop_III-(PURR426)-WEB-2024-AFO
2024-04-18 13:00:31 TV-WEB-HD-X265 Bosch.Legacy.S02E07.POLISH.HDR.2160p.WEB.H265-FLAME
2024-04-18 13:00:45 TV-WEB-HD-X265 Bosch.Legacy.S02E08.POLISH.HDR.2160p.WEB.H265-FLAME
2024-04-18 13:01:01 TV-WEB-HD-X265 Bosch.Legacy.S02E09.POLISH.HDR.2160p.WEB.H265-FLAME
2024-04-18 13:01:17 TV-WEB-HD-X265 Bosch.Legacy.S02E10.POLISH.HDR.2160p.WEB.H265-FLAME
2024-04-18 13:02:13 MP3-WEB Clercq-You_Know_What_I_Mean-MBE184-WEB-2024-WAV
2024-04-18 13:04:02 MP3-WEB Speakman-Infinity_EP-(MTDF056)-WEB-2024-AFO
2024-04-18 13:04:03 FLAC-WEB PWCCA-Hechizo-(NST182)-16BIT-WEB-FLAC-2024-PTC
2024-04-18 13:04:46 MP3-WEB Maere-And_the_Universe_Keeps_Silent-WEB-2024-BLEEDiNG
2024-04-18 13:06:02 FLAC-WEB Clercq-You_Know_What_I_Mean-MBE184-16BIT-WEB-FLAC-2024-WAVED
2024-04-18 13:06:30 FLAC-WEB Pyramido-Shandi-(EJU348)-16BIT-WEB-FLAC-2024-PTC
2024-04-18 13:06:37 TV-HD-X264 Dit.Was.Het.Nieuws.S46E05.DUTCH.1080p.HDTV.x264-DTOD
2024-04-18 13:09:50 FLAC-WEB Koelle_and_Tim_Morrison-Otherside-(HTR084)-16BIT-WEB-FLAC-2024-PTC
2024-04-18 13:10:15 MP3-WEB Dvne-Voidkind-WEB-2024-BLEEDiNG
2024-04-18 13:11:56 MP3-WEB CultureKind-Signs_of_Life-(ATL092)-WEB-2024-PTC
2024-04-18 13:14:02 MP3-WEB Taylan_and_Gaston_Sosa-Nebula_EP-(FG614)-WEB-2024-PTC
2024-04-18 13:16:59 MP3-WEB Hybrasil-Luchar_EP-(WATB117)-WEB-2024-PTC
2024-04-18 13:17:16 MP3-WEB Korpituli-Pohjola-WEB-FI-2024-BLEEDiNG
2024-04-18 13:18:23 MP3-WEB Nonameleft-Alterra-(EXT088)-WEB-2024-PTC
2024-04-18 13:20:07 MP3-WEB VA-Traumatismo_29-TRMT29-WEB-2024-WAV
2024-04-18 13:20:19 TV-WEB-HD-X264 A.Gentleman.in.Moscow.S01E01.POLiSH.1080p.WEB.H264-CHOPiN
2024-04-18 13:20:35 MP3-WEB NORBAK-Sopro_EP-(TOKEN124D)-WEB-2024-PTC
2024-04-18 13:21:05 MP3-WEB In_Vain-Solemn-WEB-2024-BLEEDiNG
2024-04-18 13:21:20 TV-WEB-HD-X264 A.Gentleman.in.Moscow.S01E01.POLiSH.720p.WEB.H264-CHOPiN
2024-04-18 13:21:48 MP3-WEB Rad.Lez-Kraken-(ALULA234)-WEB-2024-PTC
2024-04-18 13:22:22 TV-WEB-HD-X264 A.Gentleman.in.Moscow.S01E02.POLiSH.1080p.WEB.H264-CHOPiN
2024-04-18 13:23:23 TV-WEB-HD-X264 A.Gentleman.in.Moscow.S01E02.POLiSH.720p.WEB.H264-CHOPiN
2024-04-18 13:23:51 MP3-WEB Kostya_Outta-Storm_Shine-(TRS114)-WEB-2024-PTC
2024-04-18 13:24:25 TV-WEB-HD-X264 A.Gentleman.in.Moscow.S01E03.POLiSH.1080p.WEB.H264-CHOPiN
2024-04-18 13:25:02 MP3-WEB BreakStyle_And_Samynator_-_Around_The_World_(Edit)-SINGLE-WEB-2024-UTNG
2024-04-18 13:25:10 MP3-WEB James_De_Torres-Ghost_in_the_Cell-(LEL060)-WEB-2024-PTC
2024-04-18 13:25:11 MP3-WEB Clockartz_-_Cosmic_Dance_(Edit)-SINGLE-WEB-2024-UTNG
2024-04-18 13:25:19 MP3-WEB Dark_Entities_-_Mother_Of_Sin_(Edit)-SINGLE-WEB-2024-UTNG
2024-04-18 13:25:26 TV-WEB-HD-X264 A.Gentleman.in.Moscow.S01E03.POLiSH.720p.WEB.H264-CHOPiN
2024-04-18 13:25:28 MP3-WEB High_Resistance_-_Dancing_On_My_Own_(Edit)-SINGLE-WEB-2024-UTNG
2024-04-18 13:25:37 MP3-WEB Jackro_-_SHOOTING_STARS_(Edit)-SINGLE-WEB-2024-UTNG
2024-04-18 13:25:45 MP3-WEB Parti_X_Rewilder_-_Lose_It_All_(Edit)-SINGLE-WEB-2024-UTNG
2024-04-18 13:25:53 MP3-WEB Qulex_And_Fyloh_-_Listen_Me_Now_(Edit)-SINGLE-WEB-2024-UTNG
2024-04-18 13:26:13 MP3-WEB Roll_Dann-Easy_To_Explain_EP-WU94D-WEB-2024-WAV
2024-04-18 13:26:27 MP3-WEB Ron_Flatter-Sherygerry-(SYNCBT79)-WEB-2024-PTC
2024-04-18 13:26:28 TV-WEB-HD-X264 Ojciec.Mateusz.S31E01.POLiSH.1080p.WEB.H264-CHOPiN
2024-04-18 13:27:35 MP3-WEB Atrae_Bilis-Aumicide-WEB-2024-BLEEDiNG
2024-04-18 13:28:28 MP3-WEB Andrea_Colli_Lanzi_-_Milleunesimo-SINGLE-WEB-IT-2023-UOVA
2024-04-18 13:28:45 MP3-WEB Andy_Power-Aeroscope-(DD270)-WEB-2024-PTC
2024-04-18 13:29:51 MP3-WEB Tech_Tones-Ascension-(HRBB025)-WEB-2024-PTC
2024-04-18 13:30:12 FLAC-WEB Roll_Dann-Easy_To_Explain_EP-WU94D-16BIT-WEB-FLAC-2024-WAVED
2024-04-18 13:31:00 MP3-WEB Sonoruggiero_Feat_David_Ice_-_Cabriolet-SINGLE-WEB-IT-2024-UOVA
2024-04-18 13:31:19 MP3-WEB ELECGROUND-Disconnected__Replicant-(MGN116DJ)-WEB-2024-PTC
2024-04-18 13:31:55 MP3-WEB Pavel_Petrov-Parallel-(SVT355)-WEB-2024-AFO
2024-04-18 13:32:00 MP3-WEB Kiki_Solvej-Thunder-(FOA159)-SINGLE-WEB-2024-AFO
2024-04-18 13:32:15 TV-WEB-HD-X264 AFC.Champions.League.2024.04.17.Al.Ain.Vs.Al.Hilal.720p.WEB.H264-B0UNCE
2024-04-18 13:32:18 MP3-WEB Ilona_Mitrecey_x_Jesse_Bloch_-_Un_monde_parfait_(Techno_Mix)-SINGLE-WEB-FR-2024-ZzZz
2024-04-18 13:32:36 MP3-WEB Ralf_Kobernuss-Distortion-(DESSERT029)-WEB-2024-PTC
2024-04-18 13:32:51 MP3-WEB Moullinex_and_GPU_Panic_ft_Joplyn-SO_SICK-(DT224)-SINGLE-WEB-2024-AFO
2024-04-18 13:33:00 MP3-WEB Mario_Biondi_Feat_Mario_Bros_-_E_Tu_Come_Stai-SINGLE-WEB-IT-2024-UOVA
2024-04-18 13:33:09 MP3-WEB Sancha-Just_One_More_Day-(OSO061)-WEB-2024-AFO
2024-04-18 13:33:26 MP3-WEB LEGATO_(UK)-Clockworks_EP-(NCR077)-WEB-2024-AFO
2024-04-18 13:33:40 MP3-WEB Sigmahz-Entrance-(UXE327)-WEB-2024-AFO
2024-04-18 13:34:00 MP3-WEB Hammer-Red_Alert-(GPM750)-WEB-2024-AFO
2024-04-18 13:34:32 MP3-WEB Ravi_Luchesi_and_Remusic-Eclipse-(IS041)-WEB-2024-AFO
2024-04-18 13:35:06 MP3-WEB Alex_Kaspersky_and_Vladimir_Bellow-Inner_Voice-(DDDUBS100)-WEB-2024-AFO
2024-04-18 13:35:16 MP3-WEB Josh_Vorster-Human_Technology-(EB127)-SINGLE-WEB-2024-AFO
2024-04-18 13:35:29 MP3-WEB Moritz_(UK)-Taka_Taka_EP-(REN24107)-WEB-2024-AFO
2024-04-18 13:35:36 MP3-WEB Hekseblad-Kaer_Morhen-WEB-2024-BLEEDiNG
2024-04-18 13:36:00 MP3-WEB Addie_Manson-Bad_Girls-(CV076)-WEB-2024-AFO
2024-04-18 13:36:26 MP3-WEB TimeKube-TAZUMAL-(KP196)-WEB-2024-AFO
2024-04-18 13:36:40 MP3-WEB Klint-Son_Heros-BCSDGTL013-WEB-2024-WAV
2024-04-18 13:37:04 MP3-WEB Federico_Fioretti_(IT)-Capricorn-(TEC260BP)-WEB-2024-PTC
2024-04-18 13:37:21 MP3-WEB Luis_Leon_and_Unseener-Concorde-(PROTON0549)-WEB-2024-AFO
2024-04-18 13:37:42 MP3-WEB Camiel_Villa-Abstract_Illusion-(CIN209)-WEB-2024-AFO
2024-04-18 13:38:14 MP3-WEB While_True-Vectors-(IBOGATECH188)-WEB-2024-AFO
2024-04-18 13:38:15 MP3-WEB Verikalpa-Tuomio-WEB-FI-2024-BLEEDiNG
2024-04-18 13:38:32 MP3-WEB Biltrix-Metanoia-(SH011)-SINGLE-WEB-2024-AFO
2024-04-18 13:38:48 MP3-WEB Glenn_Morrison_and_Jessy_Moss-So_What-(FFGR086)-WEB-2024-AFO
2024-04-18 13:38:55 FLAC-WEB Klint-Son_Heros-BCSDGTL013-16BIT-WEB-FLAC-2024-WAVED
2024-04-18 13:39:36 MP3-WEB Freestyle_Man-From_Dawn_To_Sunrise-(FMR016)-WEB-2024-AFO
2024-04-18 13:39:47 MP3-WEB Modular_Project-Its_Time-(EXP140)-WEB-2024-PTC
2024-04-18 13:39:57 MP3-WEB Stephen_K_Cal-Rage_Blackout__Osiris-(SB082)-WEB-2024-AFO
2024-04-18 13:39:59 MP3-WEB Everdub-Colors-(ALPHABLACK056)-WEB-2024-AFO
2024-04-18 13:40:16 MP3-WEB Vin_Kampala-After_Dusk-(LMKA234)-WEB-2024-AFO
2024-04-18 13:40:19 MP3-WEB Len_Faki-Fusion_Remixes_02_03-(FIGUREX41)-WEB-2024-AFO
2024-04-18 13:40:40 MP3-WEB Jackmaster-Dont_You_Want_My_Lovin-(CRM309)-WEB-2024-AFO
2024-04-18 13:41:01 MP3-WEB T.A.T.-Follow_Me-(FREQ2417)-WEB-2024-AFO
2024-04-18 13:41:05 TV-WEB-HD-X264 After.Midnight.2024.2024.04.17.Utkarsh.Ambudkar.1080p.WEB.h264-EDITH
2024-04-18 13:41:14 MP3-WEB Id_Project-Atilla-(KLT132)-WEB-2024-PTC
2024-04-18 13:41:16 MP3-WEB Raho-Acid_Controls_My_Mind-(OFF309)-WEB-2024-AFO
2024-04-18 13:41:18 MP3-WEB Lee_Coulson-You_Know_You_Can-(ESM586)-WEB-2024-AFO
2024-04-18 13:41:24 MP3-WEB Air_Project_and_Sun_Riser-The_Dancing_Asteroid-(LR0059)-SINGLE-WEB-2024-AFO
2024-04-18 13:41:35 MP3-WEB Raxon-Get_Together-(WRG066)-SINGLE-WEB-2024-AFO
2024-04-18 13:42:00 MP3-WEB Monic_(BR)_and_Elisa_Audi-La_Plata-(PRT094)-WEB-2024-AFO
2024-04-18 13:42:01 MP3-WEB Julia_Eliza-Radiate-(BT448)-SINGLE-WEB-2024-AFO
2024-04-18 13:42:20 MP3-WEB The_Real_Carter-Caldera-(TNV045)-WEB-2024-PTC
2024-04-18 13:42:48 MP3-WEB VA-Timeless_Vol_7_Energy_Surge-(P067)-WEB-2024-AFO
2024-04-18 13:43:10 MP3-WEB Casnik-Rainy_Days-(FA453)-WEB-2024-AFO
2024-04-18 13:44:07 SPORTS SPFL.2024.04.17.Dundee.Vs.Rangers.720p.WEB.H264-B0UNCE
2024-04-18 13:44:42 MP3-WEB IURII_and_SHAZZE_and_Ark_Nomads-Morph-(BF372)-WEB-2024-PTC
2024-04-18 13:44:45 MP3-WEB Falling_Echoes-The_Four_Passengers-EDITSELECT188D-WEB-2024-WAV
2024-04-18 13:44:52 FLAC-WEB Falling_Echoes-The_Four_Passengers-EDITSELECT188D-16BIT-WEB-FLAC-2024-WAVED
2024-04-18 13:45:44 MP3-WEB VA-Truesounds_Music_10th_Anniversary_VA-(TSMVA010)-WEB-2024-AFO
2024-04-18 13:45:53 MP3-WEB CENKK-Feel_It-(AUTOMATIK013)-WEB-2024-PTC
2024-04-18 13:45:57 MP3-WEB High_on_Fire-Cometh_the_Storm-WEB-2024-BLEEDiNG
2024-04-18 13:46:09 MP3-WEB Roum-Future-(MUKKE078)-SINGLE-WEB-2024-AFO
2024-04-18 13:50:25 MP3-WEB Vahag-Arctic_Echoes-(SQN0005)-WEB-2024-PTC
2024-04-18 13:52:34 MP3-WEB Rama_Mendez-The_Born__Back_Again-(UMR445)-WEB-2024-PTC
2024-04-18 13:53:59 MP3-WEB Tom_Pavicich-Olimpo-(AHD389)-WEB-2024-PTC
2024-04-18 13:54:08 BLURAY Jurassic.World.2015.RA.COMPLETE.BLURAY-REFRACTiON
2024-04-18 13:54:54 TV-WEB-X264 Survivor.Quebec.S02E17.FRENCH.WEB.H264-BAWLS
2024-04-18 13:55:04 TV-WEB-HD-X264 Survivor.Quebec.S02E17.FRENCH.720p.WEB.H264-BAWLS
2024-04-18 13:55:41 TV-WEB-HD-X264 Survivor.Quebec.S02E17.FRENCH.1080p.WEB.H264-BAWLS
2024-04-18 13:56:06 MP3-WEB Felix_E-Paradox_Twin-(LANG022)-WEB-2024-PTC
2024-04-18 13:56:13 BLURAY Jurassic.Park.III.2001.RA.COMPLETE.BLURAY-REFRACTiON
2024-04-18 13:57:13 MP3-WEB Alex_Kosh-I_Told_You-(SDM148)-WEB-2024-PTC
2024-04-18 13:58:01 EBOOK Barbara.Kingsolver.-.Demon.Copperhead.A.Novel.2022.RETAIL.EPUB.eBook-CTO
2024-04-18 13:58:18 EBOOK Barbara.Kingsolver.-.How.To.Fly.In.Ten.Thousand.Easy.Lessons.Poetry.2020.RETAIL.EPUB.eBook-CTO
2024-04-18 13:58:40 EBOOK Barbara.Kingsolver.-.Pigs.In.Heaven.2011.RETAIL.EPUB.eBook-CTO
2024-04-18 13:58:51 EBOOK Barbara.Kingsolver.-.The.Lacuna.A.Novel.2009.RETAIL.EPUB.eBook-CTO
2024-04-18 13:59:06 EBOOK Barbara.Kingsolver.-.Unsheltered.A.Novel.2019.RETAIL.EPUB.eBook-CTO
2024-04-18 13:59:25 EBOOK Joanne.Ryan.-.Keep.Your.Friends.Close.2024.RETAIL.EPUB.eBook-CTO
2024-04-18 13:59:37 EBOOK John.Stansifer.-.No.Bullet.Got.Me.Yet.The.Relentless.Faith.Of.Father.Kapaun.2024.RETAIL.EPUB.eBook-CTO
2024-04-18 13:59:45 MP3-WEB Panthera-Hustle-(MELODIZE014)-WEB-2024-PTC
2024-04-18 13:59:49 EBOOK Jonathan.Kellerman.-.The.Ghost.Orchid.Alex.Delaware.39.2024.RETAIL.EPUB.eBook-CTO
2024-04-18 14:00:00 EBOOK Lydia.Millet.-.Dinosaurs.A.Novel.2022.RETAIL.EPUB.eBook-CTO
2024-04-18 14:00:13 EBOOK Lydia.Millet.-.Fight.No.More.Stories.2018.RETAIL.EPUB.eBook-CTO
2024-04-18 14:00:26 EBOOK Lydia.Millet.-.Ghost.Lights.A.Novel.2011.RETAIL.EPUB.eBook-CTO
2024-04-18 14:00:37 EBOOK Lydia.Millet.-.Love.In.Infant.Monkeys.Stories.2009.RETAIL.EPUB.eBook-CTO
2024-04-18 14:00:39 MP3-WEB bbymutha-sleep_paralysis-WEB-2024-ESG
2024-04-18 14:00:41 FLAC-WEB bbymutha-sleep_paralysis-16BIT-WEBFLAC-2024-ESGFLAC
2024-04-18 14:00:57 EBOOK Lydia.Millet.-.Mermaids.In.Paradise.A.Novel.2014.RETAIL.EPUB.eBook-CTO
2024-04-18 14:01:02 FLAC-WEB Pavel_Petrov-Parallel-(SVT355)-16BIT-WEB-FLAC-2024-AFO
2024-04-18 14:01:09 EBOOK Lydia.Millet.-.My.Happy.Life.A.Novel.2009.RETAIL.EPUB.eBook-CTO
2024-04-18 14:01:18 MP3-WEB Chris_Goa-Welcome_to_Shambhala-(LMP174)-WEB-2024-AFO
2024-04-18 14:01:29 EBOOK Lydia.Millet.-.Oh.Pure.And.Radiant.Heart.2005.RETAIL.EPUB.eBook-CTO
2024-04-18 14:01:33 FLAC-WEB Air_Project_and_Sun_Riser-The_Dancing_Asteroid-(LR0059)-SINGLE-16BIT-WEB-FLAC-2024-AFO
2024-04-18 14:01:39 FLAC-WEB PASINDU-Zahra-(OOAK264)-16BIT-WEB-FLAC-2024-AFO
2024-04-18 14:01:58 EBOOK Lydia.Millet.-.Omnivores.A.Novel.2018.RETAIL.EPUB.eBook-CTO
2024-04-18 14:01:59 FLAC-WEB Hybrasil-Luchar_EP-(WATB117)-16BIT-WEB-FLAC-2024-AFO
2024-04-18 14:02:08 MP3-WEB PASINDU-Zahra-(OOAK264)-WEB-2024-AFO
2024-04-18 14:02:09 EBOOK Lydia.Millet.-.Sweet.Lamb.Of.Heaven.A.Novel.2016.RETAIL.EPUB.eBook-CTO
2024-04-18 14:02:18 MP3-WEB MiliPrezz-Mia-(UMR446)-SINGLE-WEB-2024-AFO
2024-04-18 14:02:31 MP3-WEB Coastlines-Echoes_Through_My_Skin-(SEK209)-WEB-2024-AFO
2024-04-18 14:02:31 EBOOK Opal.Wei.-.Wild.Life.2024.RETAIL.EPUB.eBook-CTO
2024-04-18 14:02:46 MP3-WEB Arba_Han_and_DJ_Faye-No_Limit-(UMC098)-SINGLE-WEB-2024-AFO
2024-04-18 14:03:01 MP3-WEB Gustavo_Bassani-Basement_Tools-TRUNCATEDGTL33-WEB-2024-WAV
2024-04-18 14:03:17 FLAC-WEB The_Boy_The_Wolf-Kloser-(HTR076)-24BIT-WEB-FLAC-2024-AFO
2024-04-18 14:03:46 FLAC-WEB CultureKind-Signs_of_Life-(ATL092)-16BIT-WEB-FLAC-2024-AFO
2024-04-18 14:03:47 TV-WEB-X264 Indefendable.S02E115.FRENCH.WEB.x264-BAWLS
2024-04-18 14:03:54 MP3-WEB Ma.Bra._-_Angel_eyes-(3617385707775)-SINGLE-WEB-2024-ZzZz
2024-04-18 14:03:57 TV-WEB-HD-X264 Indefendable.S02E115.FRENCH.720p.WEB.x264-BAWLS
2024-04-18 14:04:00 MP3-WEB Vinnie_Ace-Fear_EP-(ZEHN0095DJ)-WEB-2024-AFO
2024-04-18 14:04:05 MP3-WEB Shinso-Space_Odyssey-(UMR447)-SINGLE-WEB-2024-AFO
2024-04-18 14:04:11 TV-WEB-HD-X264 Indefendable.S02E115.FRENCH.1080p.WEB.x264-BAWLS
2024-04-18 14:04:21 FLAC-WEB Michael_Ritter_and_Chris_Zippel-Shut_Off_The_Lights-(SVR154DJ)-16BIT-WEB-FLAC-2024-AFO
2024-04-18 14:04:38 MP3-WEB Stadiumx_and_Taylr_Renee-Howl_At_The_Moon_-_(Stadiumx_Rework)-(PR022E)-WEB-2024-AFO
2024-04-18 14:04:41 MP3-WEB Vinnie_Ace-Fear_EP-(ZEHN0095DJ)-WEB-2024-PTC
2024-04-18 14:04:59 MP3-WEB The_Boy_The_Wolf-Kloser-(HTR076)-WEB-2024-AFO
2024-04-18 14:05:20 FLAC-WEB Ravi_Luchesi_and_Remusic-Eclipse-(IS041)-16BIT-WEB-FLAC-2024-AFO
2024-04-18 14:05:44 FLAC-WEB DJ_SIRIN-Battle-(LOY081)-16BIT-WEB-FLAC-2024-AFO
2024-04-18 14:05:51 FLAC-WEB Hammer-Red_Alert-(GPM750)-16BIT-WEB-FLAC-2024-AFO
2024-04-18 14:06:11 MP3-WEB Michael_Ritter_and_Chris_Zippel-Shut_Off_The_Lights-(SVR154DJ)-WEB-2024-AFO
2024-04-18 14:07:07 MP3-WEB VA-Purified_Fragments_XX-(PF0148BP)-WEB-2024-AFO
2024-04-18 14:07:09 FLAC-WEB Gustavo_Bassani-Basement_Tools-TRUNCATEDGTL33-16BIT-WEB-FLAC-2024-WAVED
2024-04-18 14:07:15 MP3-WEB Joseph_Nakouzi-Just_a_Dream-(CR248)-WEB-2024-AFO
2024-04-18 14:07:35 MP3-WEB Marc_Korn_x_Semitoo_x_Sonja_-_Toy_Gun-(4062851482707)-WEB-2024-ZzZz
2024-04-18 14:07:46 FLAC-WEB VA-Purified_Fragments_XX-(PF0148BP)-24BIT-WEB-FLAC-2024-AFO
2024-04-18 14:07:52 MP3-WEB Bruce_Springsteen-Best_Of_Bruce_Springsteen-Expanded_Edition-WEB-2024-MARR
2024-04-18 14:08:57 MP3-WEB I.Am-Falling_to_Pieces-(ASTR045)-WEB-2024-PTC
2024-04-18 14:08:57 FLAC-WEB Joseph_Nakouzi-Just_a_Dream-(CR248)-16BIT-WEB-FLAC-2024-AFO
2024-04-18 14:09:30 FLAC-WEB ZIKA_(OFC)_and_Ancient_Soul-Nation_Gajaga-(BLRM141)-SINGLE-16BIT-WEB-FLAC-2024-AFO
2024-04-18 14:09:37 FLAC-WEB Josh_Vorster-Human_Technology-(EB127)-SINGLE-16BIT-WEB-FLAC-2024-AFO
2024-04-18 14:09:45 MP3-WEB ZIKA_(OFC)_and_Ancient_Soul-Nation_Gajaga-(BLRM141)-SINGLE-WEB-2024-AFO
2024-04-18 14:10:06 MP3-WEB DJ_SIRIN-Battle-(LOY081)-WEB-2024-AFO
2024-04-18 14:10:27 FLAC-WEB Tech_Tones-Ascension-(HRBB025)-16BIT-WEB-FLAC-2024-AFO
2024-04-18 14:10:52 TV-WEB-HD-X264 Crime.Nation.S01E08.1080p.WEB.h264-EDITH
2024-04-18 14:10:58 FLAC-WEB Ron_Flatter-Sherygerry-(SYNCBT79)-16BIT-WEB-FLAC-2024-AFO
2024-04-18 14:11:25 FLAC-WEB CENKK-Feel_It-(AUTOMATIK013)-16BIT-WEB-FLAC-2024-AFO
2024-04-18 14:11:45 MP3-WEB Shadow_Mist-Primordials-(DDB186)-WEB-2024-AFO
2024-04-18 14:11:49 MP3-WEB Pammin-Strobe-(MOVD0284)-WEB-2024-PTC
2024-04-18 14:12:02 MP3-WEB Warung-All_We_Have_Is_Time__Singularity-(ENCOLOR498E)-WEB-2024-AFO
2024-04-18 14:12:29 FLAC-WEB Shadow_Mist-Primordials-(DDB186)-16BIT-WEB-FLAC-2024-AFO
2024-04-18 14:12:30 FLAC-WEB PWCCA-Hechizo-NST182-24BIT-WEB-FLAC-2024-WAVED
2024-04-18 14:13:13 MP3-WEB Rudra-Way_Forward-(MOVLTD037)-WEB-2024-PTC
2024-04-18 14:13:17 MP3-WEB Hoova-Elements-(INB1DIGI074)-WEB-2024-AFO
2024-04-18 14:13:33 FLAC-WEB Kiki_Solvej-Thunder-(FOA159)-SINGLE-16BIT-WEB-FLAC-2024-AFO
2024-04-18 14:13:50 MP3-WEB Du_more_and_Clay_van_Dijk-Teuge-(MLR010)-WEB-2024-AFO
2024-04-18 14:14:12 FLAC-WEB Cheema_(IT)-Enjoy_My_Sensations-(CNS125)-24BIT-WEB-FLAC-2024-AFO
2024-04-18 14:14:27 MP3-WEB DualXess_and_Denise_Repolusk_-_Lass_Mich_Bitte_Nicht_los-(BP9008798611829)-WEB-DE-2024-ZzZz
2024-04-18 14:14:33 MP3-WEB Archers_and_Noah_Shah-Sympathy-(AVANTI6650)-WEB-2024-AFO
2024-04-18 14:14:47 MP3-WEB NOFX-Half_Album-EP-WEB-2024-ENRiCH
2024-04-18 14:14:54 MP3-WEB Melvins-Tarantula_Heart-WEB-2024-ENViED
2024-04-18 14:14:56 MP3-WEB Boris_Brejcha-Level_One-(FSLP007)-WEB-2024-AFO
2024-04-18 14:15:05 TV-HD-X264 Foreign.Correspondent.S33E08.Sumo.Sisters.Japan.1080p.HDTV.H264-CBFM
2024-04-18 14:15:09 MP3-WEB LERM_(HU)-In_Reverie-(AB002)-WEB-2024-PTC
2024-04-18 14:15:28 MP3-WEB Mark_Youssef_and_Novikoff-Focus-(MR034)-SINGLE-WEB-2024-AFO
2024-04-18 14:15:29 FLAC-WEB Norbak-Sopro_EP-TOKEN124D-24BIT-WEB-FLAC-2024-WAVED
2024-04-18 14:15:30 FLAC-WEB Moullinex_and_GPU_Panic_ft_Joplyn-SO_SICK-(DT224)-SINGLE-16BIT-WEB-FLAC-2024-AFO
2024-04-18 14:15:58 MP3-WEB Amir_Telem_and_Eretna-Hare_Murari-(ERN002)-WEB-2024-AFO
2024-04-18 14:16:12 MP3-WEB Soberless-Small_Valley-(SOULART049)-WEB-2024-AFO
2024-04-18 14:16:17 MP3-WEB Mozzy-Children_Of_The_Slums-WEB-2024-UVU
2024-04-18 14:16:34 FLAC-WEB LEGATO_(UK)-Clockworks_EP-(NCR077)-16BIT-WEB-FLAC-2024-AFO
2024-04-18 14:16:39 FLAC-WEB Sigmahz-Entrance-(UXE327)-16BIT-WEB-FLAC-2024-AFO
2024-04-18 14:16:42 MP3-WEB Whoriskey-Olympia-(OUR051B)-WEB-2024-PTC
2024-04-18 14:17:02 MP3-WEB Pysh_and_Bondar_ft_Lazarusman-Say_Yes_2024-(ATMEP080)-WEB-2024-AFO
2024-04-18 14:17:18 MP3-WEB Blami-Tokyo_Express_(Dino_Lenny_Rework)-(FHR036)-SINGLE-WEB-2024-AFO
2024-04-18 14:17:35 MP3-WEB Siskin-Are_We_Dreaming_(Paul_Sawyer_Remix)-(BH14630)-WEB-2024-AFO
2024-04-18 14:17:37 MP3-WEB AxeLara-Tocando_La_Luna-(PHA002)-WEB-2024-AFO
2024-04-18 14:17:52 MP3-WEB Allan_Pillai-Olympian_48-OLY048-WEB-2024-WAV
2024-04-18 14:17:53 MP3-WEB Ozgur_Can-Natural_High_Never_Spring_Remix-(OHR129)-WEB-2024-AFO
2024-04-18 14:18:00 MP3-WEB Julian_Meinke-Sanctuum-(BLRMBLACK092)-WEB-2024-PTC
2024-04-18 14:18:07 TV-WEB-X264 The.Morning.Show.S01E01.Noch.ist.es.nicht.dunkel.aber.es.daemmert.schon.German.DL.Webrip.x264-TVARCHiV
2024-04-18 14:18:11 MP3-WEB Toque-Xtro-(GFR162)-WEB-2024-AFO
2024-04-18 14:18:52 FLAC-WEB Axel_Karakasis-Good_Move_EP-(SUARA512)-16BIT-WEB-FLAC-2024-AFO
2024-04-18 14:18:55 MP3-WEB Dario_Dea-The_Rave_Is_Calling_You-(ES021)-WEB-2024-AFO
2024-04-18 14:19:16 MP3-WEB Julian_Wassermann-Revelation-(HHBER085)-WEB-2024-PTC
2024-04-18 14:19:21 MP3-WEB Blasterjaxx_-_JUMP_and_RAVE-(5021732272959)-SINGLE-WEB-2024-ZzZz
2024-04-18 14:19:30 FLAC-WEB I.AM-Falling_to_Pieces-(ASTR045)-16BIT-WEB-FLAC-2024-AFO
2024-04-18 14:19:47 MP3-WEB Milkwish-Dynamite-(MM15550)-WEB-2024-AFO
2024-04-18 14:19:51 MP3-WEB Natasha_Wax_and_Ira_Ange_and_Sony_Vibe-Lute_Remixes-(16OM073)-WEB-2024-AFO
2024-04-18 14:20:04 MP3-WEB Daspa-Perspective-(EB128)-SINGLE-WEB-2024-AFO
2024-04-18 14:20:11 FLAC-WEB Pyramido-Shandi-(EJU348)-16BIT-WEB-FLAC-2024-AFO
2024-04-18 14:20:23 MP3-WEB Gangrene-Heads_I_Win_Tails_You_Lose-WEB-2024-UVU
2024-04-18 14:20:34 MP3-WEB LIL_C-Im_Back-WEB-2024-ESG
2024-04-18 14:20:39 MP3-WEB Vizel-LETS_DANCE-(SRBT123)-WEB-2024-PTC
2024-04-18 14:20:44 FLAC-WEB LIL_C-Im_Back-16BIT-WEBFLAC-2024-ESGFLAC
2024-04-18 14:20:47 FLAC-WEB ELECGROUND-Disconnected__Replicant-(MGN116DJ)-16BIT-WEB-FLAC-2024-AFO
2024-04-18 14:21:12 MP3-WEB Crocy_x_LiV.-Never_Stop_Dancing_(Remixes)-(SP018)-WEB-2024-AFO
2024-04-18 14:21:16 FLAC-WEB Dion_Paola_(AUS)-Nimbus_Dream-(BC2464)-16BIT-WEB-FLAC-2024-AFO
2024-04-18 14:21:18 MP3-WEB Dayseeker-Replica_(Acoustic)-WEB-2024-ENRiCH
2024-04-18 14:21:30 MP3-WEB The_Ghost_Inside-Searching_for_Solace-WEB-2024-ENRiCH
2024-04-18 14:21:43 MP3-WEB Axel_Karakasis-Good_Move_EP-(SUARA512)-WEB-2024-AFO
2024-04-18 14:21:59 MP3-WEB Zy_Khan_and_EKIS_EKIS-Make_It_Better-(OR012)-SINGLE-WEB-2024-AFO
2024-04-18 14:22:14 BLURAY Anatomy.of.a.Fall.2023.RB.COMPLETE.BLURAY-REFRACTiON
2024-04-18 14:22:17 MP3-WEB Ad_Vitam-Quite_Simply-(CKR035)-WEB-2024-AFO
2024-04-18 14:22:36 MP3-WEB Darius_and_Finlay_x_Yumpo_-_Tropicali_2k24-SINGLE-WEB-2024-ZzZz
2024-04-18 14:23:09 MP3-WEB Andrey_EXX_and_TuraniQa-Lambada-(EXX299)-WEB-2024-PTC
2024-04-18 14:23:14 FLAC-WEB While_True-Vectors-(IBOGATECH188)-24BIT-WEB-FLAC-2024-AFO
2024-04-18 14:23:21 FLAC-WEB Natasha_Wax_and_Ira_Ange_and_Sony_Vibe-Lute_Remixes-(16OM073)-16BIT-WEB-FLAC-2024-AFO
2024-04-18 14:23:39 MP3-WEB Kid_Congo_and_The_Pink_Monkey_Birds-That_Delicious_Vice-WEB-2024-ENViED
2024-04-18 14:23:53 MP3-WEB Kastro-The_Day_The_Rose_Bloomed-WEB-2024-ESG
2024-04-18 14:23:58 FLAC-WEB Kastro-The_Day_The_Rose_Bloomed-16BIT-WEBFLAC-2024-ESGFLAC
2024-04-18 14:24:01 TV-WEB-HD-X264 The.Amazing.Race.S36E06.1080p.WEB.h264-EDITH
2024-04-18 14:24:12 FLAC-WEB Julian_Meinke-Sanctuum-(BLRMBLACK092)-16BIT-WEB-FLAC-2024-AFO
2024-04-18 14:24:40 FLAC-WEB Len_Faki-Fusion_Remixes_02_03-(FIGUREX41)-16BIT-WEB-FLAC-2024-AFO
2024-04-18 14:24:44 MP3-WEB Big_C-War_Is_Art-WEB-2024-ESG
2024-04-18 14:24:51 FLAC-WEB Big_C-War_Is_Art-16BIT-WEBFLAC-2024-ESGFLAC
2024-04-18 14:24:56 FLAC-WEB Allan_Pillai-Olympian_48-OLY048-16BIT-WEB-FLAC-2024-WAVED
2024-04-18 14:25:00 ANiME Yamada-kun.And.The.Seven.Witches.S01E01.1080p.WEB.H264-SKYANiME
2024-04-18 14:25:00 FLAC-WEB Matter_and_Eric_Lune-Starlight__Memory_Burn__EyeAndYou-(MWH018)-16BIT-WEB-FLAC-2024-AFO
2024-04-18 14:25:00 MP3-WEB Paul_Weekend-Sahana-(UMC097)-SINGLE-WEB-2024-AFO
2024-04-18 14:25:19 MP3-WEB Hus_Kingpin-In_A_State_Of_Nirvana-WEB-2024-UVU
2024-04-18 14:25:27 MP3-WEB Selderv-New_Moon-(PFR263)-WEB-2024-AFO
2024-04-18 14:25:33 MP3-WEB Ajaw-Icaro-(SAA045)-WEB-2024-PTC
2024-04-18 14:25:53 MP3-WEB Lil_Phat-Sickest_N_Da_City-WEB-2024-ESG
2024-04-18 14:26:00 FLAC-WEB Julian_Wassermann-Revelation-(HHBER085)-16BIT-WEB-FLAC-2024-AFO
2024-04-18 14:26:05 FLAC-WEB Lil_Phat-Sickest_N_Da_City-16BIT-WEBFLAC-2024-ESGFLAC
2024-04-18 14:26:14 MP3-WEB Kapuzen_-_Dropping_That_Beat-SINGLE-WEB-2024-ZzZz
2024-04-18 14:26:16 MP3-WEB Matter_and_Eric_Lune-Starlight__Memory_Burn__EyeAndYou-(MWH018)-WEB-2024-AFO
2024-04-18 14:26:17 MP3-WEB Casnik_and_Cristian_Caro-Interconnected_Groove-(SYMM136)-WEB-2024-AFO
2024-04-18 14:26:46 FLAC-WEB Agustin_Delsoglio-Rampage-(BCSA0634)-16BIT-WEB-FLAC-2024-AFO
2024-04-18 14:26:48 MP3-WEB Max_Blade-Just_Be-(BALKAN0793)-WEB-2024-AFO
2024-04-18 14:26:53 MP3-WEB Mata-Bedrod-(JOS039)-WEB-2024-PTC
2024-04-18 14:27:15 MP3-WEB Funkagenda_and_Christian_Burns-Clear_Skies-(MM15570)-WEB-2024-AFO
2024-04-18 14:27:17 MP3-WEB Agustin_Delsoglio-Rampage-(BCSA0634)-WEB-2024-AFO
2024-04-18 14:27:25 MP3-WEB Lil_Ken-Rookie_Of_The_Year-WEB-2024-ESG
2024-04-18 14:27:29 MP3-WEB Mind_Conspiracy-Twisted_Circles-(EMH050)-WEB-2024-AFO
2024-04-18 14:27:39 FLAC-WEB Lil_Ken-Rookie_Of_The_Year-16BIT-WEBFLAC-2024-ESGFLAC
2024-04-18 14:27:42 MP3-WEB Bert_Voorman-Connection-(INC259)-WEB-2024-AFO
2024-04-18 14:27:44 FLAC-WEB Pammin-Strobe-(MOVD0284)-16BIT-WEB-FLAC-2024-AFO
2024-04-18 14:28:00 MP3-WEB D.A.Davidov-Kizomba-(FIGURA426)-SINGLE-WEB-2024-AFO
2024-04-18 14:28:11 FLAC-WEB Rudra-Way_Forward-(MOVLTD037)-16BIT-WEB-FLAC-2024-AFO
2024-04-18 14:28:43 FLAC-WEB Raho-Acid_Controls_My_Mind-(OFF309)-16BIT-WEB-FLAC-2024-AFO
2024-04-18 14:28:46 MP3-WEB Ryan_Lucian_and_Jas.-Heart_Starts_Beating-(ENHANCED611E)-WEB-2024-AFO
2024-04-18 14:28:59 MP3-WEB Inache_and_KING_A.K.A_SAMPLEKING-I_Feel-(MSD299)-SINGLE-WEB-2024-AFO
2024-04-18 14:29:00 MP3-WEB Konstantin_Maria_ft_8hz-Sun_On_My_Skin-(BLMA049)-SINGLE-WEB-2024-AFO
2024-04-18 14:29:09 ANiME Yamada-kun.And.The.Seven.Witches.S01E01.720p.WEB.H264-SKYANiME
2024-04-18 14:29:10 FLAC-WEB D.A.Davidov-Kizomba-(FIGURA426)-SINGLE-24BIT-WEB-FLAC-2024-AFO
2024-04-18 14:29:17 MP3-WEB Alemao_and_Rems_Martinez-Acid_Boys-(ESC075)-WEB-2024-PTC
2024-04-18 14:29:33 MP3-WEB Dory_Badawi-Euphoric_Echoes-(WHS153)-WEB-2024-AFO
2024-04-18 14:29:37 MP3-WEB Tre_Savage-I_AINT_HAVE_NOTHING_BUT_A_DREAM-WEB-2024-ESG
2024-04-18 14:29:39 FLAC-WEB Tre_Savage-I_AINT_HAVE_NOTHING_BUT_A_DREAM-16BIT-WEBFLAC-2024-ESGFLAC
2024-04-18 14:29:47 MP3-WEB Selim_Sivade-Give_a_Fuck-(AZZ71)-WEB-2024-AFO
2024-04-18 14:30:00 FLAC-WEB Formula_None-Tokyo_on_Acid-(IBOGADIGITAL896)-24BIT-WEB-FLAC-2024-AFO
2024-04-18 14:30:00 FLAC-WEB Monic_(BR)_and_Elisa_Audi-La_Plata-(PRT094)-16BIT-WEB-FLAC-2024-AFO
2024-04-18 14:30:00 MP3-WEB Jelly_For_The_Babies_and_Gav_Easby_ft_Phonic_Youth-Back_to_You-(INU063)-WEB-2024-AFO
2024-04-18 14:30:00 MP3-WEB Somelee-Kindness_Is_No_Longer_Appreciated-(DNSOTF079)-WEB-2024-PTC
2024-04-18 14:30:00 FLAC-WEB Sancha-Just_One_More_Day-(OSO061)-16BIT-WEB-FLAC-2024-AFO
2024-04-18 14:30:00 FLAC-WEB Soul_Synth-Days_You_Remember-(ALT099)-16BIT-WEB-FLAC-2024-AFO
2024-04-18 14:31:00 MP3-WEB Jack_Wins_-_Us_(What_About)_(SQWAD_Remix)-SINGLE-WEB-2024-ZzZz
2024-04-18 14:31:33 FLAC-WEB Rad.Lez-Kraken-(ALULA234)-16BIT-WEB-FLAC-2024-AFO
2024-04-18 14:31:51 MP3-WEB Soul_Synth-Days_You_Remember-(ALT099)-WEB-2024-AFO
2024-04-18 14:32:00 FLAC-WEB Tongue_and_Groove-Infinite_Possibilities-(ALPAK106)-16BIT-WEB-FLAC-2024-AFO
2024-04-18 14:32:14 FLAC-WEB Selderv-New_Moon-(PFR263)-24BIT-WEB-FLAC-2024-AFO
2024-04-18 14:32:23 FLAC-WEB Mozzy-CHILDREN_OF_THE_SLUMS-16BIT-WEBFLAC-2024-ESGFLAC
2024-04-18 14:32:25 MP3-WEB Cloud_Nothings-Final_Summer-WEB-2024-ENRiCH
2024-04-18 14:32:34 MP3-WEB HNGT-Dimensional-(ODS005)-SINGLE-WEB-2024-AFO
2024-04-18 14:32:37 MP3-WEB For_Heads_Down-For_Heads_Down-WEB-2024-ENRiCH
2024-04-18 14:32:41 MP3-WEB Oisel-Collage-HYSEP52-WEB-2024-WAV
2024-04-18 14:32:51 MP3-WEB Lightworker-How_The_Beautiful_Decay-WEB-2024-ENRiCH
2024-04-18 14:32:56 MP3-WEB Landhouse_and_Sima_Aava_and_Cedric_Scheibel-Butterfly-(AMSEL364)-SINGLE-WEB-2024-AFO
2024-04-18 14:33:02 MP3-WEB Formula_None-Tokyo_on_Acid-(IBOGADIGITAL896)-WEB-2024-AFO
2024-04-18 14:33:12 MP3-WEB SeeYouSpaceCowboy-Coup_de_Grace-WEB-2024-ENRiCH
2024-04-18 14:33:29 MP3-WEB unpeople-unpeople-EP-WEB-2024-ENRiCH
2024-04-18 14:33:30 FLAC-WEB Nihil_Young_and_James_De_Torres-Moth_to_a_Flame-(HRB085)-16BIT-WEB-FLAC-2024-AFO
2024-04-18 14:33:31 MP3-WEB Sue_Lewig-Sol_EP-(BPX035)-WEB-2024-PTC
2024-04-18 14:33:41 FLAC-WEB Alacran_del_Amor-Dark_Waves-(NEIN2416)-16BIT-WEB-FLAC-2024-AFO
2024-04-18 14:33:43 ANiME Yamada-kun.And.The.Seven.Witches.S01E02.1080p.WEB.H264-SKYANiME
2024-04-18 14:34:00 MP3-WEB Pouvoir_Magique_and_Anis_Hachemi_and_De_Noko-Mosoto-(MBR586)-WEB-2024-AFO
2024-04-18 14:34:07 FLAC-WEB Moritz_(UK)-Taka_Taka_EP-(REN24107)-16BIT-WEB-FLAC-2024-AFO
2024-04-18 14:34:32 FLAC-WEB Everdub-Colors-(ALPHABLACK056)-16BIT-WEB-FLAC-2024-AFO
2024-04-18 14:34:43 FLAC-WEB Ralf_Kobernuss-Distortion-(DESSERT029)-16BIT-WEB-FLAC-2024-AFO
2024-04-18 14:34:58 FLAC-WEB Pouvoir_Magique_and_Anis_Hachemi_and_De_Noko-Mosoto-(MBR586)-16BIT-WEB-FLAC-2024-AFO
2024-04-18 14:34:58 MP3-WEB Jerome_x_89ers_x_Marc_Et_Claude_-_I_Need_Your_Lovin_(Like_The_Sunshine)-(9342977265091)-SINGLE-WEB-2024-ZzZz
2024-04-18 14:35:00 MP3-WEB New_Jackson-Oops..._Pop-(PERMVAC316-1)-WEB-2024-AFO
2024-04-18 14:35:14 FLAC-WEB Alexandra_Savvidi_and_Techno_Phobia-Hug_Me_Harder-(HRSH041)-SINGLE-16BIT-WEB-FLAC-2024-AFO
2024-04-18 14:35:19 MP3-WEB Tongue_and_Groove-Infinite_Possiblities-(ALPAK106)-WEB-2024-PTC
2024-04-18 14:35:30 FLAC-WEB SHAZZE_and_Ark_Nomads_and_IURII-Morph-(BF372)-24BIT-WEB-FLAC-2024-AFO
2024-04-18 14:35:46 MP3-WEB Apollo-Living_For_The_Moment-(FS154)-WEB-2024-MARiBOR
2024-04-18 14:36:00 MP3-WEB Enlight-Machine-(PRFBL130)-WEB-2024-AFO
2024-04-18 14:36:20 MP3-WEB Tongue_and_Groove-Infinite_Possibilities-(ALPAK106)-WEB-2024-AFO
2024-04-18 14:36:33 ANiME Yamada-kun.And.The.Seven.Witches.S01E02.720p.WEB.H264-SKYANiME
2024-04-18 14:36:35 MP3-WEB GFG_80-Blind_Flight-(EDR317)-WEB-2024-AFO
2024-04-18 14:36:38 TV-WEB-HD-X264 De.Volksjury.S01E03.FLEMISH.1080p.WEB.h264-WESTVLETEREN
2024-04-18 14:36:40 FLAC-WEB Andy_Power-Aeroscope-(DD270)-16BIT-WEB-FLAC-2024-AFO
2024-04-18 14:36:51 XXX-HD PenthouseGold.24.04.18.Gianna.Grey.XXX.1080p.MP4-WRB
2024-04-18 14:37:00 FLAC-WEB James_De_Torres-Ghost_in_the_Cell-(LEL060)-16BIT-WEB-FLAC-2024-AFO
2024-04-18 14:37:14 FLAC-WEB Addie_Manson-Bad_Girls-(CV076)-16BIT-WEB-FLAC-2024-AFO
2024-04-18 14:37:20 MP3-WEB Biorc-Awkward_Situation_EP-(NRDR168)-WEB-2024-PTC
2024-04-18 14:37:39 MP3-WEB Bless_Picasso-Rillest_In_The_Room-WEB-2024-UVU
2024-04-18 14:37:42 MP3-WEB A_Certain_Ratio-It_All_Comes_Down_to_This-WEB-2024-ENRiCH
2024-04-18 14:37:43 MP3-WEB Alacran_del_Amor-Dark_Waves-(NEIN2416)-WEB-2024-AFO
2024-04-18 14:38:08 FLAC-WEB Camiel_Villa-Abstract_Illusion-(CIN209)-16BIT-WEB-FLAC-2024-AFO
2024-04-18 14:38:21 X265-HD Big.Hero.6.2014.FiNNiSH.DV.2160p.WEB.H265-TOOSA
2024-04-18 14:38:34 FLAC-WEB Taylan_and_Gaston_Sosa-Nebula_EP-(FG614)-16BIT-WEB-FLAC-2024-AFO
2024-04-18 14:38:38 FLAC-WEB New_Jackson-Oops..._Pop-(PERMVAC316-1)-16BIT-WEB-FLAC-2024-AFO
2024-04-18 14:38:40 MP3-WEB The_Rares-Amphibius-(TRAPEZ267)-WEB-2024-PTC
2024-04-18 14:38:46 XXX-HD VivThomas.24.04.18.Lily.Blossom.And.Gia.Tvoricceli.Blossoming.Heat.XXX.1080p.MP4-WRB
2024-04-18 14:38:54 MP3-WEB Im_Mady-Freedom_EP-(NM034)-WEB-2024-AFO
2024-04-18 14:38:56 MP3-WEB Daho_and_Two_Are_-_Ataraxia-SINGLE-WEB-2024-ZzZz
2024-04-18 14:39:05 FLAC-WEB Dvne-Voidkind-16BIT-WEB-FLAC-2024-ENTiTLED
2024-04-18 14:39:10 MP3-WEB UB40-UB45-WEB-2024-PaB
2024-04-18 14:39:16 FLAC-WEB Im_Mady-Freedom_EP-(NM034)-16BIT-WEB-FLAC-2024-AFO
2024-04-18 14:40:03 FLAC-WEB A_Certain_Ratio-It_All_Comes_Down_to_This-16BIT-WEB-FLAC-2024-ENRiCH
2024-04-18 14:40:08 X265-HD Big.Hero.6.2014.FiNNiSH.HDR.2160p.WEB.H265-TOOSA
2024-04-18 14:41:08 ANiME Yamada-kun.And.The.Seven.Witches.S01E03.1080p.WEB.H264-SKYANiME
2024-04-18 14:41:24 MP3-WEB DP-6-Dive-(DR262)-WEB-2024-AFO
2024-04-18 14:41:42 FLAC-WEB DP-6-Dive-(DR262)-16BIT-WEB-FLAC-2024-AFO
2024-04-18 14:42:08 FLAC-WEB Warung-All_We_Have_Is_Time__Singularity-(ENCOLOR498E)-16BIT-WEB-FLAC-2024-AFO
2024-04-18 14:42:26 FLAC-WEB TimeKube-TAZUMAL-(KP196)-16BIT-WEB-FLAC-2024-PTC
2024-04-18 14:42:26 XXX-HD TheLifeErotic.24.04.18.Luise.Toy.Oil.And.Feet.2.XXX.2160p.MP4-WRB
2024-04-18 14:42:47 MP3-WEB SouveQ_ft_o.ode.o-Soir-(MYCR221)-WEB-2024-AFO
2024-04-18 14:42:57 FLAC-WEB Oisel-Collage-HYSEP52-24BIT-WEB-FLAC-2024-WAVED
2024-04-18 14:43:32 FLAC-WEB TimeKube-TAZUMAL-(KP196)-24BIT-WEB-FLAC-2024-AFO
2024-04-18 14:43:44 FLAC-WEB SouveQ_ft_o.ode.o-Soir-(MYCR221)-16BIT-WEB-FLAC-2024-AFO
2024-04-18 14:43:51 ANiME Yamada-kun.And.The.Seven.Witches.S01E03.720p.WEB.H264-SKYANiME
2024-04-18 14:43:57 MP3-WEB Jebby_Jay-Personal-(EU262)-SINGLE-WEB-2024-AFO
2024-04-18 14:44:13 DOCU 112.Feuerwehr.im.Einsatz.S09E08.GERMAN.DOKU.1080p.WEB.H264-MGE
2024-04-18 14:44:13 FLAC-WEB AxeLara-Tocando_La_Luna-(PHA002)-16BIT-WEB-FLAC-2024-AFO
2024-04-18 14:44:45 FLAC-WEB Du_more_and_Clay_van_Dijk-Teuge-(MLR010)-16BIT-WEB-FLAC-2024-AFO
2024-04-18 14:44:47 MP3-WEB Pontanes-Walker-(LTU099)-SINGLE-WEB-2024-PTC
2024-04-18 14:45:00 FLAC-WEB Zy_Khan_and_EKIS_EKIS-Make_It_Better-(OR012)-SINGLE-16BIT-WEB-FLAC-2024-AFO
2024-04-18 14:45:15 FLAC-WEB Vanita-Nightmare_EP-(HAD015X2)-16BIT-WEB-FLAC-2024-AFO
2024-04-18 14:45:17 MP3-WEB Sorry3000-Gruesse_von_der_Ueberholspur-WEB-DE-2024-ENRiCH
2024-04-18 14:45:19 MP3-WEB HBz_x_2_Engel_and_Charlie_-_Erinner_Mich_(Remixes)-(602465667455)-WEB-DE-2024-ZzZz
2024-04-18 14:45:31 FLAC-WEB My_Dying_Bride-A_Mortal_Binding-16BIT-WEB-FLAC-2024-ENTiTLED
2024-04-18 14:45:51 DOCU 112.Feuerwehr.im.Einsatz.S09E08.GERMAN.DOKU.720p.WEB.H264-MGE
2024-04-18 14:46:09 FLAC-WEB Amir_Telem_and_Eretna-Hare_Murari-(ERN002)-16BIT-WEB-FLAC-2024-AFO
2024-04-18 14:46:34 FLAC-WEB Blami-Tokyo_Express_(Dino_Lenny_Rework)-(FHR036)-SINGLE-16BIT-WEB-FLAC-2024-AFO
2024-04-18 14:46:45 FLAC-WEB Maere-And_the_Universe_Keeps_Silent-24BIT-WEB-FLAC-2024-MOONBLOOD
2024-04-18 14:47:06 ANiME Yamada-kun.And.The.Seven.Witches.S01E04.720p.WEB.H264-SKYANiME
2024-04-18 14:47:16 MP3-WEB Bhaskar_feat_Dana_Williams_-_Nobodys_Perfect-SINGLE-WEB-2024-ZzZz
2024-04-18 14:47:23 FLAC-WEB Ozgur_Can-Natural_High_Never_Spring_Remix-(OHR129)-16BIT-WEB-FLAC-2024-AFO
2024-04-18 14:47:23 FLAC-WEB Talee-Waiting_For_Tomorrow-(085365670761)-16BIT-WEB-FLAC-2024-AFO
2024-04-18 14:47:25 MP3-WEB Marco_Santoro-The_Vibe-(LMK006B)-WEB-2024-DWM
2024-04-18 14:47:33 MP3-WEB Jamiroquai-Space_Cowboy_(Michael_Grays_Good_Vibe_Zone)-(SL127)-WEB-2024-DWM
2024-04-18 14:47:40 DOCU The.Curious.Case.Of.Natalia.Grace.S02E05.GERMAN.DL.DOKU.1080p.WEB.H264-MGE
2024-04-18 14:47:41 MP3-WEB Funky_Blackman-Glory_(Praise_Him)-(QTZ464)-WEB-2024-DWM
2024-04-18 14:47:47 MP3-WEB Lovebirds_ft_Nile-Shut_The_Lights_Out-(GLITS122D3)-WEB-2024-DWM
2024-04-18 14:47:52 MP3-WEB Ale_F_and_Kari_Bazzo-Hygge-(SFR475)-SINGLE-WEB-2024-AFO
2024-04-18 14:47:56 FLAC-WEB UB40-UB45-16BIT-WEB-FLAC-2024-ENRiCH
2024-04-18 14:48:00 MP3-WEB Patrick_Vano_and_Dapayk_Solo-Checkmate_(Dapayk_Remix)-(SOBER054)-SINGLE-WEB-2024-PTC
2024-04-18 14:48:24 FLAC-WEB Ale_F_and_Kari_Bazzo-Hygge-(SFR475)-SINGLE-16BIT-WEB-FLAC-2024-AFO
2024-04-18 14:48:26 FLAC-WEB DJ_Leoni-Hermeneutic_Circle-(CONS118)-16BIT-WEB-FLAC-2024-AFO
2024-04-18 14:48:28 FLAC-WEB Lovebirds_ft_Nile-Shut_The_Lights_Out-(GLITS122D3)-16BIT-WEB-FLAC-2024-DWM
2024-04-18 14:48:34 FLAC-WEB High_On_Fire-Cometh_The_Storm-16BIT-WEB-FLAC-2024-ENTiTLED
2024-04-18 14:48:37 FLAC-WEB Funky_Blackman-Glory_(Praise_Him)-(QTZ464)-16BIT-WEB-FLAC-2024-DWM
2024-04-18 14:48:40 FLAC-WEB Jamiroquai-Space_Cowboy_(Michael_Grays_Good_Vibe_Zone)-(SL127)-16BIT-WEB-FLAC-2024-DWM
2024-04-18 14:48:46 MP3-WEB Crypts-Necropolis-EP-WEB-2023-ENTiTLED
2024-04-18 14:48:52 FLAC-WEB Marco_Santoro-The_Vibe-(LMK006B)-16BIT-WEB-FLAC-2024-DWM
2024-04-18 14:49:24 XXX-HD StrapLez.24.04.18.Lilly.Mays.And.Casey.Nohrman.Tenderly.XXX.REPACK.2160p.MP4-WRB
2024-04-18 14:49:40 DOCU Justice.USA.S01E05.GERMAN.DL.DOKU.720p.WEB.H264-MGE
2024-04-18 14:49:55 FLAC-WEB Roum-Future-(MUKKE078)-SINGLE-16BIT-WEB-FLAC-2024-AFO
2024-04-18 14:50:01 FLAC-WEB Hoova-Elements-(INB1DIGI074)-24BIT-WEB-FLAC-2024-AFO
2024-04-18 14:50:34 FLAC-WEB Bruce_Springsteen-Best_of_Bruce_Springsteen_(Expanded_Edition)-16BIT-WEB-FLAC-2024-ENViED
2024-04-18 14:50:35 MP3-WEB DJ_Leoni-Hermeneutic_Circle-(CONS118)-WEB-2024-AFO
2024-04-18 14:51:00 ANiME Yamada-kun.And.The.Seven.Witches.S01E04.1080p.WEB.H264-SKYANiME
2024-04-18 14:51:24 MP3-WEB Nors_Kode-Nemesis-(ENV228BP)-WEB-2024-AFO
2024-04-18 14:51:30 FLAC-WEB Sue_Lewig-Sol_EP-BPX035-24BIT-WEB-FLAC-2024-WAVED
2024-04-18 14:51:33 DOCU Justice.USA.S01E06.GERMAN.DL.DOKU.1080p.WEB.H264-MGE
2024-04-18 14:51:45 MP3-WEB Watertank-Liminal_Status-WEB-2024-ENViED
2024-04-18 14:52:02 DOCU Justice.USA.S01E06.GERMAN.DL.DOKU.720p.WEB.H264-MGE
2024-04-18 14:52:07 FLAC-WEB Nors_Kode-Nemesis-(ENV228BP)-24BIT-WEB-FLAC-2024-AFO
2024-04-18 14:52:10 FLAC-WEB In_Vain-Solemn-16BIT-WEB-FLAC-2024-ENTiTLED
2024-04-18 14:52:53 FLAC-WEB Watertank-Liminal_Status-16BIT-WEB-FLAC-2024-ENViED
2024-04-18 14:52:55 FLAC-WEB Archers_and_Noah_Shah-Sympathy-(AVANTI6650)-16BIT-WEB-FLAC-2024-AFO
2024-04-18 14:53:09 MP3-WEB Talee-Waiting_For_Tomorrow-(085365670761)-WEB-2024-AFO
2024-04-18 14:53:42 DOCU On.The.Roam.S01E08.GERMAN.DL.DOKU.1080p.WEB.H264-MGE
2024-04-18 14:53:43 XXX-HD VivThomas.24.04.18.Lily.Blossom.And.Gia.Tvoricceli.Blossoming.Heat.XXX.2160p.MP4-WRB
2024-04-18 14:53:49 FLAC-WEB Ad_Vitam-Quite_Simply-(CKR035)-16BIT-WEB-FLAC-2024-AFO
2024-04-18 14:54:23 MP3-WEB Nuclear_Tomb-Terror_Labyrinthian-WEB-2024-ENTiTLED
2024-04-18 14:54:26 MP3-WEB Johnatron_and_Sferro-Frozen_(Johnatron_Remix)-(GFR173)-WEB-2024-AFO
2024-04-18 14:54:44 FLAC-WEB Mark_Youssef_and_Novikoff-Focus-(MR034)-SINGLE-16BIT-WEB-FLAC-2024-AFO
2024-04-18 14:55:00 FLAC-WEB Alex_Kaspersky_and_Vladimir_Bellow-Inner_Voice-(DDDUBS100)-16BIT-WEB-FLAC-2024-AFO
2024-04-18 14:55:02 FLAC-WEB Johnatron_and_Sferro-Frozen_(Johnatron_Remix)-(GFR173)-16BIT-WEB-FLAC-2024-AFO
2024-04-18 14:55:28 FLAC-WEB Nuclear_Tomb-Terror_Labyrinthian-16BIT-WEB-FLAC-2024-ENTiTLED
2024-04-18 14:55:29 FLAC-WEB Biltrix-Metanoia-(SH011)-SINGLE-16BIT-WEB-FLAC-2024-AFO
2024-04-18 14:55:34 FLAC-WEB Alfred_Beck_and_ANASTASiiA-When_I_Fall-(ENV262BP)-24BIT-WEB-FLAC-2024-AFO
2024-04-18 14:55:54 MP3-WEB Alfred_Beck_and_ANASTASiiA-When_I_Fall-(ENV262BP)-WEB-2024-AFO
2024-04-18 14:56:28 FLAC-WEB Luis_Leon_and_Unseener-Concorde-(PROTON0549)-16BIT-WEB-FLAC-2024-AFO
2024-04-18 14:56:35 FLAC-WEB Cloud_Nothings-Final_Summer-16BIT-WEB-FLAC-2024-ENRiCH
2024-04-18 14:56:38 ANiME Yamada-kun.And.The.Seven.Witches.S01E05.1080p.WEB.H264-SKYANiME
2024-04-18 14:56:42 FLAC-WEB My_Dying_Bride-A_Mortal_Binding-24BIT-WEB-FLAC-2024-MOONBLOOD
2024-04-18 14:56:46 MP3-WEB Jody_Wisternoff_and_Blake.08-BLAM-(ANJDEE839BD)-WEB-2024-AFO
2024-04-18 14:57:42 FLAC-WEB Vizel-LETs_DANCE-(SRBT123)-16BIT-WEB-FLAC-2024-AFO
2024-04-18 14:57:46 FLAC-WEB Jody_Wisternoff_and_Blake.08-BLAM-(ANJDEE839BD)-24BIT-WEB-FLAC-2024-AFO
2024-04-18 14:58:06 FLAC-WEB Biorc-Awkward_Situation_EP-NRDR168-24BIT-WEB-FLAC-2024-WAVED
2024-04-18 14:58:30 FLAC-WEB Rama_Mendez-The_Born__Back_Again-(UMR445)-16BIT-WEB-FLAC-2024-AFO
2024-04-18 14:58:34 MP3-WEB Dool-The_Shape_Of_Fluidity-WEB-2024-ENViED
2024-04-18 14:58:45 FLAC-WEB Dool-The_Shape_Of_Fluidity-16BIT-WEB-FLAC-2024-ENViED
2024-04-18 14:58:51 MP3-WEB Vanita-Nightmare_EP-(HAD015X2)-WEB-2024-AFO
2024-04-18 14:58:58 MP3-WEB Zao-Live_from_the_Church-WEB-2024-ENTiTLED
2024-04-18 14:59:00 MP3-WEB Crystal_Rock_x_Lawstylez_x_Nimt-The_Nights-SINGLE-WEB-2024-MARiBOR
2024-04-18 14:59:12 MP3-WEB Captain_Jack-Captain_Jack_(Paul_Keen_Remix)-SINGLE-WEB-2024-MARiBOR
2024-04-18 14:59:24 MP3-WEB Synthea-Other_Path-(ETC612BP)-WEB-2024-AFO
2024-04-18 14:59:34 ANiME Yamada-kun.And.The.Seven.Witches.S01E05.720p.WEB.H264-SKYANiME
2024-04-18 15:00:02 FLAC-WEB Freestyle_Man-From_Dawn_To_Sunrise-(FMR016)-24BIT-WEB-FLAC-2024-AFO
2024-04-18 15:00:09 FLAC-WEB Synthea-Other_Path-(ETC612BP)-24BIT-WEB-FLAC-2024-AFO
2024-04-18 15:00:22 MP3-WEB Dima_Gastroler-Magnetic_Storm-ZCELEC010-WEB-2024-WAV
2024-04-18 15:01:01 MP3-WEB Kabaka_Pyramid-The_Kalling-Deluxe_Edition-WEB-2024-PaB
2024-04-18 15:01:18 MP3-WEB Haust-Negative_Music-WEB-2024-ENRiCH
2024-04-18 15:01:33 FLAC-WEB Jackmaster-Dont_You_Want_My_Lovin-(CRM309)-16BIT-WEB-FLAC-2024-AFO
2024-04-18 15:02:38 MP3-WEB Monomers-elusive-WEB-2024-ENViED
2024-04-18 15:03:00 MP3-WEB Delara_Ja_and_Cuprite-Dance-(EXEA028)-SINGLE-WEB-2024-PTC
2024-04-18 15:03:06 MP3-WEB Anton_Pars_Feat_Gary_Mictian_-_Dizzy-SINGLE-WEB-2024-iDC
2024-04-18 15:03:08 MP3-WEB Clypso_-_Your_Part_In_My_Story_Is_Over-SINGLE-WEB-2024-iDC
2024-04-18 15:03:10 MP3-WEB Flex_Deejay_-_Whim-SINGLE-WEB-2024-iDC
2024-04-18 15:03:12 MP3-WEB VA_-_Best_of_EDM_Party_2024-(PDM1174)-WEB-2024-ZzZz
2024-04-18 15:04:02 MP3-WEB Pillow_Queens-Name_Your_Sorrow-WEB-2024-ENRiCH
2024-04-18 15:04:20 MP3-WEB Kastil-K03-WEB-2024-WAV
2024-04-18 15:04:32 ANiME Yamada-kun.And.The.Seven.Witches.S01E06.1080p.WEB.H264-SKYANiME
2024-04-18 15:04:36 FLAC-WEB Dima_Gastroler-Magnetic_Storm-ZCELEC010-24BIT-WEB-FLAC-2024-WAVED
2024-04-18 15:05:05 FLAC-WEB Blaze_of_Perdition-Upharsin-PL-24BIT-WEB-FLAC-2024-MOONBLOOD
2024-04-18 15:06:13 MP3-WEB T_Bone_Burnett-The_Other_Side-WEB-2024-ENRiCH
2024-04-18 15:07:06 MP3-WEB NWYR_x_W_and_W_-_Fight_Club-(196429549043)-WEB-2024-ZzZz
2024-04-18 15:07:14 FLAC-WEB The_Ghost_Inside-Searching_for_Solace-16BIT-WEB-FLAC-2024-ENRiCH
2024-04-18 15:07:15 ANiME Yamada-kun.And.The.Seven.Witches.S01E06.720p.WEB.H264-SKYANiME
2024-04-18 15:08:42 MP3-WEB VA_-_Ibiza_IMS_Sampler_2024-(M2DR142)-WEB-2024-ZzZz_iNT
2024-04-18 15:09:35 FLAC-WEB Kastil-K03-24BIT-WEB-FLAC-2024-WAVED
2024-04-18 15:10:32 FLAC-WEB Soberless-Small_Valley-(SOULART049)-16BIT-WEB-FLAC-2024-AFO
2024-04-18 15:10:39 MP3-WEB Digitalism-Idealism_Forever_(Anniversary_Edition)-WEB-2024-ENRiCH
2024-04-18 15:10:58 MP3-WEB Luther-Luther-Reissue-WEB-2024-UVU
2024-04-18 15:11:05 FLAC-WEB Mike_McCarthy-Empathy-(ETC624BP)-16BIT-WEB-FLAC-2024-AFO
2024-04-18 15:11:13 MP3-WEB Oleg_Espo_and_Josanu_and_FELZ-Vatican-(EU261)-SINGLE-WEB-2024-AFO
2024-04-18 15:11:50 FLAC-WEB Boris_Brejcha-Level_One-(FSLP007)-16BIT-WEB-FLAC-2024-AFO
2024-04-18 15:11:51 MP3-WEB Vanden_Plas-The_Empyrean_Equation_of_The_Long_Lost_Things-WEB-2024-ENViED
2024-04-18 15:12:27 ANiME Yamada-kun.And.The.Seven.Witches.S01E07.1080p.WEB.H264-SKYANiME
2024-04-18 15:12:36 FLAC-WEB Digitalism-Idealism_Forever_(Anniversary_Edition)-16BIT-WEB-FLAC-2024-ENRiCH
2024-04-18 15:12:48 MP3-WEB NIIXII-Magia-(ZATAR021)-WEB-2024-AFO
2024-04-18 15:13:11 MP3-WEB Act_of_Rage_and_Cryex_and_Last_Word_-_Raging_Madness-SINGLE-WEB-2024-ZzZz
2024-04-18 15:13:12 FLAC-WEB The_Real_Carter-Caldera-(TNV045)-16BIT-WEB-FLAC-2024-AFO
2024-04-18 15:13:13 MP3-WEB Strange_Malcolm-Mars-(SG111)-WEB-2024-AFO
2024-04-18 15:13:29 MP3-WEB Lewis_Taylor-Kickin_In_The_Beat-(TRICK086)-WEB-2024-AFO
2024-04-18 15:13:50 FLAC-WEB Croatia_Squad-When_Its_Dark-(ETR732BP)-24BIT-WEB-FLAC-2024-AFO
2024-04-18 15:14:00 FLAC-WEB Modular_Project-Its_Time-(EXP140)-16BIT-WEB-FLAC-2024-AFO
2024-04-18 15:14:08 X265-HD The.Departed.2006.2160p.UHD.BluRay.x265-4KDVS
2024-04-18 15:14:11 FLAC-WEB GFG_80-Blind_Flight-(EDR317)-16BIT-WEB-FLAC-2024-AFO
2024-04-18 15:14:30 FLAC-WEB Vanden_Plas-The_Empyrean_Equation_of_The_Long_Lost_Things-16BIT-WEB-FLAC-2024-ENViED
2024-04-18 15:15:00 ANiME Yamada-kun.And.The.Seven.Witches.S01E07.720p.WEB.H264-SKYANiME
2024-04-18 15:15:10 MP3-WEB Teho-Shifting-(LTA003)-WEB-2024-AFO
2024-04-18 15:16:19 FLAC-WEB VA-Timeless_Vol_7_Energy_Surge-(P067)-16BIT-WEB-FLAC-2024-AFO
2024-04-18 15:18:02 FLAC-WEB Milkwish-Dynamite-(MM15550)-24BIT-WEB-FLAC-2024-AFO
2024-04-18 15:18:36 FLAC-WEB VA-The_Purr_Coffee_Shop_III-(PURR426)-16BIT-WEB-FLAC-2024-AFO
2024-04-18 15:18:41 MP3-WEB Divide-Il_Sogno-IA027D-WEB-2024-WAV
2024-04-18 15:19:01 MP3-WEB DJ_Fait_-_Are_You_Someone-(3617386450960)-WEB-2024-ZzZz
2024-04-18 15:19:14 FLAC-WEB Verikalpa-Tuomio-FI-16BIT-WEB-FLAC-2024-ENTiTLED
2024-04-18 15:19:18 MP3-WEB Deng_and_Slavak-Flying_Gait-(ETREE488)-WEB-2024-AFO
2024-04-18 15:19:44 FLAC-WEB Divide-Il_Sogno-IA027D-24BIT-WEB-FLAC-2024-WAVED
2024-04-18 15:19:56 MP3-WEB Morgenrot-Gedankenspiele-WEB-DE-2024-ENViED
2024-04-18 15:20:17 GAMES Sker.Ritual-RUNE
2024-04-18 15:20:51 NSW Slave_Zero_X_NSW-HR
2024-04-18 15:21:00 MP3-WEB Telos-Stasis-UN004-WEB-2024-WAV
2024-04-18 15:21:47 MP3-WEB Adred_and_Dave_Owen-Break_Away_EP-(DIS192)-WEB-2024-PTC
2024-04-18 15:21:51 ANiME Yamada-kun.And.The.Seven.Witches.S01E08.1080p.WEB.H264-SKYANiME
2024-04-18 15:22:00 MP3-WEB Amoss-Turn_The_Tape-(FLXA190)-WEB-2024-PTC
2024-04-18 15:22:27 MP3-WEB Bone-Caught_In_The_Distance_EP-(OFFWORLD123)-WEB-2024-PTC
2024-04-18 15:22:37 MP3-WEB Fiddler-Let_You_Go-(SRM041)-WEB-2024-AFO
2024-04-18 15:22:49 MP3-WEB DA_TU-Know_Where_Youve_Been_EP-(CLS457)-WEB-2024-PTC
2024-04-18 15:23:00 FLAC-WEB Mind_Conspiracy-Twisted_Circles-(EMH050)-16BIT-WEB-FLAC-2024-AFO
2024-04-18 15:23:00 MP3-WEB Lumia-Patience_EP-(FOKUZ24266)-WEB-2024-PTC
2024-04-18 15:23:11 MP3-WEB CamelPhat-Spiritual_Milk_(The_Remixes_Pt_3)-(CML022)-WEB-2024-AFO
2024-04-18 15:23:30 FLAC-WEB Oleg_Espo_and_Josanu_and_FELZ-Vatican-(EU261)-SINGLE-16BIT-WEB-FLAC-2024-AFO
2024-04-18 15:24:02 MP3-WEB Bloodbound-The_Tales_of_Nosferatu_(Two_Decades_of_Blood_2004-2024)-WEB-2024-ENTiTLED
2024-04-18 15:24:07 TV-HD-X264 Hudson.and.Rex.S06E14.720p.HDTV.x264-SYNCOPY
2024-04-18 15:24:16 FLAC-WEB Telos-Stasis-UN004-16BIT-WEB-FLAC-2024-WAVED
2024-04-18 15:24:34 FLAC-WEB Deng_and_Slavak-Flying_Gait-(ETREE488)-16BIT-WEB-FLAC-2024-AFO
2024-04-18 15:25:00 FLAC-WEB Konstantin_Maria_ft_8hz-Sun_On_My_Skin-(BLMA049)-SINGLE-16BIT-WEB-FLAC-2024-AFO
2024-04-18 15:25:00 FLAC-WEB Strange_Malcolm-Mars-(SG111)-16BIT-WEB-FLAC-2024-AFO
2024-04-18 15:25:01 FLAC-WEB Bert_Voorman-Connection-(INC259)-16BIT-WEB-FLAC-2024-AFO
2024-04-18 15:25:01 FLAC-WEB VA-Truesounds_Music_10th_Anniversary_VA-(TSMVA010)-16BIT-WEB-FLAC-2024-AFO
2024-04-18 15:25:02 ANiME Yamada-kun.And.The.Seven.Witches.S01E08.720p.WEB.H264-SKYANiME
2024-04-18 15:25:25 MP3-WEB Bill_Frisell-Orchestras_(Live)-WEB-2024-ENRiCH
2024-04-18 15:25:26 MP3-WEB Harris_and_Ford_-_Ein_Kompliment-(602465678666)-SINGLE-WEB-DE-2024-ZzZz
2024-04-18 15:25:57 MP3-WEB Baerchen_und_die_Milchbubis-Die_Rueckkehr_des_Bumm-WEB-DE-2024-ENRiCH
2024-04-18 15:26:00 FLAC-WEB Landhouse_and_Sima_Aava_and_Cedric_Scheibel-Butterfly-(AMSEL364)-SINGLE-24BIT-WEB-FLAC-2024-AFO
2024-04-18 15:26:00 FLAC-WEB Bloodbound-The_Tales_of_Nosferatu_(Two_Decades_of_Blood_2004-2024)-16BIT-WEB-FLAC-2024-ENTiTLED
2024-04-18 15:26:00 FLAC-WEB Stephen_K_Cal-Rage_Blackout__Osiris-(SB082)-16BIT-WEB-FLAC-2024-AFO
2024-04-18 15:27:06 FLAC-WEB Paul_Weekend-Sahana-(UMC097)-SINGLE-16BIT-WEB-FLAC-2024-AFO
2024-04-18 15:27:11 MP3-WEB Glen_Campbell-Glen_Campbell_Duets_Ghost_On_The_Canvas_Sessions-WEB-2024-ENRiCH
2024-04-18 15:27:27 FLAC-WEB Inache_and_KING_A.K.A_SAMPLEKING-I_Feel-(MSD299)-SINGLE-16BIT-WEB-FLAC-2024-AFO
2024-04-18 15:27:30 FLAC-WEB CamelPhat-Spiritual_Milk_(The_Remixes_Pt_3)-(CML022)-16BIT-WEB-FLAC-2024-AFO
2024-04-18 15:27:57 FLAC-WEB Funkagenda_and_Christian_Burns-Clear_Skies-(MM15570)-16BIT-WEB-FLAC-2024-AFO
2024-04-18 15:28:17 FLAC-WEB Fares-Pleasure_of_Happiness-(SFR473)-SINGLE-16BIT-WEB-FLAC-2024-AFO
2024-04-18 15:28:21 FLAC-WEB Vin_Kampala-After_Dusk-(LMKA234)-16BIT-WEB-FLAC-2024-AFO
2024-04-18 15:28:38 MP3-WEB Fares-Pleasure_of_Happiness-(SFR473)-SINGLE-WEB-2024-AFO
2024-04-18 15:28:47 FLAC-WEB Lee_Coulson-You_Know_You_Can-(ESM586)-16BIT-WEB-FLAC-2024-AFO
2024-04-18 15:29:00 FLAC-WEB Enlight-Machine-(PRFBL130)-24BIT-WEB-FLAC-2024-AFO
2024-04-18 15:29:01 FLAC-WEB Glenn_Morrison_and_Jessy_Moss-So_What-(FFGR086)-16BIT-WEB-FLAC-2024-AFO
2024-04-18 15:29:19 MP3-WEB Unconformist-Vivid_Scars_Symphony-COM026-WEB-2024-WAV
2024-04-18 15:29:38 FLAC-WEB Selim_Sivade-Give_a_Fuck-(AZZ71)-16BIT-WEB-FLAC-2024-AFO
2024-04-18 15:29:55 ANiME Yamada-kun.And.The.Seven.Witches.S01E09.1080p.WEB.H264-SKYANiME
2024-04-18 15:29:55 FLAC-WEB Marino_Massimo_and_Mike_De_Luca-Old_Friends-(BCD2024596)-16BIT-WEB-FLAC-2024-AFO
2024-04-18 15:30:05 FLAC-WEB NIIXII-Magia-(ZATAR021)-24BIT-WEB-FLAC-2024-AFO
2024-04-18 15:30:07 MP3-WEB Marino_Massimo_and_Mike_De_Luca-Old_Friends-(BCD2024596)-WEB-2024-AFO
2024-04-18 15:30:34 MP3-WEB Luca_Garaboni_ft_Fabiola_Osorio-Nino-(AM77)-WEB-2024-AFO
2024-04-18 15:30:47 FLAC-WEB Somelee-Kindness_Is_No_Longer_Appreciated-(DNSOTF079)-16BIT-WEB-FLAC-2024-AFO
2024-04-18 15:30:49 FLAC-WEB Luca_Garaboni_ft_Fabiola_Osorio-Nino-(AM77)-16BIT-WEB-FLAC-2024-AFO
2024-04-18 15:31:15 MP3-WEB Bryn_Whiting-Come_Find_Me-(DIGISOC533E)-WEB-2024-AFO
2024-04-18 15:31:16 FLAC-WEB SKELEE-Hells_Angel-(SUPER569)-16BIT-WEB-FLAC-2024-AFO
2024-04-18 15:31:33 MP3-WEB SKELEE-Hells_Angel-(SUPER569)-WEB-2024-AFO
2024-04-18 15:31:46 FLAC-WEB Ajaw-Icaro-(SAA045)-16BIT-WEB-FLAC-2024-AFO
2024-04-18 15:31:56 FLAC-WEB Interloop-True-(PLRTUNDR071)-SINGLE-16BIT-WEB-FLAC-2024-AFO
2024-04-18 15:32:00 MP3-WEB Folterkammer-Weibermacht-WEB-DE-2024-ENTiTLED
2024-04-18 15:32:08 MP3-WEB g-herb-Rise-(SOL307)-WEB-2024-AFO
2024-04-18 15:32:24 FLAC-WEB Bryn_Whiting-Come_Find_Me-(DIGISOC533E)-16BIT-WEB-FLAC-2024-AFO
2024-04-18 15:32:28 FLAC-WEB g-herb-Rise-(SOL307)-16BIT-WEB-FLAC-2024-AFO
2024-04-18 15:32:40 ANiME Yamada-kun.And.The.Seven.Witches.S01E09.720p.WEB.H264-SKYANiME
2024-04-18 15:32:51 FLAC-WEB Glen_Campbell-Glen_Campbell_Duets_Ghost_On_The_Canvas_Sessions-16BIT-WEB-FLAC-2024-ENRiCH
2024-04-18 15:33:14 MP3-WEB Juan_Beldarrein-Reflection-(ZMR185)-WEB-2024-AFO
2024-04-18 15:33:41 MP3-WEB LOUT-Jack-(ML206)-SINGLE-WEB-2024-AFO
2024-04-18 15:33:42 MP3-WEB Smokey_-_Bit_My_Lemon-(CHEEK680A)-WEB-2024-ZzZz
2024-04-18 15:33:47 FLAC-WEB Juan_Beldarrein-Reflection-(ZMR185)-16BIT-WEB-FLAC-2024-AFO
2024-04-18 15:33:55 FLAC-WEB LOUT-Jack-(ML206)-SINGLE-16BIT-WEB-FLAC-2024-AFO
2024-04-18 15:34:16 FLAC-WEB U-Mount-Turn_Back_Time-(SCS121)-16BIT-WEB-FLAC-2024-AFO
2024-04-18 15:34:34 FLAC-WEB Arba_Han_and_DJ_Faye-No_Limit-(UMC098)-SINGLE-16BIT-WEB-FLAC-2024-AFO
2024-04-18 15:34:47 MP3-WEB Lampe-Silent_Echoes-(SEES001)-SINGLE-WEB-2024-AFO
2024-04-18 15:34:57 FLAC-WEB Unconformist-Vivid_Scars_Symphony-COM026-16BIT-WEB-FLAC-2024-WAVED
2024-04-18 15:34:58 FLAC-WEB Casnik_and_Cristian_Caro-Interconnected_Groove-(SYMM136)-16BIT-WEB-FLAC-2024-AFO
2024-04-18 15:35:36 FLAC-WEB Ryan_Lucian_and_Jas.-Heart_Starts_Beating-(ENHANCED611E)-16BIT-WEB-FLAC-2024-AFO
2024-04-18 15:35:46 FLAC-WEB Shinso-Space_Odyssey-(UMR447)-SINGLE-16BIT-WEB-FLAC-2024-AFO
2024-04-18 15:36:00 FLAC-WEB Folterkammer-Weibermacht-DE-16BIT-WEB-FLAC-2024-ENTiTLED
2024-04-18 15:36:18 FLAC-WEB Dory_Badawi-Euphoric_Echoes-(WHS153)-16BIT-WEB-FLAC-2024-AFO
2024-04-18 15:36:23 FLAC-WEB Lampe-Silent_Echoes-(SEES001)-SINGLE-16BIT-WEB-FLAC-2024-AFO
2024-04-18 15:36:38 MP3-WEB Audio-Where_The_Chaos_Lies-(BLCKTNL167)-WEB-2024-PTC
2024-04-18 15:36:40 MP3-WEB Fortuna_Ehrenfeld-Solo_Live-WEB-DE-2024-ENRiCH
2024-04-18 15:36:59 FLAC-WEB Chris_Goa-Welcome_to_Shambhala-(LMP174)-16BIT-WEB-FLAC-2024-AFO
2024-04-18 15:37:09 MP3-WEB Cloud_Formation-Within-(LPRBAS171)-WEB-2024-PTC
2024-04-18 15:37:24 MP3-WEB Dee-Massive__Murdaration-(HYP082)-WEB-2024-PTC
2024-04-18 15:37:25 ANiME Yamada-kun.And.The.Seven.Witches.S01E10.1080p.WEB.H264-SKYANiME
2024-04-18 15:37:26 MP3-WEB U-Mount-Turn_Back_Time-(SCS121)-WEB-2024-AFO
2024-04-18 15:37:42 FLAC-WEB MiliPrezz-Mia-(UMR446)-SINGLE-16BIT-WEB-FLAC-2024-AFO
2024-04-18 15:37:46 MP3-WEB Kontakt-Redlines_at_Dawn_EP-(KILLAZ121)-WEB-2024-PTC
2024-04-18 15:38:02 FLAC-WEB Coastlines-Echoes_Through_My_Skin-(SEK209)-16BIT-WEB-FLAC-2024-AFO
2024-04-18 15:38:13 MP3-WEB Moytra-On_My_Mind__Midnight-(DATA023)-WEB-2024-PTC
2024-04-18 15:38:27 MP3-WEB Muru-Dreamer-(MTH071)-WEB-2024-PTC
2024-04-18 15:38:42 MP3-WEB Reknek-Midnight_Vibes-(ENG038)-WEB-2024-PTC
2024-04-18 15:39:10 MP3-WEB TOAL-Bouncy-(NBRECS126)-WEB-2024-PTC
2024-04-18 15:40:04 X265-HD Ralph.Breaks.the.Internet.2018.FiNNiSH.DV.2160p.WEB.H265-TOOSA
2024-04-18 15:40:17 ANiME Yamada-kun.And.The.Seven.Witches.S01E10.720p.WEB.H264-SKYANiME
2024-04-18 15:40:52 FLAC-WEB Fortuna_Ehrenfeld-Solo_Live-DE-16BIT-WEB-FLAC-2024-ENRiCH
2024-04-18 15:41:04 MP3-WEB Geos_Crew_-_Final_Song-(NTWO061)-WEB-2024-ZzZz
2024-04-18 15:41:45 X265-HD Ralph.Breaks.the.Internet.2018.FiNNiSH.HDR.2160p.WEB.H265-TOOSA
2024-04-18 15:44:09 MP3-WEB Praying_Mantis-Defiance-WEB-2024-ENViED
2024-04-18 15:44:36 MP3-WEB Drunken_Swallows-Im_Namen_des_Wahnsinns-WEB-DE-2024-ENRiCH
2024-04-18 15:45:11 MP3-WEB Fred_Hersch-Silent_Listening-WEB-2024-ENRiCH
2024-04-18 15:45:12 FLAC-WEB Whoriskey-Olympia-(OUR051B)-16BIT-WEB-FLAC-2024-AFO
2024-04-18 15:45:14 ANiME Yamada-kun.And.The.Seven.Witches.S01E11.1080p.WEB.H264-SKYANiME
2024-04-18 15:45:36 FLAC-WEB Tom_Pavicich-Olimpo-(AHD389)-16BIT-WEB-FLAC-2024-AFO
2024-04-18 15:45:39 FLAC-WEB Casnik-Rainy_Days-(FA453)-16BIT-WEB-FLAC-2024-AFO
2024-04-18 15:45:43 MP3-WEB Koester_und_Hocker-Stabil_nervoes_(Live_an_der_Mosel)-WEB-DE-2024-ENRiCH
2024-04-18 15:45:47 FLAC-WEB Kawir-Kydoimos-24BIT-WEB-FLAC-2024-MOONBLOOD
2024-04-18 15:46:17 MP3-WEB Paraorchestra_with_Brett_Anderson_and_Charles_Hazlewood-Death_Songbook-WEB-2024-ENRiCH
2024-04-18 15:46:26 FLAC-WEB Julia_Eliza-Radiate-(BT448)-SINGLE-16BIT-WEB-FLAC-2024-AFO
2024-04-18 15:46:48 MP3-WEB Satanic_North-Satanic_North-WEB-2024-ENTiTLED
2024-04-18 15:46:49 FLAC-WEB Lewis_Taylor-Kickin_In_The_Beat-(TRICK086)-24BIT-WEB-FLAC-2024-AFO
2024-04-18 15:46:50 MP3-WEB Stjepan_Hauser-Classic-WEB-2020-ENRiCH
2024-04-18 15:47:16 FLAC-WEB Raxon-Get_Together-(WRG066)-SINGLE-16BIT-WEB-FLAC-2024-AFO
2024-04-18 15:47:20 FLAC-WEB Crocy_x_LiV.-Never_Stop_Dancing_(Remixes)-(SP018)-16BIT-WEB-FLAC-2024-AFO
2024-04-18 15:47:28 FLAC-WEB Dvne-Voidkind-24BIT-WEB-FLAC-2024-MOONBLOOD
2024-04-18 15:47:28 MP3-WEB Stjepan_Hauser-Classic_II-WEB-2024-ENRiCH
2024-04-18 15:48:17 ANiME Yamada-kun.And.The.Seven.Witches.S01E11.720p.WEB.H264-SKYANiME
2024-04-18 15:48:27 MP3-WEB Hein-The_Great_Delusion-(SUBMISSION428)-WEB-2024-AFO
2024-04-18 15:48:36 FLAC-WEB T.A.T.-Follow_Me-(FREQ2417)-16BIT-WEB-FLAC-2024-AFO
2024-04-18 15:48:41 MP3-WEB Stompy_and_Eazyvibe_-_Moonlight_Shadows-(247HC377)-WEB-2024-ZzZz
2024-04-18 15:48:43 FLAC-WEB Satanic_North-Satanic_North-16BIT-WEB-FLAC-2024-ENTiTLED
2024-04-18 15:48:56 MP3-WEB Amos_and_Riot_Night_with_Matt_Noland-Three_Graces-(RGEN180)-WEB-2024-AFO
2024-04-18 15:49:11 FLAC-WEB Jebby_Jay-Personal-(EU262)-SINGLE-16BIT-WEB-FLAC-2024-AFO
2024-04-18 15:49:17 FLAC-WEB Felix_E-Paradox_Twin-(LANG022)-16BIT-WEB-FLAC-2024-AFO
2024-04-18 15:49:43 FLAC-WEB Dario_Dea-The_Rave_Is_Calling_You-(ES021)-24BIT-WEB-FLAC-2024-AFO
2024-04-18 15:49:47 MP3-WEB Translate-Vanishing_Figures-SEMANTICA146-WEB-2022-WAV
2024-04-18 15:49:54 MP3-WEB GSEP-Charlie_Heggartys-(HOOJ174)-WEB-2024-AFO
2024-04-18 15:50:00 FLAC-WEB Fiddler-Let_You_Go-(SRM041)-16BIT-WEB-FLAC-2024-AFO
2024-04-18 15:50:20 FLAC-WEB Toque-Xtro-(GFR162)-16BIT-WEB-FLAC-2024-AFO
2024-04-18 15:50:36 MP3-WEB Phillip_Castle-Another_World__Stay_Here-(ENPROG584E)-WEB-2024-AFO
2024-04-18 15:50:51 MP3-WEB Elvie_Shane-Damascus-WEB-2024-ENRiCH
2024-04-18 15:51:14 MP3-WEB Croatia_Squad-When_Its_Dark-(ETR732BP)-WEB-2024-AFO
2024-04-18 15:51:15 FLAC-WEB Selbst-Despondency_Chord_Progressions-24BIT-WEB-FLAC-2024-MOONBLOOD
2024-04-18 15:51:33 MP3-WEB XiJaro_and_Pitch_with_Adara-Goodbye-(BH14670)-WEB-2024-AFO
2024-04-18 15:52:03 FLAC-WEB Max_Blade-Just_Be-(BALKAN0793)-16BIT-WEB-FLAC-2024-AFO
2024-04-18 15:52:39 MP3-WEB VA-The_Sound_of_2024_Mix_3_Rio_De_Janeiro-(ASTS2024M3)-WEB-2024-AFO
2024-04-18 15:52:40 MP3-WEB Lucy_Rose-This_Aint_The_Way_You_Go_Out-WEB-2024-ENRiCH
2024-04-18 15:53:14 ANiME Yamada-kun.And.The.Seven.Witches.S01E12.1080p.WEB.H264-SKYANiME
2024-04-18 15:53:23 MP3-WEB Andy_Cley_and_Laurent_Kazo-Is_this_The_Way-(NS1222)-WEB-2024-AFO
2024-04-18 15:53:35 MP3-WEB Mike_McCarthy-Empathy-(ETC624BP)-WEB-2024-AFO
2024-04-18 15:53:48 FLAC-WEB Delara_Ja_and_Cuprite-Dance-(EXEA028)-SINGLE-24BIT-WEB-FLAC-2024-AFO
2024-04-18 15:53:55 MP3-WEB Juli-Der_Sommer_ist_vorbei_(Deluxe_Edition)-WEB-DE-2024-ENRiCH
2024-04-18 15:54:10 MP3-WEB STNX-Destruction-(RDX138333)-WEB-2024-AFO
2024-04-18 15:55:09 MP3-WEB Peter_Agyagos-Someone_Else-(RDX590)-WEB-2024-AFO
2024-04-18 15:55:10 MP3-WEB SteelniX_and_Makry_-_Change_My_Mind-(BEATDEALER521)-SINGLE-WEB-2024-ZzZz
2024-04-18 15:55:19 MP3-WEB Eugenio_Tokarev-Come_With_Me_(Remixes)-(NM041)-WEB-2024-AFO
2024-04-18 15:55:31 MP3-WEB Salman_wani-Meloria-(LEV181)-WEB-2024-AFO
2024-04-18 15:55:46 FLAC-WEB GSEP-Charlie_Heggartys-(HOOJ174)-16BIT-WEB-FLAC-2024-AFO
2024-04-18 15:55:50 NSW Tokyo_24-ku_inoru_CHT_NSW-HR
2024-04-18 15:56:00 ANiME Yamada-kun.And.The.Seven.Witches.S01E12.720p.WEB.H264-SKYANiME
2024-04-18 15:56:02 MP3-WEB Kilton-High_Speed-(ABL198)-WEB-2024-AFO
2024-04-18 15:56:13 MP3-WEB Evebe_and_Popoff-Amadeus-(SSR430)-WEB-2024-AFO
2024-04-18 15:56:15 FLAC-WEB Translate-Vanishing_Figures-SEMANTICA146-16BIT-WEB-FLAC-2022-WAVED
2024-04-18 15:56:45 FLAC-WEB Patrick_Vano-Checkmate_(Dapayk_Remix)-(SOBER054)-SINGLE-16BIT-WEB-FLAC-2024-AFO
2024-04-18 15:57:25 FLAC-WEB Jelly_For_The_Babies_and_Gav_Easby_ft_Phonic_Youth-Back_to_You-(INU063)-16BIT-WEB-FLAC-2024-AFO
2024-04-18 15:57:32 APPS TurboSoft.TurboFTP.v7.00.1366.Incl.Keygen.and.Patch-RLTS
2024-04-18 15:57:41 MP3-WEB Systembreaker-I_Feel_The_Energy-(NR44)-SINGLE-WEB-2024-AFO
2024-04-18 15:57:54 MP3-WEB Nikos_Geladis_and_Ali_Mohtashami-We_Came_In_Peace-(NV130)-WEB-2024-AFO
2024-04-18 15:58:04 MP3-WEB Davor-Move_Like_Dat-(ADR111)-WEB-2024-AFO
2024-04-18 15:58:05 APPS TurboSoft.TurboFTP.v7.00.1366.x64.Incl.Keygen.and.Patch-RLTS
2024-04-18 15:58:17 MP3-WEB Dmytro_Hrantsev-Sunset_on_Dzha-(RDXM292)-WEB-2024-AFO
2024-04-18 15:58:41 FLAC-WEB HNGT-Dimensional-(ODS005)-SINGLE-16BIT-WEB-FLAC-2024-AFO
2024-04-18 15:58:55 FLAC-WEB Daspa-Perspective-(EB128)-SINGLE-16BIT-WEB-FLAC-2024-AFO
2024-04-18 15:59:06 MP3-WEB Francesco_Sambero-Bada-(SCR063)-WEB-2024-AFO
2024-04-18 15:59:20 FLAC-WEB Juli-Der_Sommer_ist_vorbei_(Deluxe_Edition)-DE-16BIT-WEB-FLAC-2024-ENRiCH
2024-04-18 15:59:22 MP3-WEB Atragun-Statues_In_Motion-(SUBMISSION427)-WEB-2024-AFO
2024-04-18 15:59:22 FLAC-WEB Andrew_Spencer_x_Aquagen_x_Blue_Nature-I_Need_A_Hero-(MMRD1809)-24BIT-WEB-FLAC-2024-MARiBOR
2024-04-18 15:59:36 MP3-WEB Cornel_Jacobs_Cook-Yamas_the_Movie_(Original_Motion_Picture_Soundtrack)-OST-WEB-2024-ENRiCH
2024-04-18 15:59:38 MP3-WEB Andrew_Spencer_x_Aquagen_x_Blue_Nature-I_Need_A_Hero-(MMRD1809)-WEB-2024-MARiBOR
2024-04-18 15:59:54 MP3-WEB AXMO-Right_Here_Waiting-SINGLE-WEB-2024-MARiBOR
2024-04-18 16:00:09 MP3-WEB The_Nation_and_Nick_Unique-Feels_Like_Heaven-(10297582)-WEB-2024-MARiBOR
2024-04-18 16:00:13 MP3-WEB Ishai_Adar-CTRL_ALT_DESIRE_(Music_from_the_Paramount_Plus_Original_Docu_Series)-OST-WEB-2024-ENRiCH
2024-04-18 16:00:14 MP3-WEB DJ_Phalanx-Tranquility-(SCR575)-WEB-2024-AFO
2024-04-18 16:00:35 MP3-WEB Quantum-Down_the_Mountainside-WEB-2024-ENViED
2024-04-18 16:00:45 MP3-WEB Luis_Lopez_Pinto-The_Evil_Fairy_Queen_(Motion_Picture_Soundtrack)-OST-WEB-2024-ENRiCH
2024-04-18 16:00:59 MP3-WEB Paipy-Into_The_Sky-(AVAW326)-WEB-2024-AFO
2024-04-18 16:01:04 TV-WEB-HD-X264 Open.Minds.With.Regina.Meredith.S24E01.1080p.WEB.H264-SKYFiRE
2024-04-18 16:01:22 MP3-WEB Chris_SX-Void_Effect-(DMGD163)-WEB-2024-AFO
2024-04-18 16:01:23 MP3-WEB Rob_Lord-How_To_Date_Billy_Walsh_(Original_Motion_Picture_Soundtrack)-OST-WEB-2024-ENRiCH
2024-04-18 16:01:32 MP3-WEB Blazing_Eternity-A_Certain_End_Of_Everything-WEB-2024-ENTiTLED
2024-04-18 16:01:55 MP3-WEB Nocturna-Of_Sorcery_And_Darkness-WEB-2024-ENTiTLED
2024-04-18 16:02:18 FLAC-WEB Blazing_Eternity-A_Certain_End_Of_Everything-16BIT-WEB-FLAC-2024-ENTiTLED
2024-04-18 16:02:34 MP3-WEB Victor_Special_and_Airdream-Autumn_Haze_Before_Sunrise-(R2R067)-WEB-2024-AFO
2024-04-18 16:02:47 MP3-WEB Jean_Claude_Ades_and_Re.you-Together-(SCM025B)-WEB-2024-AFO
2024-04-18 16:02:57 NSW Wand_of_Fortune_R_for_Nintendo_Switch_CHT_NSW-HR
2024-04-18 16:03:02 FLAC-WEB Nocturna-Of_Sorcery_And_Darkness-16BIT-WEB-FLAC-2024-ENTiTLED
2024-04-18 16:03:07 FLAC-WEB Jean_Claude_Ades_and_Re.you-Together-(SCM025B)-24BIT-WEB-FLAC-2024-AFO
2024-04-18 16:03:31 MP3-WEB Sean_Tyas_pres_Abstrkt-For_The_Low-(DGEN046)-WEB-2024-AFO
2024-04-18 16:03:51 MP3-WEB Floodfall-Unbroken-WEB-2024-ENViED
2024-04-18 16:03:53 TV-WEB-HD-X264 Open.Minds.With.Regina.Meredith.S24E01.720p.WEB.H264-SKYFiRE
2024-04-18 16:04:00 MP3-WEB Simon_Gregory-Fool_Me_Once-(MND357)-WEB-2024-AFO
2024-04-18 16:05:12 MP3-WEB Balance_Of_Power-Fresh_From_The_Abyss-WEB-2024-ENTiTLED
2024-04-18 16:06:00 FLAC-WEB Verikalpa-Tuomio-FI-24BIT-WEB-FLAC-2024-MOONBLOOD
2024-04-18 16:06:08 MP3-WEB Aversion_And_Dimitri_K_-_Stop_Playing-(DQ003)-WEB-2024-SRG
2024-04-18 16:06:15 MP3-WEB Penta_-_Time_2_Pay-(FWXXDIGI182)-SINGLE-WEB-2024-SRG
2024-04-18 16:06:21 MP3-WEB Skitzaph0nic_-_D1st0rted_Visions-(PRSPCT318)-WEB-2024-SRG
2024-04-18 16:06:28 MP3-WEB The_Unknown_-_The_Drums-(DVNT038)-WEB-2024-SRG
2024-04-18 16:07:14 MP3-WEB Alexic_Rod-What_Are_You_Doing-(UV212)-WEB-2024-AFO
2024-04-18 16:07:30 MP3-WEB Gerard_FM-Dont_Lie-(GKR285)-SINGLE-WEB-2024-AFO
2024-04-18 16:07:44 FLAC-WEB Gerard_FM-Dont_Lie-(GKR285)-SINGLE-16BIT-WEB-FLAC-2024-AFO
2024-04-18 16:07:54 MP3-WEB Tomorrows_Rain-Ovdan-WEB-2024-ENTiTLED
2024-04-18 16:07:54 MP3-WEB Leo_Ferro_and_Samwell_(LU)-Feelings-(PRST098)-SINGLE-WEB-2024-AFO
2024-04-18 16:08:28 TV-WEB-HD-X264 Open.Minds.With.Regina.Meredith.S24E02.1080p.WEB.H264-SKYFiRE
2024-04-18 16:09:15 MP3-WEB Neither_Nor-Immaterial-ODD084-WEB-2024-WAV
2024-04-18 16:09:36 MP3-WEB Karla_Sofia_and_Tatook-Payasa_Triste-(TEM006)-WEB-2024-PTC
2024-04-18 16:09:53 MP3-WEB Lovilla-Really_Funk-(RETI007)-WEB-2024-PTC
2024-04-18 16:11:03 TV-WEB-HD-X264 Open.Minds.With.Regina.Meredith.S24E02.720p.WEB.H264-SKYFiRE
2024-04-18 16:11:12 MP3-WEB Acylum-Zuchthaus-WEB-2024-ENRiCH
2024-04-18 16:11:44 MP3-WEB Dawn_of_Ashes-Reopening_The_Scars-WEB-2024-ENRiCH
2024-04-18 16:12:37 FLAC-WEB Neither_Nor-Immaterial-(ODD084)-16BIT-WEB-FLAC-2024-PTC
2024-04-18 16:13:26 FLAC-WEB Four_Candles-Hidden_Beauty-(TENA122)-24BIT-WEB-FLAC-2024-AFO
2024-04-18 16:14:06 MP3-WEB Ivan_Novikov-Neon-(BP11802024)-WEB-2024-AFO
2024-04-18 16:14:30 MP3-WEB Implant-No_More_Flies_On_The_Windscreen_(The_Chaos_Machines_Part_1)-WEB-2024-ENRiCH
2024-04-18 16:14:32 FLAC-WEB Neither_Nor-Immaterial-ODD084-16BIT-WEB-FLAC-2024-WAVED
2024-04-18 16:14:32 FLAC-WEB Pontanes-Walker-(LTU099)-SINGLE-24BIT-WEB-FLAC-2024-AFO
2024-04-18 16:14:59 FLAC-WEB ID_Project-Atilla-(KLT132)-16BIT-WEB-FLAC-2024-AFO
2024-04-18 16:15:15 TV-WEB-HD-X264 Open.Minds.With.Regina.Meredith.S24E03.1080p.WEB.H264-SKYFiRE
2024-04-18 16:15:32 MP3-WEB Sweet_Ermengarde-Sacrifice-WEB-2024-ENRiCH
2024-04-18 16:15:47 MP3-WEB Koala-Midnight-(BAW094)-SINGLE-WEB-2024-AFO
2024-04-18 16:16:03 FLAC-WEB Koala-Midnight-(BAW094)-SINGLE-24BIT-WEB-FLAC-2024-AFO
2024-04-18 16:16:06 TV-WEB-HD-X264 Boruto.Naruto.Next.Generations.E246.CUSTOM.MULTi.1080p.WEB.x264-AMB3R
2024-04-18 16:16:12 TV-WEB-HD-X264 Boruto.Naruto.Next.Generations.E247.CUSTOM.MULTi.1080p.WEB.x264-AMB3R
2024-04-18 16:16:19 TV-WEB-HD-X264 Boruto.Naruto.Next.Generations.E248.CUSTOM.MULTi.1080p.WEB.x264-AMB3R
2024-04-18 16:16:26 TV-WEB-HD-X264 Boruto.Naruto.Next.Generations.E249.CUSTOM.MULTi.1080p.WEB.x264-AMB3R
2024-04-18 16:16:31 MP3-WEB David_Hopperman_and_Natema_and_Joezi-Zulu_(_Joezi_Remix_)-(TRANSA656)-SINGLE-WEB-2024-AFO
2024-04-18 16:16:36 TV-WEB-HD-X264 Boruto.Naruto.Next.Generations.E250.CUSTOM.MULTi.1080p.WEB.x264-AMB3R
2024-04-18 16:16:46 FLAC-WEB David_Hopperman_and_Natema_and_Joezi-Zulu_(_Joezi_Remix_)-(TRANSA656)-SINGLE-24BIT-WEB-FLAC-2024-AFO
2024-04-18 16:17:11 FLAC-WEB Alex_Kosh-I_Told_You-(SDM148)-16BIT-WEB-FLAC-2024-AFO
2024-04-18 16:17:24 MP3-WEB A-RIZE_-_Forsaken_(Edit)-SINGLE-WEB-2024-UTNG
2024-04-18 16:17:31 MP3-WEB D-Sturb_-_Through_My_Veins_(Edits)-WEB-2024-UTNG
2024-04-18 16:17:46 TV-WEB-HD-X264 Open.Minds.With.Regina.Meredith.S24E03.720p.WEB.H264-SKYFiRE
2024-04-18 16:17:49 MP3-WEB Dardi-Transition_Remix-(UGM120)-WEB-2024-PTC
2024-04-18 16:18:04 MP3-WEB Moderna_and_Theus_Mago-Blades-(BNR005)-WEB-2024-PTC
2024-04-18 16:18:19 MP3-WEB Synapsyche-Anti-WEB-2024-ENRiCH
2024-04-18 16:21:33 TV-WEB-HD-X264 Open.Minds.With.Regina.Meredith.S24E04.1080p.WEB.H264-SKYFiRE
2024-04-18 16:22:28 FLAC-WEB NOFX-Half_Album-EP-16BIT-WEB-FLAC-2024-ENRiCH
2024-04-18 16:22:36 MP3-WEB Nick_Brown_x_Nyko_From_Space_-_Moonlight-(4068992038995)-SINGLE-WEB-2024-ZzZz
2024-04-18 16:22:40 MP3-WEB Leach-New_Model_Of_Disbelief-WEB-2024-ENTiTLED
2024-04-18 16:23:12 MP3-WEB Loch_Vostok-Opus_Ferox_II_Mark_of_the_Beast-WEB-2024-ENTiTLED
2024-04-18 16:23:38 TV-WEB-HD-X264 Open.Minds.With.Regina.Meredith.S24E04.720p.WEB.H264-SKYFiRE
2024-04-18 16:24:27 MP3-WEB Extinct-Incitement_of_Violence-WEB-2024-ENTiTLED
2024-04-18 16:25:56 MP3-WEB Felipe_Reinheimer-Emepolis-(MGL206)-WEB-2024-PTC
2024-04-18 16:25:57 MP3-WEB Earthblood-Witchburner-EP-WEB-2024-ENTiTLED
2024-04-18 16:26:21 MP3-WEB Margaryan-Cest_Toi-(HDSM023)-WEB-2024-PTC
2024-04-18 16:26:28 MP3-WEB Savage_Wizdom-Whos_Laughing_Now-WEB-2024-ENTiTLED
2024-04-18 16:26:45 MP3-WEB Math_Smith-Waitomo-(ABST282)-WEB-2024-PTC
2024-04-18 16:27:10 MP3-WEB Slow_Child-Desert-(SAI070)-WEB-2024-PTC
2024-04-18 16:27:59 TV-WEB-HD-X264 Open.Minds.With.Regina.Meredith.S24E05.1080p.WEB.H264-SKYFiRE
2024-04-18 16:29:06 MP3-WEB Aftershock_And_Kirsten_-_Legends_Of_Tomorrow_(Edit)-SINGLE-WEB-2024-UTNG
2024-04-18 16:30:08 DOCU Super.Markt.2023-09-04.GERMAN.DOKU.HDTV.x264-ConNi
2024-04-18 16:30:15 DOCU Super.Markt.2023-09-04.GERMAN.DOKU.720p.HDTV.x264-ConNi
2024-04-18 16:30:18 DOCU Super.Markt.2024-04-08.GERMAN.DOKU.HDTV.x264-ConNi
2024-04-18 16:30:21 DOCU Super.Markt.2024-04-08.GERMAN.DOKU.720p.HDTV.x264-ConNi
2024-04-18 16:30:21 TV-WEB-HD-X264 Open.Minds.With.Regina.Meredith.S24E05.720p.WEB.H264-SKYFiRE
2024-04-18 16:30:23 DOCU WDR.Markt.2024-04-03.GERMAN.DOKU.HDTV.x264-ConNi
2024-04-18 16:30:28 DOCU WDR.Markt.2024-04-03.GERMAN.DOKU.720p.HDTV.x264-ConNi
2024-04-18 16:30:30 DOCU WDR.Markt.2024-04-10.GERMAN.DOKU.HDTV.x264-ConNi
2024-04-18 16:30:33 DOCU WDR.Markt.2024-04-10.GERMAN.DOKU.720p.HDTV.x264-ConNi
2024-04-18 16:30:45 MP3-WEB Chanel_Beads-Your_Day_Will_Come-WEB-2024-ENRiCH
2024-04-18 16:31:17 MP3-WEB Seafood_Sam-Standing_on_Giant_Shoulders-WEB-2024-ENRiCH
2024-04-18 16:31:49 MP3-WEB Shards-Byrd_Song-WEB-2024-ENRiCH
2024-04-18 16:32:52 MP3-WEB Tim_Savey_x_NomiT_x_EROCSIT_-_Weekend-(4068992034836)-SINGLE-WEB-2024-ZzZz
2024-04-18 16:33:21 FLAC-WEB Korpituli-Pohjola-FI-16BIT-WEB-FLAC-2024-MOONBLOOD
2024-04-18 16:34:51 TV-WEB-HD-X264 Open.Minds.With.Regina.Meredith.S24E06.1080p.WEB.H264-SKYFiRE
2024-04-18 16:34:58 MP3-WEB Breyth_and_Mavhungu-Vuwani-(DIYS028)-WEB-2024-PTC
2024-04-18 16:35:00 MP3-WEB Nuclear_Digital_Transistor-GHOST_PAIN_RMXS-(KPT020)-WEB-2024-PTC
2024-04-18 16:35:15 MP3-WEB Catch_The_Tail-Roma-(ITC090)-WEB-2024-PTC
2024-04-18 16:35:53 MP3-WEB Bikini_Body-Weird_Party-WEB-2024-ENRiCH
2024-04-18 16:35:55 MP3-WEB Walt_Deez-Night_Country-(STS958)-WEB-2024-PTC
2024-04-18 16:36:25 MP3-WEB Orchestroll-Hyperwide_Lustre-WEB-2024-ENRiCH
2024-04-18 16:36:56 MP3-WEB VA-Your_Kisses_Are_Like_Roses_Fado_Recordings_1914-1936-WEB-PT-2024-ENRiCH
2024-04-18 16:37:15 TV-WEB-HD-X264 Open.Minds.With.Regina.Meredith.S24E06.720p.WEB.H264-SKYFiRE
2024-04-18 16:37:28 MP3-WEB YNGFirefly-FLYSTER-WEB-SI-2024-ENRiCH
2024-04-18 16:37:59 MP3-WEB claire_rousay-sentiment-WEB-2024-ENRiCH
2024-04-18 16:38:29 MP3-WEB Khora-Gestures_of_Perception-WEB-2024-ENRiCH
2024-04-18 16:38:57 TV-WEB-HD-X264 Star.Trek.Discovery.S05E04.MULTi.1080p.WEB.H264-AMB3R
2024-04-18 16:39:01 MP3-WEB Olli_Ahvenlahti-Mirror_Mirror-WEB-2024-ENRiCH
2024-04-18 16:39:08 TV-WEB-HD-X264 Star.Trek.Discovery.S05E04.FRENCH.720p.WEB.H264-AMB3R
2024-04-18 16:39:15 TV-WEB-X264 Star.Trek.Discovery.S05E04.FRENCH.WEB.H264-AMB3R
2024-04-18 16:40:39 MP3-WEB Air_Formation-Air_Formation-WEB-2024-ENRiCH
2024-04-18 16:40:51 TV-WEB-HD-X264 Open.Minds.With.Regina.Meredith.S24E07.720p.WEB.H264-SKYFiRE
2024-04-18 16:43:43 MP3-WEB Emrah_Balkan-Frustration-(DEP0084)-WEB-2024-PTC
2024-04-18 16:43:56 MP3-WEB Tim_Fischer-Gluecklich_(Live)-WEB-DE-2024-ENRiCH
2024-04-18 16:44:05 MP3-WEB Ivan_Fabra_feat._Miss_Zagato-Poison-(BOITE079)-WEB-2024-PTC
2024-04-18 16:44:16 TV-WEB-HD-X264 The.Kelly.Clarkson.Show.2024.04.16.Nicole.Richie.720p.WEB.h264-DiRT
2024-04-18 16:44:24 MP3-WEB Meg_Ward-Sancturance-(UTTU153)-WEB-2024-PTC
2024-04-18 16:44:46 MP3-WEB Nicolas_Masseyeff-Life_Reshade_EP-(DVM021)-WEB-2024-PTC
2024-04-18 16:45:11 TV-WEB-HD-X264 The.Kelly.Clarkson.Show.2024.04.16.Nicole.Richie.1080p.WEB.h264-DiRT
2024-04-18 16:45:45 TV-WEB-HD-X264 Open.Minds.With.Regina.Meredith.S24E07.1080p.WEB.H264-SKYFiRE
2024-04-18 16:45:49 TV-WEB-HD-X264 Star.Trek.Discovery.S05E04.GERMAN.DL.1080p.WEB.h264-SAUERKRAUT
2024-04-18 16:45:49 TV-WEB-HD-X264 Star.Trek.Discovery.S05E04.GERMAN.DL.720p.WEB.h264-SAUERKRAUT
2024-04-18 16:45:59 TV-WEB-HD-X264 The.Young.and.the.Restless.S51E135.720p.WEB.h264-DiRT
2024-04-18 16:46:52 TV-WEB-HD-X264 The.Young.and.the.Restless.S51E135.1080p.WEB.h264-DiRT
2024-04-18 16:48:36 FLAC-WEB Lo_Moon-I_Wish_You_Way_More_Than_Luck-16BIT-WEB-FLAC-2024-ENRiCH
2024-04-18 16:50:14 MP3-WEB Klaas_-_Blame_It_On_My_Heart-SINGLE-WEB-2024-ZzZz
2024-04-18 16:50:33 TV-WEB-HD-X264 Open.Minds.With.Regina.Meredith.S24E08.1080p.WEB.H264-SKYFiRE
2024-04-18 16:51:44 MP3-WEB Aramitt-Ghost-(SOV412)-WEB-2024-PTC
2024-04-18 16:52:00 MP3-WEB Enrique_Iturralde-Its_Funky-(FRI024)-WEB-2024-PTC
2024-04-18 16:52:24 MP3-WEB Max_Lyazgin_feat._AUTBOY-Helen-(SOV415)-WEB-2024-PTC
2024-04-18 16:52:45 XXX-iMAGESET PlayboyPlus.com_23.01.02.Kay.Lovely.Pursuing.Passion.XXX.iMAGESET-LEWD
2024-04-18 16:53:15 XXX-iMAGESET PlayboyPlus.com_23.01.04.Alexis.Tae.Make.A.Move.XXX.iMAGESET-LEWD
2024-04-18 16:53:45 XXX-iMAGESET PlayboyPlus.com_23.01.06.Katie.Kush.Come.On.Home.XXX.iMAGESET-LEWD
2024-04-18 16:54:05 TV-WEB-HD-X264 Open.Minds.With.Regina.Meredith.S24E08.720p.WEB.H264-SKYFiRE
2024-04-18 16:54:16 XXX-iMAGESET PlayboyPlus.com_23.01.07.Natasha.Nesci.Playboy.Germany.XXX.iMAGESET-LEWD
2024-04-18 16:54:45 XXX-iMAGESET PlayboyPlus.com_23.01.09.Katy.Belle.On.The.Inside.XXX.iMAGESET-LEWD
2024-04-18 16:55:14 XXX-iMAGESET PlayboyPlus.com_23.01.11.KJ.Carter.Heat.Vision.XXX.iMAGESET-LEWD
2024-04-18 16:55:44 XXX-iMAGESET PlayboyPlus.com_23.01.13.Eliana.Unfolding.Passion.XXX.iMAGESET-LEWD
2024-04-18 16:56:15 XXX-iMAGESET PlayboyPlus.com_23.01.14.Julia.Rommelt.Playboy.Germany.2021.PMOY.XXX.iMAGESET-LEWD
2024-04-18 16:56:45 XXX-iMAGESET PlayboyPlus.com_23.01.16.Stephanie.Manescu.Urban.Abode.XXX.iMAGESET-LEWD
2024-04-18 16:57:15 XXX-iMAGESET PlayboyPlus.com_23.01.18.Jossa.Nova.Desert.Escape.XXX.iMAGESET-LEWD
2024-04-18 16:57:44 XXX-iMAGESET PlayboyPlus.com_23.01.20.Kenz.Kissah.Authority.Figure.XXX.iMAGESET-LEWD
2024-04-18 16:58:01 TV-WEB-HD-X264 Open.Minds.With.Regina.Meredith.S24E09.1080p.WEB.H264-SKYFiRE
2024-04-18 16:58:15 XXX-iMAGESET PlayboyPlus.com_23.01.21.Franziska.Distler.Playboy.Germany.XXX.iMAGESET-LEWD
2024-04-18 16:58:45 XXX-iMAGESET PlayboyPlus.com_23.01.23.Aziza.Restricted.Access.XXX.iMAGESET-LEWD
2024-04-18 16:59:14 XXX-iMAGESET PlayboyPlus.com_23.01.25.Londyn.Chanel.Spark.Plug.XXX.iMAGESET-LEWD
2024-04-18 16:59:45 XXX-iMAGESET PlayboyPlus.com_23.01.27.Kiara.Cole.First.Class.XXX.iMAGESET-LEWD
2024-04-18 17:00:15 XXX-iMAGESET PlayboyPlus.com_23.01.28.Sabrina.Bellani.Playboy.Germany.XXX.iMAGESET-LEWD
2024-04-18 17:00:35 MP3-WEB Jakobin_and_Rotciv-SPLIT_001-(LUV046)-WEB-2024-PTC
2024-04-18 17:00:45 XXX-iMAGESET PlayboyPlus.com_23.01.30.Unpublished.Winter.XXX.iMAGESET-LEWD
2024-04-18 17:00:59 TV-WEB-HD-X264 Laid-Back.Camp.S03E03.1080p.WEB.H264-KAWAII
2024-04-18 17:01:03 MP3-WEB Vardae-Dance_With_The_Spirits-(KON021)-WEB-2024-PTC
2024-04-18 17:01:06 TV-WEB-HD-X264 Open.Minds.With.Regina.Meredith.S24E09.720p.WEB.H264-SKYFiRE
2024-04-18 17:01:31 MP3-WEB VA-Rooted_Rythms_VA-(MYVA001)-WEB-2024-PTC
2024-04-18 17:02:16 FLAC Slingshot_Dakota-Keener_Sighs-CD-FLAC-2004-FAiNT
2024-04-18 17:07:06 FLAC-WEB Srd-Vragvmesiton-SK-16BIT-WEB-FLAC-2024-MOONBLOOD
2024-04-18 17:07:31 TV-WEB-HD-X264 Open.Minds.With.Regina.Meredith.S24E10.720p.WEB.H264-SKYFiRE
2024-04-18 17:07:40 MP3-WEB Belu_Colombo-Cupids_Soul_EP-(RSZ311)-WEB-2024-PTC
2024-04-18 17:07:55 MP3-WEB Paul_the_Horse-Sound_The_Alarm-(RR542)-WEB-2024-PTC
2024-04-18 17:08:14 MP3-WEB VA-CommonSense_Records_Vol._06-(CSR018)-WEB-2024-PTC
2024-04-18 17:12:05 TV-WEB-HD-X264 Open.Minds.With.Regina.Meredith.S24E11.1080p.WEB.H264-SKYFiRE
2024-04-18 17:13:29 MP3-WEB Ian_Lehman-The_Way_No_Way-RDL008-WEB-2024-WAV
2024-04-18 17:14:07 MP3-WEB Berto_(DE)-New_Wave_The_Remixes-(SW053)-WEB-2024-PTC
2024-04-18 17:14:18 MP3-WEB Dani_Sbert-Yatevore-(CHLORE056)-WEB-2024-PTC
2024-04-18 17:14:33 MP3-WEB MarAxe-Freak_EP-(SCOURGE008)-WEB-2024-PTC
2024-04-18 17:14:42 TV-WEB-HD-X264 Open.Minds.With.Regina.Meredith.S24E11.720p.WEB.H264-SKYFiRE
2024-04-18 17:14:45 MP3-WEB NFNTCLST-Reflected_In_The_Darkness-(MORB022)-WEB-2024-PTC
2024-04-18 17:16:39 FLAC-WEB Ian_Lehman-The_Way_No_Way-RDL008-24BIT-WEB-FLAC-2024-WAVED
2024-04-18 17:17:29 TV-WEB-HD-X264 Open.Minds.With.Regina.Meredith.S24E12.720p.WEB.H264-SKYFiRE
2024-04-18 17:20:16 MP3-WEB Dancecore_N3rd-Hit_The_Highway_(Remix_Edition)-(10303036)-WEB-2024-MARiBOR
2024-04-18 17:20:25 MP3-WEB Dancecore_N3rd-Frozen_(Remix_Edition)-(10303040)-WEB-2024-MARiBOR
2024-04-18 17:22:05 TV-WEB-HD-X264 Open.Minds.With.Regina.Meredith.S24E12.1080p.WEB.H264-SKYFiRE
2024-04-18 17:23:00 MP3-WEB Fausto-Enclosure-(TMMLTD039)-WEB-2023-PTC
2024-04-18 17:23:24 MP3-WEB Ferdinando_Daneri-Techno-Capsule-(LST892)-WEB-2024-PTC
2024-04-18 17:23:53 MP3-WEB Nyn_Lou-Longing_For_A_Lost_Time-(MIMOTON025)-WEB-2024-PTC
2024-04-18 17:24:12 MP3-WEB Oldschool_Dubtechno_.Producer-Sacred_Code_of_the_Absolute-(LBRTHY117)-WEB-2024-PTC
2024-04-18 17:24:45 MP3-WEB Triggered_Hints-Concrete_Prairie-(ND053)-WEB-2024-PTC
2024-04-18 17:25:47 TV-WEB-HD-X264 Open.Minds.With.Regina.Meredith.S24E13.1080p.WEB.H264-SKYFiRE
2024-04-18 17:26:07 MP3-WEB Dimitri_Vegas_and_Like_Mike_x_Regard_x_Natti_Natasha_x_Sash_-_To_The_Beat-SINGLE-WEB-2024-ZzZz
2024-04-18 17:28:18 TV-WEB-HD-X264 Open.Minds.With.Regina.Meredith.S24E13.720p.WEB.H264-SKYFiRE
2024-04-18 17:28:28 MP3-WEB Nico_Names-Meine_Schoensten_Lieder-WEB-DE-2024-NICOJAMES
2024-04-18 17:28:46 MP3 Corrupted-Loss-7_INCH_VINYL-JP-2015-iTS
2024-04-18 17:29:42 MP3-ViNYL Mindkiller-Mindkiller-7_INCH_VINYL-2021-iTS
2024-04-18 17:29:47 MP3-WEB Analog_Novice-Resonate-(BUR280)-WEB-2024-PTC
2024-04-18 17:30:02 MP3-WEB Jeremias_Clerici-Acid_Call-(SUR210)-WEB-2024-PTC
2024-04-18 17:30:13 MP3-WEB Sandro_Mure-Make_You_Believe-(DM411)-WEB-2024-PTC
2024-04-18 17:30:59 MP3-ViNYL No_Fucker-No_Future-FLEXI-7_INCH_VINYL-2023-iTS
2024-04-18 17:31:55 TV-WEB-HD-X264 Open.Minds.With.Regina.Meredith.S24E14.1080p.WEB.H264-SKYFiRE
2024-04-18 17:32:00 FLAC Corrupted-Loss-JP-7_INCH_VINYL-FLAC-2015-FiXIE
2024-04-18 17:32:44 XXX-iMAGESET PlayboyPlus.com_23.02.01.Minxie.Bed.And.Bath.XXX.iMAGESET-LEWD
2024-04-18 17:33:13 XXX-iMAGESET PlayboyPlus.com_23.02.03.CJ.Sparxx.Quite.The.View.XXX.iMAGESET-LEWD
2024-04-18 17:33:27 FLAC Full_Of_Hell_And_Code_Orange_Kids-Full_Of_Hell_Code_Orange_Kids-SPLIT-7_INCH_VINYL-FLAC-2013-FiXIE
2024-04-18 17:33:43 XXX-iMAGESET PlayboyPlus.com_23.02.04.Sophie.Brill.Playboy.Germany.XXX.iMAGESET-LEWD
2024-04-18 17:34:13 XXX-iMAGESET PlayboyPlus.com_23.02.06.Li.Moon.Stripped.Down.XXX.iMAGESET-LEWD
2024-04-18 17:34:30 MP3-WEB Cadence_Weapon-Rollercoaster-WEB-2024-ENRiCH
2024-04-18 17:34:44 XXX-iMAGESET PlayboyPlus.com_23.02.08.Eliana.Western.Style.XXX.iMAGESET-LEWD
2024-04-18 17:35:14 XXX-iMAGESET PlayboyPlus.com_23.02.10.MelRose.Michaels.Classic.Fantasy.XXX.iMAGESET-LEWD
2024-04-18 17:35:43 XXX-iMAGESET PlayboyPlus.com_23.02.11.Julia.Prokopy.Olivia.Peltzer.And.Veronika.Klimovits.Playboy.Germany.Casino.Night.XXX.iMAGESET-LEWD
2024-04-18 17:36:14 XXX-iMAGESET PlayboyPlus.com_23.02.13.Kaitlynn.Anderson.And.Amber.Rose.Dream.Date.XXX.iMAGESET-LEWD
2024-04-18 17:36:29 FLAC Mindkiller-Mindkiller-7_INCH_VINYL-FLAC-2021-FiXIE
2024-04-18 17:36:44 XXX-iMAGESET PlayboyPlus.com_23.02.15.Emjay.Rinaudo.Tropical.Heat.XXX.iMAGESET-LEWD
2024-04-18 17:37:11 TV-WEB-HD-X265 A.Gentleman.in.Moscow.S01E04.HDR.2160p.WEB.H265-SnobbishGabbyWalrusOfAwe
2024-04-18 17:37:14 XXX-iMAGESET PlayboyPlus.com_23.02.17.MelRose.Michaels.Pleasure.Garden.XXX.iMAGESET-LEWD
2024-04-18 17:37:29 TV-WEB-HD-X265 A.Gentleman.in.Moscow.S01E04.DV.2160p.WEB.H265-SnobbishGabbyWalrusOfAwe
2024-04-18 17:37:29 MP3-WEB AM.I-The_Aftermath-(APX009)-WEB-2024-PTC
2024-04-18 17:37:33 MP3-WEB Brennholz-Heut_Isch_Brennholz_Party-WEB-DE-2024-BRENNHOLZ
2024-04-18 17:37:44 XXX-iMAGESET PlayboyPlus.com_23.02.18.Emilia.Jung.Playboy.Germany.XXX.iMAGESET-LEWD
2024-04-18 17:37:48 MP3-WEB AWAK7N-The_Biggest_Illusion-(SUR216)-WEB-2024-PTC
2024-04-18 17:38:08 MP3-WEB Marck_D_and_Alex_Ocampo-Im_Ready-(UNI279)-WEB-2024-PTC
2024-04-18 17:38:14 XXX-iMAGESET PlayboyPlus.com_23.02.20.Kay.Lovely.Expose.Yourself.XXX.iMAGESET-LEWD
2024-04-18 17:38:24 MP3-WEB Marck_D-Here_We_Go-(UNI276)-WEB-2024-PTC
2024-04-18 17:38:37 XXX-COMPLETE Daisy.May.1979.A.Formal.Faucett.1978.XXX.COMPLETE.BLURAY-FULLBRUTALiTY
2024-04-18 17:38:44 XXX-iMAGESET PlayboyPlus.com_23.02.22.Scarlett.Bloom.Steady.State.XXX.iMAGESET-LEWD
2024-04-18 17:38:59 TV-WEB-HD-X264 Open.Minds.With.Regina.Meredith.S24E15.1080p.WEB.H264-SKYFiRE
2024-04-18 17:39:13 XXX-iMAGESET PlayboyPlus.com_23.02.24.Sky.Bri.In.The.Limelight.XXX.iMAGESET-LEWD
2024-04-18 17:39:43 XXX-iMAGESET PlayboyPlus.com_23.02.25.Sanlly.Julieth.Playboy.Spain.XXX.iMAGESET-LEWD
2024-04-18 17:40:10 MP3-WEB Groovyn_x_ILURO_x_No_Expression_-_Every_Time_We_Touch-(SOV588)-SINGLE-WEB-2024-ZzZz
2024-04-18 17:40:14 XXX-iMAGESET PlayboyPlus.com_23.02.27.Unpublished.February.XXX.iMAGESET-LEWD
2024-04-18 17:40:42 FLAC No_Fucker-No_Future-FLEXI-FLAC-2023-FiXIE
2024-04-18 17:40:43 TV-WEB-HD-X265 Dinner.with.the.Parents.S01E04.2160p.WEB.H265-LAZYCUNTS
2024-04-18 17:40:49 TV-WEB-HD-X265 Dinner.with.the.Parents.S01E02.2160p.WEB.H265-LAZYCUNTS
2024-04-18 17:40:52 TV-WEB-HD-X265 Dinner.with.the.Parents.S01E01.2160p.WEB.H265-LAZYCUNTS
2024-04-18 17:40:53 TV-WEB-HD-X265 Dinner.with.the.Parents.S01E03.2160p.WEB.H265-LAZYCUNTS
2024-04-18 17:41:22 TV-WEB-HD-X264 Open.Minds.With.Regina.Meredith.S24E15.720p.WEB.H264-SKYFiRE
2024-04-18 17:41:43 MP3-WEB Die_Turbolaender-Auf_Ins_Turboland-WEB-DE-2024-TURBOLAND
2024-04-18 17:43:29 TV-WEB-HD-X265 Dinner.with.the.Parents.S01E04.HDR.2160p.WEB.H265-LAZYCUNTS
2024-04-18 17:43:38 TV-WEB-HD-X265 Dinner.with.the.Parents.S01E01.HDR.2160p.WEB.H265-LAZYCUNTS
2024-04-18 17:43:41 TV-WEB-HD-X265 Dinner.with.the.Parents.S01E03.HDR.2160p.WEB.H265-LAZYCUNTS
2024-04-18 17:43:44 TV-WEB-HD-X265 Dinner.with.the.Parents.S01E02.HDR.2160p.WEB.H265-LAZYCUNTS
2024-04-18 17:44:58 TV-WEB-HD-X264 Open.Minds.With.Regina.Meredith.S24E16.1080p.WEB.H264-SKYFiRE
2024-04-18 17:45:18 XXX-COMPLETE Inside.Little.Oral.Annie.1984.Little.Oral.Annie.Takes.Manhattan.1987.XXX.COMPLETE.BLURAY-FULLBRUTALiTY
2024-04-18 17:46:27 MP3-WEB Kings_Of_Leon-Nothing_To_Do-SINGLE-WEB-2024-ENViED
2024-04-18 17:47:53 FLAC-WEB Atrae_Bilis-Aumicide-24BIT-WEB-FLAC-2024-MOONBLOOD
2024-04-18 17:47:55 MP3-WEB Gaga_and_Mateo-Crimes-(DFR361)-WEB-2024-PTC
2024-04-18 17:47:56 TV-WEB-HD-X264 Open.Minds.With.Regina.Meredith.S24E16.720p.WEB.H264-SKYFiRE
2024-04-18 17:48:18 MP3-WEB G-EX_and_Mainstay-Utopia-(RC295)-WEB-2024-PTC
2024-04-18 17:48:39 FLAC-WEB Engulfed-Unearthly_Litanies_of_Despair-16BIT-WEB-FLAC-2024-MOONBLOOD
2024-04-18 17:48:46 MP3-WEB Schroomp-Nineties_Rave-(AKR087)-WEB-2024-PTC
2024-04-18 17:49:10 MP3-WEB Sotet-Gravity_EP-(ASGBR231)-WEB-2024-PTC
2024-04-18 17:49:24 FLAC-WEB Uttertomb-Nebulas_of_Self-Desecration-24BIT-WEB-FLAC-2024-MOONBLOOD
2024-04-18 17:53:38 MP3-WEB VA-NOX_Volume_VI-(TGNR170)-WEB-2024-PTC
2024-04-18 17:54:07 MP3-WEB Banners-All_Back_to_Mine-WEB-2024-ENRiCH
2024-04-18 17:54:38 MP3-WEB Dead_Pony-IGNORE_THIS-WEB-2024-ENRiCH
2024-04-18 17:55:11 MP3-WEB Flowered_Up-A_Life_With_Brian-REMASTERED-WEB-2024-ENRiCH
2024-04-18 17:55:28 MP3-WEB Local_Natives-But_Ill_Wait_For_You-WEB-2024-ENRiCH
2024-04-18 17:55:43 MP3-WEB Hot_Joy-Small_Favor-EP-WEB-2024-ENRiCH
2024-04-18 17:56:15 MP3-WEB Mahogany_L._Browne_and_Sean_Mason-Chrome_Valley-WEB-2024-ENRiCH
2024-04-18 17:56:27 MP3-WEB Hawkestrel-Chaos_Rocks-WEB-2024-ENViED
2024-04-18 17:56:47 MP3-WEB Tei_Shi-Valerie-WEB-2024-ENRiCH
2024-04-18 17:56:58 MP3-WEB Ian_Hunter-Defiance_Part_2_Fiction-WEB-2024-ENViED
2024-04-18 17:57:16 XXX-COMPLETE Stud.Hunters.1984.XXX.COMPLETE.BLURAY-FULLBRUTALiTY
2024-04-18 17:58:10 X265-HD Toy.Story.4.2019.FiNNiSH.DV.2160p.WEB.H265-TOOSA
2024-04-18 17:58:32 FLAC-WEB Pearl_Jam-Dark_Matter-24BIT-48KHZ-WEB-FLAC-2024-RUIDOS
2024-04-18 17:59:08 MP3-WEB Billy_Morrison-The_Morrison_Project-WEB-2024-ENViED
2024-04-18 18:00:11 X265-HD Toy.Story.4.2019.FiNNiSH.HDR.2160p.WEB.H265-TOOSA
2024-04-18 18:00:47 TV-WEB-HD-X264 An.Archdemons.Dilemma.How.to.Love.Your.Elf.Bride.S01E04.1080p.WEB.H264-KAWAII
2024-04-18 18:01:36 MP3-WEB Orbital-Orbital_(The_Green_Album_Expanded)-WEB-2024-ENRiCH
2024-04-18 18:03:19 TV-WEB-X264 The.Morning.Show.S02E01.Die.Kunst.des.Pokerns.German.DL.Webrip.x264-TVARCHiV
2024-04-18 18:06:31 XXX-iMAGESET PlayboyPlus.com_23.03.01.Kenz.Kissah.Hidden.Talent.XXX.iMAGESET-LEWD
2024-04-18 18:06:37 X264-HD Ranma.Un.Demi.Film.3.Ranma.Contre.Le.Phoenix.Legendaire.1994.SUBFRENCH.1080p.WEB.H264-AMB3R
2024-04-18 18:07:02 XXX-iMAGESET PlayboyPlus.com_23.03.03.Keep.Chambers.Inner.Color.XXX.iMAGESET-LEWD
2024-04-18 18:07:20 MP3-WEB Michael_Aldag-sorry_for_everything-WEB-2024-ENRiCH
2024-04-18 18:07:32 XXX-iMAGESET PlayboyPlus.com_23.03.04.Sophie.Brill.Playboy.Germany.Vol.2.XXX.iMAGESET-LEWD
2024-04-18 18:07:59 FLAC-WEB Orbital-Orbital_(The_Green_Album_Expanded)-16BIT-WEB-FLAC-2024-ENRiCH
2024-04-18 18:08:02 XXX-iMAGESET PlayboyPlus.com_23.03.06.Sadie.Gray.Positive.Space.XXX.iMAGESET-LEWD
2024-04-18 18:08:21 TV-WEB-HD-X264 Going.Home.With.Tyler.Cameron.S01E01.720p.WEB.H264-RABiDS
2024-04-18 18:08:31 XXX-iMAGESET PlayboyPlus.com_23.03.08.Jossa.Nova.Mind.Games.XXX.iMAGESET-LEWD
2024-04-18 18:08:34 TV-WEB-HD-X264 Going.Home.With.Tyler.Cameron.S01E02.720p.WEB.H264-RABiDS
2024-04-18 18:08:47 TV-WEB-HD-X264 Going.Home.With.Tyler.Cameron.S01E03.720p.WEB.H264-RABiDS
2024-04-18 18:09:02 XXX-iMAGESET PlayboyPlus.com_23.03.10.Alexis.Texas.Drop.Top.XXX.iMAGESET-LEWD
2024-04-18 18:09:27 TV-WEB-HD-X264 Going.Home.With.Tyler.Cameron.S01E04.720p.WEB.H264-RABiDS
2024-04-18 18:09:31 XXX-iMAGESET PlayboyPlus.com_23.03.11.Rania.Gamal.And.Yevgeniya.Pechlaner.Playboy.Spain.XXX.iMAGESET-LEWD
2024-04-18 18:09:39 TV-WEB-HD-X264 Going.Home.With.Tyler.Cameron.S01E05.720p.WEB.H264-RABiDS
2024-04-18 18:09:53 TV-WEB-HD-X264 Going.Home.With.Tyler.Cameron.S01E06.720p.WEB.H264-RABiDS
2024-04-18 18:10:02 XXX-iMAGESET PlayboyPlus.com_23.03.13.Jane.Wilde.Just.Like.Magic.XXX.iMAGESET-LEWD
2024-04-18 18:10:05 TV-WEB-HD-X264 Going.Home.With.Tyler.Cameron.S01E07.720p.WEB.H264-RABiDS
2024-04-18 18:10:18 TV-WEB-HD-X264 Going.Home.With.Tyler.Cameron.S01E08.720p.WEB.H264-RABiDS
2024-04-18 18:10:31 XXX-iMAGESET PlayboyPlus.com_23.03.15.Luci.Lane.Spring.Bloom.XXX.iMAGESET-LEWD
2024-04-18 18:10:51 MP3-WEB All_Will_Know-Parhelion-WEB-2024-ENTiTLED
2024-04-18 18:11:02 XXX-iMAGESET PlayboyPlus.com_23.03.17.Alexis.Texas.Natural.Needs.XXX.iMAGESET-LEWD
2024-04-18 18:11:23 MP3-WEB Bloody_Falls-Amartia-WEB-2024-ENTiTLED
2024-04-18 18:11:24 MP3-WEB Da_Klubb_Kings_-_Rock-WEB-2024-ZzZz
2024-04-18 18:11:32 XXX-iMAGESET PlayboyPlus.com_23.03.18.Gia.Ramey-Gay.Playboy.Mexico.XXX.iMAGESET-LEWD
2024-04-18 18:11:41 XXX-HD KarupsHA.24.02.05.Sona.Bella.Pussy.For.Pizza.XXX.1080p.MP4-2FA
2024-04-18 18:11:55 MP3-WEB Oak_Ash_and_Thorn-Our_Grief_Is_Thus-WEB-2024-ENTiTLED
2024-04-18 18:12:03 XXX-iMAGESET PlayboyPlus.com_23.03.20.CJ.Sparxx.California.Shore.XXX.iMAGESET-LEWD
2024-04-18 18:12:26 MP3-WEB Opium_Death-Genocidal_Nemesis-WEB-2024-ENTiTLED
2024-04-18 18:12:32 XXX-iMAGESET PlayboyPlus.com_23.03.22.SaBrea.Phenix.Glowing.Light.XXX.iMAGESET-LEWD
2024-04-18 18:12:57 MP3-WEB Ravage-Spider_on_the_World-WEB-2024-ENTiTLED
2024-04-18 18:13:02 XXX-iMAGESET PlayboyPlus.com_23.03.24.Alexis.Texas.Acting.On.Impulse.XXX.iMAGESET-LEWD
2024-04-18 18:13:16 XXX-HD KarupsOW.24.02.06.Fanny.Bell.Skinny.Blonde.Fanny.XXX.1080p.MP4-2FA
2024-04-18 18:13:29 MP3-WEB Selbst-Despondency_Chord_Progressions-WEB-2024-ENTiTLED
2024-04-18 18:13:32 XXX-iMAGESET PlayboyPlus.com_23.03.25.Aline.Riscado.Playboy.Brazil.XXX.iMAGESET-LEWD
2024-04-18 18:14:00 MP3-WEB Uttertomb-Nebulas_of_Self-Desecration-WEB-2024-ENTiTLED
2024-04-18 18:14:02 XXX-iMAGESET PlayboyPlus.com_23.03.27.Lisa.Modpali.Low.Tide.XXX.iMAGESET-LEWD
2024-04-18 18:14:32 XXX-iMAGESET PlayboyPlus.com_23.03.29.Maya.Myra.Daylight.Dream.XXX.iMAGESET-LEWD
2024-04-18 18:14:47 XXX-HD KarupsPC.24.02.07.Megan.Love.Provocative.Pussy.XXX.1080p.MP4-2FA
2024-04-18 18:15:02 XXX-iMAGESET PlayboyPlus.com_23.03.31.Unpublished.March.XXX.iMAGESET-LEWD
2024-04-18 18:15:57 MP3-WEB Krysta_Youngs_x_Stash_Konig_x_Liquid_Todd_-_Lets_Go_Back_(Wassu_Remix)-SINGLE-WEB-2024-ZzZz
2024-04-18 18:16:20 XXX-HD MrPOV.24.02.24.Sinatra.Monroe.Sexual.Healing.XXX.1080p.MP4-2FA
2024-04-18 18:17:07 MP3-WEB Johnny_Pluse_-_Any_Chance_U-(BLD383)-SINGLE-WEB-2024-ZzZz
2024-04-18 18:17:52 XXX-HD CuckHunter.24.04.15.Nadia.White.XXX.1080p.MP4-NBQ
2024-04-18 18:19:32 XXX-HD CuckHunter.24.04.15.Nadia.White.XXX.2160p.MP4-NBQ
2024-04-18 18:21:01 MP3-WEB Pokeyz_x_Lodgerz_-_Stay_Around-(UNCMN063E)-SINGLE-WEB-2024-ZzZz
2024-04-18 18:21:05 XXX-HD InTheCrack.E1899.Sasha.Sparrow.Provence.XXX.1080p.MP4-NBQ
2024-04-18 18:22:37 XXX-HD InTheCrack.E1899.Sasha.Sparrow.Provence.XXX.2160p.MP4-NBQ
2024-04-18 18:24:09 XXX-HD POVMasters.24.04.15.Lexi.Wond3rwoman.XXX.1080p.MP4-NBQ
2024-04-18 18:25:42 XXX-HD POVMasters.24.04.15.Lexi.Wond3rwoman.XXX.2160p.MP4-NBQ
2024-04-18 18:26:15 MP3-WEB Betcon-Love_Again-(GALL129)-SINGLE-WEB-2024-PTC
2024-04-18 18:27:05 MP3-WEB Dani_Sbert-Technology-(BB612)-SINGLE-WEB-2024-PTC
2024-04-18 18:27:14 XXX-HD Tushy.24.04.14.Alexis.Tae.XXX.1080p.MP4-NBQ
2024-04-18 18:27:20 MP3-WEB DJ_Erika-Cactus-(NEOREC281)-SINGLE-WEB-2024-PTC
2024-04-18 18:27:42 MP3-WEB Hilde_(BR)-Me_Quer_Bem-(LEK1039)-SINGLE-WEB-2024-PTC
2024-04-18 18:28:00 MP3-WEB Max_SA_feat._Tazia_Farrao-Array-(LEK1049)-SINGLE-WEB-2024-PTC
2024-04-18 18:28:00 FLAC-WEB Tomtrax-Sugar_Man-(HUF244)-24BIT-WEB-FLAC-2024-MARiBOR
2024-04-18 18:28:15 MP3-WEB Michael_Simon-Bunbroh-(AV064)-SINGLE-WEB-2024-PTC
2024-04-18 18:28:19 MP3-WEB Tomtrax-Sugar_Man-(HUF244)-WEB-2024-MARiBOR
2024-04-18 18:28:28 MP3-WEB Monniker-Muon-(TR16)-SINGLE-WEB-2024-PTC
2024-04-18 18:28:41 MP3-WEB Naya_EL-Somewhere-(SOVOR026)-SINGLE-WEB-2024-PTC
2024-04-18 18:28:54 MP3-WEB Princiotta-Home-(LMNL059)-WEB-2024-PTC
2024-04-18 18:29:09 MP3-WEB Undabezitha_Deep_SA-Muzik_We_Love-(JAR112)-SINGLE-WEB-2024-PTC
2024-04-18 18:29:26 MP3-WEB Voodoochild-Algerion-(W417)-SINGLE-WEB-2024-PTC
2024-04-18 18:31:07 XXX-COMPLETE Roommates.1982.XXX.COMPLETE.BLURAY-FULLBRUTALiTY
2024-04-18 18:33:35 MP3-WEB Sancha-Just_One_More_Day-(OSO061)-WEB-2024-PTC_INT
2024-04-18 18:36:57 MP3-WEB Johnny_Depprivation_-_Underwater-(PLASMADIGI618)-SINGLE-WEB-2024-ZzZz
2024-04-18 18:38:07 MP3-WEB Al_Storm_x_Rob_Iyf_x_Stompy_x_Bananaman_and_V-Star_-_Maniac-(247HC382)-SINGLE-WEB-2024-ZzZz
2024-04-18 18:39:54 MP3-WEB Splonie_-_Vienna_EP-(SPL001D)-WEB-2024-ZzZz
2024-04-18 18:41:27 MP3-WEB Alex_Guesta_-_I_Love_This_Game-(UDTW202401)-WEB-2024-ZzZz
2024-04-18 18:41:52 XXX-iMAGESET PlayboyPlus.com_23.04.01.Brina.Bizjak.Playboy.Slovenia.XXX.iMAGESET-LEWD
2024-04-18 18:42:09 MP3-WEB Deep_Crisis-Lights_Out__Body_Bag-(SHOTTA107)-WEB-2024-PTC
2024-04-18 18:42:21 XXX-iMAGESET PlayboyPlus.com_23.04.03.PaigeAmaze.Creative.Kick.XXX.iMAGESET-LEWD
2024-04-18 18:42:31 MP3-WEB Nickobella_and_NaOM1_and_M1CKY_-_Addicted_To_You-(SSL423)-SINGLE-WEB-2024-ZzZz
2024-04-18 18:42:51 XXX-iMAGESET PlayboyPlus.com_23.04.05.Jossa.Nova.Coastal.Capture.XXX.iMAGESET-LEWD
2024-04-18 18:42:52 MP3-WEB Dom_and_Roland-Climax__Rebellion-(SMDE42)-WEB-2024-PTC_INT
2024-04-18 18:43:10 MP3-WEB Echochambers-Bad_Vision__Cold_Soul-(AEN041)-WEB-2024-PTC
2024-04-18 18:43:21 XXX-iMAGESET PlayboyPlus.com_23.04.07.Jane.Wilde.Slice.Of.Heaven.XXX.iMAGESET-LEWD
2024-04-18 18:43:27 MP3-WEB ILL_Dynamics_ft._Propa_Tee-Different_Class-(KEV102)-WEB-2024-PTC
2024-04-18 18:43:38 NSW Frowntown_Update_v1.2.1_NSW-SUXXORS
2024-04-18 18:43:51 XXX-iMAGESET PlayboyPlus.com_23.04.08.Katarzyna.Chmiel.Playboy.Poland.XXX.iMAGESET-LEWD
2024-04-18 18:44:12 TV-WEB-HD-X264 Gym.S03E01.NORWEGiAN.1080p.WEB.h264-BAKFYLLA
2024-04-18 18:44:21 XXX-iMAGESET PlayboyPlus.com_23.04.10.Yung.Flower.Solo.Soiree.XXX.iMAGESET-LEWD
2024-04-18 18:44:38 MP3-WEB Rafiction_-_Be_The_One-(SPROP801)-SINGLE-WEB-2024-ZzZz
2024-04-18 18:44:41 TV-WEB-HD-X264 Gym.S03E01.NORWEGiAN.720p.WEB.h264-BAKFYLLA
2024-04-18 18:44:52 XXX-iMAGESET PlayboyPlus.com_23.04.12.Sky.Bri.Diamond.Cut.XXX.iMAGESET-LEWD
2024-04-18 18:45:10 NSW Golf_With_Your_Friends_Update_v1.0.12_NSW-SUXXORS
2024-04-18 18:45:22 XXX-iMAGESET PlayboyPlus.com_23.04.14.Katie.Kush.Summer.Anthem.XXX.iMAGESET-LEWD
2024-04-18 18:45:51 XXX-iMAGESET PlayboyPlus.com_23.04.15.Estella.Keller.Playboy.Germany.XXX.iMAGESET-LEWD
2024-04-18 18:45:59 NSW Golf_With_Your_Friends_v1.0.12_DLC_Unlocker_NSW-VENOM
2024-04-18 18:46:03 FLAC-WEB Bruce_Springsteen-Best_Of_Bruce_Springsteen-EXPANDED_EDITION-24BIT-96KHZ-WEB-FLAC-2024-RUIDOS
2024-04-18 18:46:18 TV-WEB-HD-X264 Gym.S03E02.NORWEGiAN.1080p.WEB.h264-BAKFYLLA
2024-04-18 18:46:22 XXX-iMAGESET PlayboyPlus.com_23.04.17.Londyn.Chanel.Heavens.Angel.XXX.iMAGESET-LEWD
2024-04-18 18:46:44 NSW NEEDY_STREAMER_OVERLOAD_Update_v1.2.1_NSW-SUXXORS
2024-04-18 18:46:52 XXX-iMAGESET PlayboyPlus.com_23.04.19.Yana.West.Stay.With.Me.XXX.iMAGESET-LEWD
2024-04-18 18:47:08 TV-WEB-HD-X264 Gym.S03E02.NORWEGiAN.720p.WEB.h264-BAKFYLLA
2024-04-18 18:47:14 TV-WEB-HD-X264 Scene.Da.Un.Matrimonio.S01E01.iTALiAN.1080p.WEB.H264-NEUROSiS
2024-04-18 18:47:22 XXX-iMAGESET PlayboyPlus.com_23.04.21.Alexis.Tae.Imitating.Art.XXX.iMAGESET-LEWD
2024-04-18 18:47:51 XXX-iMAGESET PlayboyPlus.com_23.04.22.Paulina.Mikolajczak.Playboy.Poland.XXX.iMAGESET-LEWD
2024-04-18 18:47:58 TV-WEB-HD-X264 Gym.S03E03.NORWEGiAN.1080p.WEB.h264-BAKFYLLA
2024-04-18 18:48:15 NSW nGolf_Update_v1.0.3_NSW-SUXXORS
2024-04-18 18:48:21 XXX-HD PlayboyPlus.23.04.24.Heather.Rae.Young.Playmates.REMASTERED.XXX.1080p.MP4-LEWD
2024-04-18 18:48:30 TV-WEB-HD-X264 Gym.S03E03.NORWEGiAN.720p.WEB.h264-BAKFYLLA
2024-04-18 18:48:51 XXX-HD PlayboyPlus.23.04.24.Heather.Rae.Young.Playmates.REMASTERED.XXX.2160p.MP4-LEWD
2024-04-18 18:49:21 TV-WEB-HD-X264 Gym.S03E04.NORWEGiAN.1080p.WEB.h264-BAKFYLLA
2024-04-18 18:49:22 XXX-iMAGESET PlayboyPlus.com_23.04.24.Heather.Rae.Young.Playmates.REMASTERED.XXX.iMAGESET-LEWD
2024-04-18 18:49:42 TV-WEB-HD-X264 Scene.Da.Un.Matrimonio.S01E02.iTALiAN.1080p.WEB.H264-NEUROSiS
2024-04-18 18:49:51 TV-WEB-HD-X264 Gym.S03E04.NORWEGiAN.720p.WEB.h264-BAKFYLLA
2024-04-18 18:49:52 XXX-iMAGESET PlayboyPlus.com_23.04.26.Sadie.Gray.Morning.Ritual.XXX.iMAGESET-LEWD
2024-04-18 18:50:00 MP3-WEB Jonathan_Baker-Slow_Nights-(HTR045)-SINGLE-WEB-2024-PTC
2024-04-18 18:50:21 MP3-WEB Lateral-The_Top-(YANA083)-SINGLE-WEB-2024-PTC
2024-04-18 18:50:23 XXX-iMAGESET PlayboyPlus.com_23.04.28.Scarlett.Bloom.Clear.Cut.XXX.iMAGESET-LEWD
2024-04-18 18:50:38 MP3-WEB Speaker_Louis_and_Natty_Campbell-Any_Sound_Test-(SHOTTA110)-SINGLE-WEB-2024-PTC
2024-04-18 18:50:51 XXX-iMAGESET PlayboyPlus.com_23.04.29.Stella.Tiana.Stegmann.Playboy.Germany.2020.PMOY.XXX.iMAGESET-LEWD
2024-04-18 18:51:24 TV-WEB-HD-X264 Love.Island.Norge.2020.S02E34.NORWEGiAN.1080p.WEB.h264-BAKFYLLA
2024-04-18 18:52:07 TV-WEB-HD-X264 Scene.Da.Un.Matrimonio.S01E03.iTALiAN.1080p.WEB.H264-NEUROSiS
2024-04-18 18:52:29 TV-WEB-HD-X264 Love.Island.Norge.2020.S02E34.NORWEGiAN.720p.WEB.h264-BAKFYLLA
2024-04-18 18:54:02 TV-WEB-HD-X264 Sommerhytta.S08E08.NORWEGiAN.1080p.WEB.h264-BAKFYLLA
2024-04-18 18:54:24 TV-WEB-HD-X264 Scene.Da.Un.Matrimonio.S01E04.iTALiAN.1080p.WEB.H264-NEUROSiS
2024-04-18 18:54:46 MP3-WEB VA-2023_Annual-(LDBEST33)-WEB-2024-PTC
2024-04-18 18:55:09 TV-WEB-HD-X264 Sommerhytta.S08E08.NORWEGiAN.720p.WEB.h264-BAKFYLLA
2024-04-18 18:55:20 GAMES-DOX Rise_of_the_Triad_Ludicrous_Edition_v1.1.2952-DINOByTES
2024-04-18 18:56:34 TV-WEB-HD-X264 Scene.Da.Un.Matrimonio.S01E05.iTALiAN.1080p.WEB.H264-NEUROSiS
2024-04-18 18:59:20 MP3-WEB Boostereo_x_TECHNO_KING_x_Nito-Onna_-_All_Of_Me_(HYPERTECHNO)-SINGLE-WEB-2024-ZzZz
2024-04-18 19:00:03 MP3-WEB VA_-_Workout_Spring_2024_Part_2-(TMR446)-WEB-2024-ZzZz_iNT
2024-04-18 19:00:30 FLAC-WEB Ghost-Note-Mustard_NOnions-24BIT-48KHZ-WEB-FLAC-2024-OBZEN
2024-04-18 19:00:57 TV-WEB-HD-X264 A.Condition.Called.Love.S01E03.1080p.WEB.H264-KAWAII
2024-04-18 19:01:17 FLAC-WEB Glen_Campbell-Glen_Campbell_Duets_Ghost_On_The_Canvas_Sessions-24BIT-96KHZ-WEB-FLAC-2024-OBZEN
2024-04-18 19:02:06 FLAC-WEB Ian_Hunter-Defiance_Part_2_Fiction-16BIT-WEB-FLAC-2024-OBZEN
2024-04-18 19:02:53 FLAC-WEB T_Bone_Burnett-The_Other_Side-24BIT-44KHZ-WEB-FLAC-2024-OBZEN
2024-04-18 19:03:40 FLAC-WEB U.F.O.-Covenant___Sharks-REMASTERED-16BIT-WEB-FLAC-2024-OBZEN
2024-04-18 19:03:45 TV-WEB-HD-X264 Scene.Da.Un.Matrimonio.S01E01.iTALiAN.720p.WEB.H264-NEUROSiS
2024-04-18 19:04:43 SPORTS MLB.2024.04.17.Minnesota.Twins.vs.Baltimore.Orioles.720p.WEB.h264-GAMENiGHT
2024-04-18 19:05:20 TV-WEB-HD-X264 Scene.Da.Un.Matrimonio.S01E02.iTALiAN.720p.WEB.H264-NEUROSiS
2024-04-18 19:06:22 TV-WEB-HD-X264 Scene.Da.Un.Matrimonio.S01E03.iTALiAN.720p.WEB.H264-NEUROSiS
2024-04-18 19:06:30 X265-HD Toy.Story.1995.FiNNiSH.DV.2160p.WEB.H265-TOOSA
2024-04-18 19:07:17 MP3-WEB ME.EE_-_Give_My_Heart-(SBTJ00121)-SINGLE-WEB-2024-ZzZz
2024-04-18 19:08:05 TV-WEB-HD-X264 Scene.Da.Un.Matrimonio.S01E04.iTALiAN.720p.WEB.H264-NEUROSiS
2024-04-18 19:08:27 MP3-WEB Albwho_-_Toxique-(LSSL017)-SINGLE-WEB-2024-ZzZz
2024-04-18 19:09:04 X265-HD Toy.Story.1995.FiNNiSH.HDR.2160p.WEB.H265-TOOSA
2024-04-18 19:09:29 MP3-WEB Aize_x_Ben_Plum_-_Monsoon-(SSL424)-SINGLE-WEB-2024-ZzZz
2024-04-18 19:09:53 TV-HD-X264 Star.Trek.Lower.Decks.S04E01.1080p.BluRay.x264-BORDURE
2024-04-18 19:09:54 TV-WEB-HD-X264 Scene.Da.Un.Matrimonio.S01E05.iTALiAN.720p.WEB.H264-NEUROSiS
2024-04-18 19:10:28 TV-HD-X264 Star.Trek.Lower.Decks.S04E02.1080p.BluRay.x264-BORDURE
2024-04-18 19:11:00 TV-HD-X264 Star.Trek.Lower.Decks.S04E03.1080p.BluRay.x264-BORDURE
2024-04-18 19:11:28 TV-HD-X264 Star.Trek.Lower.Decks.S04E04.1080p.BluRay.x264-BORDURE
2024-04-18 19:11:54 TV-WEB-HD-X264 Oak.Island.E.Il.Tesoro.Maledetto.S11E01.iTALiAN.1080p.WEB.H264-NEUROSiS
2024-04-18 19:11:59 TV-HD-X264 Star.Trek.Lower.Decks.S04E05.1080p.BluRay.x264-BORDURE
2024-04-18 19:12:26 TV-WEB-HD-X264 Oak.Island.E.Il.Tesoro.Maledetto.S11E02.iTALiAN.1080p.WEB.H264-NEUROSiS
2024-04-18 19:12:29 TV-HD-X264 Star.Trek.Lower.Decks.S04E06.1080p.BluRay.x264-BORDURE
2024-04-18 19:12:58 TV-HD-X264 Star.Trek.Lower.Decks.S04E07.1080p.BluRay.x264-BORDURE
2024-04-18 19:13:03 TV-WEB-HD-X264 Oak.Island.E.Il.Tesoro.Maledetto.S11E03.iTALiAN.1080p.WEB.H264-NEUROSiS
2024-04-18 19:13:29 TV-HD-X264 Star.Trek.Lower.Decks.S04E08.1080p.BluRay.x264-BORDURE
2024-04-18 19:13:38 TV-WEB-HD-X264 Oak.Island.E.Il.Tesoro.Maledetto.S11E04.iTALiAN.1080p.WEB.H264-NEUROSiS
2024-04-18 19:13:59 TV-HD-X264 Star.Trek.Lower.Decks.S04E09.1080p.BluRay.x264-BORDURE
2024-04-18 19:14:08 TV-WEB-HD-X264 Oak.Island.E.Il.Tesoro.Maledetto.S11E05.iTALiAN.1080p.WEB.H264-NEUROSiS
2024-04-18 19:14:29 TV-HD-X264 Star.Trek.Lower.Decks.S04E10.1080p.BluRay.x264-BORDURE
2024-04-18 19:14:39 TV-WEB-HD-X264 Oak.Island.E.Il.Tesoro.Maledetto.S11E06.iTALiAN.1080p.WEB.H264-NEUROSiS
2024-04-18 19:14:45 TV-HD-X264 Star.Trek.Lower.Decks.S04E01.720p.BluRay.x264-BORDURE
2024-04-18 19:14:58 TV-HD-X264 Star.Trek.Lower.Decks.S04E02.720p.BluRay.x264-BORDURE
2024-04-18 19:15:06 TV-WEB-HD-X264 Oak.Island.E.Il.Tesoro.Maledetto.S11E07.iTALiAN.1080p.WEB.H264-NEUROSiS
2024-04-18 19:15:17 TV-HD-X264 Star.Trek.Lower.Decks.S04E03.720p.BluRay.x264-BORDURE
2024-04-18 19:15:30 TV-WEB-HD-X264 Oak.Island.E.Il.Tesoro.Maledetto.S11E08.iTALiAN.1080p.WEB.H264-NEUROSiS
2024-04-18 19:15:39 TV-HD-X264 Star.Trek.Lower.Decks.S04E04.720p.BluRay.x264-BORDURE
2024-04-18 19:15:59 TV-WEB-HD-X264 Oak.Island.E.Il.Tesoro.Maledetto.S11E09.iTALiAN.1080p.WEB.H264-NEUROSiS
2024-04-18 19:16:01 TV-HD-X264 Star.Trek.Lower.Decks.S04E05.720p.BluRay.x264-BORDURE
2024-04-18 19:16:07 SPORTS MLB.2024.04.17.Texas.Rangers.vs.Detroit.Tigers.720p.WEB.h264-GAMENiGHT
2024-04-18 19:16:19 TV-HD-X264 Star.Trek.Lower.Decks.S04E06.720p.BluRay.x264-BORDURE
2024-04-18 19:16:31 TV-WEB-HD-X264 Oak.Island.E.Il.Tesoro.Maledetto.S11E10.iTALiAN.1080p.WEB.H264-NEUROSiS
2024-04-18 19:16:38 TV-HD-X264 Star.Trek.Lower.Decks.S04E07.720p.BluRay.x264-BORDURE
2024-04-18 19:16:59 TV-HD-X264 Star.Trek.Lower.Decks.S04E08.720p.BluRay.x264-BORDURE
2024-04-18 19:17:09 TV-HD-X264 Star.Trek.Lower.Decks.S04E09.720p.BluRay.x264-BORDURE
2024-04-18 19:17:20 TV-HD-X264 Star.Trek.Lower.Decks.S04E10.720p.BluRay.x264-BORDURE
2024-04-18 19:17:27 TV-X264 Star.Trek.Lower.Decks.S04E01.BDRip.x264-BORDURE
2024-04-18 19:17:31 TV-X264 Star.Trek.Lower.Decks.S04E02.BDRip.x264-BORDURE
2024-04-18 19:17:37 TV-X264 Star.Trek.Lower.Decks.S04E03.BDRip.x264-BORDURE
2024-04-18 19:17:47 TV-X264 Star.Trek.Lower.Decks.S04E04.BDRip.x264-BORDURE
2024-04-18 19:17:49 TV-WEB-HD-X264 Oak.Island.E.Il.Tesoro.Maledetto.S11E01.iTALiAN.720p.WEB.H264-NEUROSiS
2024-04-18 19:17:53 TV-X264 Star.Trek.Lower.Decks.S04E05.BDRip.x264-BORDURE
2024-04-18 19:17:59 TV-X264 Star.Trek.Lower.Decks.S04E06.BDRip.x264-BORDURE
2024-04-18 19:18:02 TV-X264 Star.Trek.Lower.Decks.S04E07.BDRip.x264-BORDURE
2024-04-18 19:18:08 TV-X264 Star.Trek.Lower.Decks.S04E08.BDRip.x264-BORDURE
2024-04-18 19:18:12 TV-X264 Star.Trek.Lower.Decks.S04E09.BDRip.x264-BORDURE
2024-04-18 19:18:33 TV-X264 Star.Trek.Lower.Decks.S04E10.BDRip.x264-BORDURE
2024-04-18 19:18:44 TV-BLURAY Star.Trek.Lower.Decks.S04D01.COMPLETE.BLURAY-SLIPSTREAM
2024-04-18 19:19:18 TV-BLURAY Star.Trek.Lower.Decks.S04D02.COMPLETE.BLURAY-SLIPSTREAM
2024-04-18 19:19:35 MP3-WEB Srd-Vragvmesiton-WEB-SK-2024-BLEEDiNG
2024-04-18 19:19:55 TV-WEB-HD-X264 Oak.Island.E.Il.Tesoro.Maledetto.S11E02.iTALiAN.720p.WEB.H264-NEUROSiS
2024-04-18 19:19:55 GAMES-DOX Galactic.Civilizations.IV.Supernova.Update.v2.5.incl.DLC-RUNE
2024-04-18 19:20:01 MP3-WEB Mark_Vox_-_Look_For_My_Love-(QSR271)-WEB-2024-ZzZz
2024-04-18 19:20:14 TV-WEB-HD-X264 Oak.Island.E.Il.Tesoro.Maledetto.S11E03.iTALiAN.720p.WEB.H264-NEUROSiS
2024-04-18 19:20:37 TV-WEB-HD-X264 Oak.Island.E.Il.Tesoro.Maledetto.S11E04.iTALiAN.720p.WEB.H264-NEUROSiS
2024-04-18 19:21:05 TV-WEB-HD-X264 Oak.Island.E.Il.Tesoro.Maledetto.S11E05.iTALiAN.720p.WEB.H264-NEUROSiS
2024-04-18 19:21:20 TV-WEB-HD-X264 Oak.Island.E.Il.Tesoro.Maledetto.S11E06.iTALiAN.720p.WEB.H264-NEUROSiS
2024-04-18 19:21:40 TV-WEB-HD-X264 Oak.Island.E.Il.Tesoro.Maledetto.S11E07.iTALiAN.720p.WEB.H264-NEUROSiS
2024-04-18 19:21:54 TV-WEB-HD-X264 Oak.Island.E.Il.Tesoro.Maledetto.S11E08.iTALiAN.720p.WEB.H264-NEUROSiS
2024-04-18 19:22:15 TV-WEB-HD-X264 Oak.Island.E.Il.Tesoro.Maledetto.S11E09.iTALiAN.720p.WEB.H264-NEUROSiS
2024-04-18 19:22:36 TV-WEB-HD-X264 Oak.Island.E.Il.Tesoro.Maledetto.S11E10.iTALiAN.720p.WEB.H264-NEUROSiS
2024-04-18 19:30:35 MP3-WEB Pectora-Twilight_Knights-WEB-2024-ENTiTLED
2024-04-18 19:31:21 BLURAY Thor.and.Loki.Blood.Brothers.2011.iNTERNAL.COMPLETE.BLURAY-REFRACTiON
2024-04-18 19:31:26 FLAC-WEB Grateful_Dead-From_The_Mars_Hotel_The_Angels_Share-24BIT-96KHZ-WEB-FLAC-2024-OBZEN
2024-04-18 19:32:18 FLAC-WEB NOFX-Half_Album-EP-24BIT-48KHZ-WEB-FLAC-2024-OBZEN
2024-04-18 19:32:53 FLAC-WEB